Darstellungsparameter: Aktuell verwendete Einstellungen:
Skalierung der Graphiken ... ?
xyx+y,   Skalierungsfaktor:      Skalierung: Modus: x, Faktor: 1
Darstellungszeitraum ... ?
Vom - - bis: - -   Zeitraum: 06.06.2019 - 03.07.2019
Min/Max/Avg-Anzeige ... ?
Zeige MMA aktuell
Zeige MMA Monat
Zeige MMA alles
Zeige --A aktuell
Zeige --A Monat
Zeige --A alles
Keine MMA-Anzeige
MMA:
Average (ber die Originaldaten)
MMA-Basis: 06.06.2019 - 03.07.2019
Quicknavigation für Darstellung... ?
Tage:      1T, 2T, 3T, 5T -1T -2T -3T -5T +1T +2T +3T +5T
Wochen: 1W, 2W, 3W -1W -2W -3W +1W +2W +3W
Monate: 1M, 3M, 6M -1M -3M -6M +1M +3M +6M
Jahre:    1J, 3J, 5J, 10J -1J -3J -5J -10J +1J +3J +5J +10J
Nutze für die Darstellung ... ?
Originaldaten oder Mittelwerte auf ...
Stundenbasis Tagesbasis Wochenbasis
Monatsbasis Jahresbasis      Datenbasis: Original-Daten
Darstellen als:
Statistik (Auto) Statistik J:M      Darstellung:
Zur Graphik,    zurück zur Übersicht aller Sensoren.
 
Tabellarische Datenbersicht: ?
 
Sensor: Nr:Datum:Temp:Feuchte:
Aussen-T/F 1 06-06-2019 00:02:17 20.7 C 25 %
2 06-06-2019 00:14:17 22 C 20 %
3 06-06-2019 00:26:17 23 C 20 %
4 06-06-2019 00:38:17 22.6 C 20 %
5 06-06-2019 00:50:17 21.8 C 20 %
6 06-06-2019 01:02:17 21.2 C 20 %
7 06-06-2019 01:14:17 18.1 C 31 %
8 06-06-2019 01:26:17 17.3 C 39 %
9 06-06-2019 01:38:17 17 C 40 %
10 06-06-2019 01:50:17 16.7 C 43 %
11 06-06-2019 02:02:17 16.8 C 44 %
12 06-06-2019 02:14:17 16.9 C 47 %
13 06-06-2019 02:26:17 16.7 C 47 %
14 06-06-2019 02:38:18 16.8 C 47 %
15 06-06-2019 02:50:17 16.8 C 47 %
16 06-06-2019 03:02:17 16.5 C 46 %
17 06-06-2019 03:14:17 16.6 C 47 %
18 06-06-2019 03:26:17 16.4 C 47 %
19 06-06-2019 03:38:17 16.5 C 48 %
20 06-06-2019 03:50:17 16.4 C 47 %
21 06-06-2019 04:02:17 16.4 C 47 %
22 06-06-2019 04:14:17 16.4 C 47 %
23 06-06-2019 04:26:18 16.4 C 48 %
24 06-06-2019 04:38:17 16.4 C 49 %
25 06-06-2019 04:50:17 16.4 C 50 %
Sensor: Nr:Datum:Temp:Feuchte:
Aussen-T/F 26 06-06-2019 05:02:17 16.3 C 49 %
27 06-06-2019 05:14:17 15.9 C 45 %
28 06-06-2019 05:26:17 15.9 C 45 %
29 06-06-2019 05:38:17 15 C 37 %
30 06-06-2019 05:50:17 14.8 C 38 %
31 06-06-2019 06:02:18 14.6 C 38 %
32 06-06-2019 06:14:18 14.6 C 38 %
33 06-06-2019 06:26:17 14.3 C 37 %
34 06-06-2019 06:38:17 13.6 C 34 %
35 06-06-2019 06:50:17 13.5 C 35 %
36 06-06-2019 07:02:17 13.5 C 32 %
37 06-06-2019 07:14:17 13.3 C 33 %
38 06-06-2019 07:26:17 13.2 C 32 %
39 06-06-2019 07:38:17 13.7 C 31 %
40 06-06-2019 07:50:17 13.8 C 30 %
41 06-06-2019 08:02:17 13.9 C 30 %
42 06-06-2019 08:14:17 13.8 C 30 %
43 06-06-2019 08:26:17 13.7 C 27 %
44 06-06-2019 08:38:17 13.4 C 27 %
45 06-06-2019 08:50:17 13.5 C 27 %
46 06-06-2019 09:02:17 13.5 C 27 %
47 06-06-2019 09:14:17 13.2 C 25 %
48 06-06-2019 09:26:17 13.5 C 25 %
49 06-06-2019 09:38:17 13.5 C 25 %
50 06-06-2019 09:50:17 14.2 C 25 %
Sensor: Nr:Datum:Temp:Feuchte:
Aussen-T/F 51 06-06-2019 10:02:17 14.2 C 25 %
52 06-06-2019 10:14:17 13.9 C 23 %
53 06-06-2019 10:26:17 13.9 C 24 %
54 06-06-2019 10:38:17 14.5 C 23 %
55 06-06-2019 10:50:17 15.2 C 20 %
56 06-06-2019 11:02:18 15.4 C 20 %
57 06-06-2019 11:14:18 16 C 20 %
58 06-06-2019 11:26:17 15.4 C 20 %
59 06-06-2019 11:38:18 15.4 C 20 %
60 06-06-2019 11:50:17 15.4 C 20 %
61 06-06-2019 12:02:17 15.3 C 20 %
62 06-06-2019 12:14:17 15.6 C 20 %
63 06-06-2019 12:26:17 15.6 C 20 %
64 06-06-2019 12:38:17 16.5 C 20 %
65 06-06-2019 12:50:18 16.7 C 20 %
66 06-06-2019 13:02:17 17.6 C 20 %
67 06-06-2019 13:14:17 18 C 20 %
68 06-06-2019 13:26:17 17.4 C 20 %
69 06-06-2019 13:38:17 17.2 C 20 %
70 06-06-2019 13:50:17 17.5 C 20 %
71 06-06-2019 14:02:17 18.1 C 20 %
72 06-06-2019 14:14:17 17.9 C 20 %
73 06-06-2019 14:26:17 17.9 C 20 %
74 06-06-2019 14:38:18 18.1 C 20 %
75 06-06-2019 14:50:17 18.2 C 20 %
Sensor: Nr:Datum:Temp:Feuchte:
Aussen-T/F 76 06-06-2019 15:02:17 18.2 C 20 %
77 06-06-2019 15:14:17 18.5 C 20 %
78 06-06-2019 15:26:17 19.4 C 20 %
79 06-06-2019 15:38:17 18.9 C 20 %
80 06-06-2019 15:50:17 18.7 C 20 %
81 06-06-2019 16:02:17 19.1 C 20 %
82 06-06-2019 16:14:17 18.8 C 20 %
83 06-06-2019 16:26:17 18.7 C 20 %
84 06-06-2019 16:38:17 19.1 C 20 %
85 06-06-2019 16:50:17 18.5 C 20 %
86 06-06-2019 17:02:17 17.9 C 20 %
87 06-06-2019 17:14:17 17.2 C 20 %
88 06-06-2019 17:26:17 17.2 C 20 %
89 06-06-2019 17:38:17 17 C 20 %
90 06-06-2019 17:50:17 16.8 C 20 %
91 06-06-2019 18:02:18 16.6 C 20 %
92 06-06-2019 18:14:18 16.5 C 20 %
93 06-06-2019 18:26:17 17.2 C 20 %
94 06-06-2019 18:38:17 18.6 C 20 %
95 06-06-2019 18:50:17 19.7 C 20 %
96 06-06-2019 19:02:17 19.5 C 20 %
97 06-06-2019 19:14:17 19.1 C 20 %
98 06-06-2019 19:26:17 18.6 C 20 %
99 06-06-2019 19:38:17 17.9 C 20 %
100 06-06-2019 19:50:17 17.8 C 20 %
Sensor: Nr:Datum:Temp:Feuchte:
Aussen-T/F 101 06-06-2019 20:02:17 17.6 C 20 %
102 06-06-2019 20:14:17 17.3 C 20 %
103 06-06-2019 20:26:17 17.1 C 20 %
104 06-06-2019 20:38:17 16.9 C 20 %
105 06-06-2019 20:50:17 16.4 C 20 %
106 06-06-2019 21:02:17 15.5 C 20 %
107 06-06-2019 21:14:17 14.7 C 25 %
108 06-06-2019 21:26:17 14.1 C 26 %
109 06-06-2019 21:38:17 13.7 C 27 %
110 06-06-2019 21:50:17 13.3 C 29 %
111 06-06-2019 22:02:17 12.9 C 31 %
112 06-06-2019 22:14:17 12.6 C 31 %
113 06-06-2019 22:26:18 12.1 C 34 %
114 06-06-2019 22:38:17 11.9 C 35 %
115 06-06-2019 22:50:17 11.8 C 36 %
116 06-06-2019 23:02:18 11.5 C 36 %
117 06-06-2019 23:14:18 11.5 C 37 %
118 06-06-2019 23:26:17 11 C 37 %
119 06-06-2019 23:38:17 11.1 C 38 %
120 06-06-2019 23:50:17 10.6 C 39 %
121 07-06-2019 00:02:17 10.3 C 41 %
122 07-06-2019 00:14:17 10.2 C 42 %
123 07-06-2019 00:26:17 10.2 C 43 %
124 07-06-2019 00:38:17 10 C 43 %
125 07-06-2019 00:50:17 10 C 43 %
Sensor: Nr:Datum:Temp:Feuchte:
Aussen-T/F 126 07-06-2019 01:02:17 9.8 C 44 %
127 07-06-2019 01:14:17 9.7 C 45 %
128 07-06-2019 01:26:17 9.7 C 46 %
129 07-06-2019 01:38:17 9.6 C 46 %
130 07-06-2019 01:50:17 9.4 C 46 %
131 07-06-2019 02:02:18 9.2 C 46 %
132 07-06-2019 02:14:18 9.2 C 46 %
133 07-06-2019 02:26:17 9.3 C 47 %
134 07-06-2019 02:38:17 9 C 47 %
135 07-06-2019 02:50:17 8.9 C 48 %
136 07-06-2019 03:02:17 9.1 C 48 %
137 07-06-2019 03:14:17 9 C 48 %
138 07-06-2019 03:26:17 9.4 C 49 %
139 07-06-2019 03:38:17 10 C 50 %
140 07-06-2019 03:50:17 10.2 C 49 %
141 07-06-2019 04:02:17 10.5 C 48 %
142 07-06-2019 04:14:17 10.6 C 46 %
143 07-06-2019 04:26:17 10.4 C 44 %
144 07-06-2019 04:38:17 10.4 C 44 %
145 07-06-2019 04:50:17 9.5 C 45 %
146 07-06-2019 05:02:18 9.1 C 45 %
147 07-06-2019 05:14:18 9 C 46 %
148 07-06-2019 05:26:17 9 C 46 %
149 07-06-2019 05:38:17 9 C 48 %
150 07-06-2019 05:50:17 9 C 48 %
Sensor: Nr:Datum:Temp:Feuchte:
Aussen-T/F 151 07-06-2019 06:02:17 9.2 C 49 %
152 07-06-2019 06:14:17 9.6 C 50 %
153 07-06-2019 06:26:17 9.6 C 49 %
154 07-06-2019 06:38:17 9.7 C 49 %
155 07-06-2019 06:50:17 10.1 C 49 %
156 07-06-2019 07:02:17 10.5 C 48 %
157 07-06-2019 07:14:17 10.4 C 45 %
158 07-06-2019 07:26:17 10.3 C 45 %
159 07-06-2019 07:38:17 10.5 C 45 %
160 07-06-2019 07:50:17 11 C 44 %
161 07-06-2019 08:02:18 11.4 C 42 %
162 07-06-2019 08:14:18 12.2 C 34 %
163 07-06-2019 08:26:17 12.6 C 33 %
164 07-06-2019 08:38:17 13.1 C 30 %
165 07-06-2019 08:50:17 13.9 C 27 %
166 07-06-2019 09:02:17 14.1 C 26 %
167 07-06-2019 09:14:17 14.4 C 25 %
168 07-06-2019 09:26:17 14.7 C 25 %
169 07-06-2019 09:38:17 15.5 C 24 %
170 07-06-2019 09:50:17 16.1 C 21 %
171 07-06-2019 10:02:17 16.2 C 20 %
172 07-06-2019 10:14:17 16.2 C 20 %
173 07-06-2019 10:26:17 16.2 C 20 %
174 07-06-2019 10:38:17 19.2 C 20 %
175 07-06-2019 10:50:17 19.8 C 20 %
Sensor: Nr:Datum:Temp:Feuchte:
Aussen-T/F 176 07-06-2019 11:02:17 20 C 20 %
177 07-06-2019 11:14:17 20.4 C 20 %
178 07-06-2019 11:26:17 20.5 C 20 %
179 07-06-2019 11:38:17 20.6 C 20 %
180 07-06-2019 11:50:17 21.5 C 20 %
181 07-06-2019 12:02:18 21.7 C 20 %
182 07-06-2019 12:14:18 21.7 C 20 %
183 07-06-2019 12:26:17 21.7 C 20 %
184 07-06-2019 12:38:17 20.8 C 20 %
185 07-06-2019 12:50:18 20.9 C 20 %
186 07-06-2019 13:02:17 21.4 C 20 %
187 07-06-2019 13:14:17 21.4 C 20 %
188 07-06-2019 13:26:17 21.6 C 20 %
189 07-06-2019 13:38:17 20.9 C 20 %
190 07-06-2019 13:50:17 20.9 C 20 %
191 07-06-2019 14:02:17 20.9 C 20 %
192 07-06-2019 14:14:17 20.8 C 20 %
193 07-06-2019 14:26:17 21.8 C 20 %
194 07-06-2019 14:38:18 21.8 C 20 %
195 07-06-2019 14:50:17 23.7 C 20 %
196 07-06-2019 15:02:17 24.3 C 20 %
197 07-06-2019 15:14:18 24.9 C 20 %
198 07-06-2019 15:26:17 24.8 C 20 %
199 07-06-2019 15:38:17 24.8 C 20 %
200 07-06-2019 15:50:17 26.3 C 20 %
Sensor: Nr:Datum:Temp:Feuchte:
Aussen-T/F 201 07-06-2019 16:02:17 26.8 C 20 %
202 07-06-2019 16:14:17 27.7 C 20 %
203 07-06-2019 16:26:17 26.1 C 20 %
204 07-06-2019 16:38:17 25.6 C 20 %
205 07-06-2019 16:50:17 25.5 C 20 %
206 07-06-2019 17:02:17 26.7 C 20 %
207 07-06-2019 17:14:17 26.4 C 20 %
208 07-06-2019 17:26:17 25.5 C 20 %
209 07-06-2019 17:38:18 24.4 C 20 %
210 07-06-2019 17:50:17 23.9 C 20 %
211 07-06-2019 18:02:17 24 C 20 %
212 07-06-2019 18:14:17 23.4 C 20 %
213 07-06-2019 18:26:17 23.4 C 20 %
214 07-06-2019 18:38:17 21.4 C 20 %
215 07-06-2019 18:50:18 21.4 C 20 %
216 07-06-2019 19:02:17 21.4 C 20 %
217 07-06-2019 19:14:17 19 C 20 %
218 07-06-2019 19:26:17 19 C 20 %
219 07-06-2019 19:38:17 19 C 20 %
220 07-06-2019 19:50:17 16.3 C 20 %
221 07-06-2019 20:02:18 16.3 C 20 %
222 07-06-2019 20:14:18 16.3 C 20 %
223 07-06-2019 20:26:17 16.3 C 20 %
224 07-06-2019 20:38:17 16.3 C 20 %
225 07-06-2019 20:50:18 14.1 C 22 %
Sensor: Nr:Datum:Temp:Feuchte:
Aussen-T/F 226 07-06-2019 21:02:17 14.7 C 21 %
227 07-06-2019 21:14:17 14.7 C 21 %
228 07-06-2019 21:26:17 14.7 C 22 %
229 07-06-2019 21:38:17 14.8 C 20 %
230 07-06-2019 21:50:17 14.9 C 20 %
231 07-06-2019 22:02:18 15.1 C 20 %
232 07-06-2019 22:14:18 14.5 C 20 %
233 07-06-2019 22:26:17 14.2 C 20 %
234 07-06-2019 22:38:17 14.3 C 20 %
235 07-06-2019 22:50:18 13.9 C 20 %
236 07-06-2019 23:02:17 14.5 C 20 %
237 07-06-2019 23:14:17 15.1 C 20 %
238 07-06-2019 23:26:17 15.1 C 20 %
239 07-06-2019 23:38:17 15.1 C 20 %
240 07-06-2019 23:50:17 15 C 20 %
241 08-06-2019 00:02:18 15.1 C 20 %
242 08-06-2019 00:14:18 15 C 20 %
243 08-06-2019 00:26:17 15 C 20 %
244 08-06-2019 00:38:17 15.1 C 20 %
245 08-06-2019 00:50:17 15.5 C 20 %
246 08-06-2019 01:02:17 15.5 C 20 %
247 08-06-2019 01:14:17 15.4 C 20 %
248 08-06-2019 01:26:17 15.6 C 20 %
249 08-06-2019 01:38:18 15.4 C 20 %
250 08-06-2019 01:50:17 15.4 C 20 %
Sensor: Nr:Datum:Temp:Feuchte:
Aussen-T/F 251 08-06-2019 02:02:17 15.7 C 20 %
252 08-06-2019 02:14:17 15.7 C 20 %
253 08-06-2019 02:26:17 15.7 C 20 %
254 08-06-2019 02:38:17 15.7 C 20 %
255 08-06-2019 02:50:17 15.7 C 20 %
256 08-06-2019 03:02:17 14.5 C 20 %
257 08-06-2019 03:14:17 14.8 C 20 %
258 08-06-2019 03:26:17 14.9 C 20 %
259 08-06-2019 03:38:18 14.9 C 20 %
260 08-06-2019 03:50:17 15 C 20 %
261 08-06-2019 04:02:17 14.9 C 20 %
262 08-06-2019 04:14:17 14.8 C 20 %
263 08-06-2019 04:26:17 14.8 C 20 %
264 08-06-2019 04:38:17 14.7 C 20 %
265 08-06-2019 04:50:17 14.5 C 20 %
266 08-06-2019 05:02:18 14.4 C 20 %
267 08-06-2019 05:14:18 14.1 C 20 %
268 08-06-2019 05:26:17 13.9 C 20 %
269 08-06-2019 05:38:17 13.8 C 20 %
270 08-06-2019 05:50:17 13.5 C 20 %
271 08-06-2019 06:02:18 13.5 C 20 %
272 08-06-2019 06:14:18 13.3 C 20 %
273 08-06-2019 06:26:17 13.3 C 20 %
274 08-06-2019 06:38:17 13 C 20 %
275 08-06-2019 06:50:17 13 C 20 %
Sensor: Nr:Datum:Temp:Feuchte:
Aussen-T/F 276 08-06-2019 07:02:17 13.5 C 20 %
277 08-06-2019 07:14:17 13.4 C 20 %
278 08-06-2019 07:26:17 13.6 C 20 %
279 08-06-2019 07:38:18 13.7 C 20 %
280 08-06-2019 07:50:17 14.1 C 20 %
281 08-06-2019 08:02:17 14.2 C 20 %
282 08-06-2019 08:14:17 14.6 C 20 %
283 08-06-2019 08:26:17 14.6 C 20 %
284 08-06-2019 08:38:17 14.6 C 20 %
285 08-06-2019 08:50:17 14.3 C 20 %
286 08-06-2019 09:02:18 14.5 C 20 %
287 08-06-2019 09:14:18 14.5 C 20 %
288 08-06-2019 09:26:17 14.8 C 20 %
289 08-06-2019 09:38:17 15.3 C 20 %
290 08-06-2019 09:50:17 15.4 C 20 %
291 08-06-2019 10:02:17 15.3 C 20 %
292 08-06-2019 10:14:17 14.9 C 20 %
293 08-06-2019 10:26:17 14.7 C 20 %
294 08-06-2019 10:38:17 15.3 C 20 %
295 08-06-2019 10:50:17 16.2 C 20 %
296 08-06-2019 11:02:17 15.9 C 20 %
297 08-06-2019 11:14:17 16.4 C 20 %
298 08-06-2019 11:26:17 16.3 C 20 %
299 08-06-2019 11:38:17 16.8 C 20 %
300 08-06-2019 11:50:17 16.8 C 20 %
Sensor: Nr:Datum:Temp:Feuchte:
Aussen-T/F 301 08-06-2019 12:02:17 17.2 C 20 %
302 08-06-2019 12:14:17 16.7 C 20 %
303 08-06-2019 12:26:17 16.7 C 20 %
304 08-06-2019 12:38:17 16.7 C 20 %
305 08-06-2019 12:50:17 18.3 C 20 %
306 08-06-2019 13:02:18 17.9 C 20 %
307 08-06-2019 13:14:18 18.3 C 20 %
308 08-06-2019 13:26:17 18.5 C 20 %
309 08-06-2019 13:38:17 17.9 C 20 %
310 08-06-2019 13:50:17 18.6 C 20 %
311 08-06-2019 14:02:17 19.1 C 20 %
312 08-06-2019 14:14:17 18.7 C 20 %
313 08-06-2019 14:26:17 19.4 C 20 %
314 08-06-2019 14:38:17 20.1 C 20 %
315 08-06-2019 14:50:17 20.1 C 20 %
316 08-06-2019 15:02:18 21.2 C 20 %
317 08-06-2019 15:14:18 19.6 C 20 %
318 08-06-2019 15:26:17 20.4 C 20 %
319 08-06-2019 15:38:17 20.3 C 20 %
320 08-06-2019 15:50:18 20.1 C 20 %
321 08-06-2019 16:02:17 19.4 C 20 %
322 08-06-2019 16:14:17 19.7 C 20 %
323 08-06-2019 16:26:17 22.2 C 20 %
324 08-06-2019 16:38:17 20.8 C 20 %
325 08-06-2019 16:50:17 20.8 C 20 %
Sensor: Nr:Datum:Temp:Feuchte:
Aussen-T/F 326 08-06-2019 17:02:17 20.5 C 20 %
327 08-06-2019 17:14:17 21.2 C 20 %
328 08-06-2019 17:26:17 20.5 C 20 %
329 08-06-2019 17:38:17 20.1 C 20 %
330 08-06-2019 17:50:17 21.3 C 20 %
331 08-06-2019 18:02:18 20.4 C 20 %
332 08-06-2019 18:14:18 22 C 20 %
333 08-06-2019 18:26:17 21.8 C 20 %
334 08-06-2019 18:38:17 20.8 C 20 %
335 08-06-2019 18:50:17 18.9 C 20 %
336 08-06-2019 19:02:17 18.9 C 20 %
337 08-06-2019 19:14:17 19.1 C 20 %
338 08-06-2019 19:26:17 19.1 C 20 %
339 08-06-2019 19:38:17 19.1 C 20 %
340 08-06-2019 19:50:17 18.9 C 20 %
341 08-06-2019 20:02:17 18.6 C 20 %
342 08-06-2019 20:14:17 17.7 C 20 %
343 08-06-2019 20:26:17 17.5 C 20 %
344 08-06-2019 20:38:17 16.5 C 20 %
345 08-06-2019 20:50:17 16.4 C 20 %
346 08-06-2019 21:02:17 16.2 C 20 %
347 08-06-2019 21:14:17 16 C 20 %
348 08-06-2019 21:26:17 16 C 20 %
349 08-06-2019 21:38:17 16 C 20 %
350 08-06-2019 21:50:17 15.5 C 20 %
Sensor: Nr:Datum:Temp:Feuchte:
Aussen-T/F 351 08-06-2019 22:02:17 15.1 C 20 %
352 08-06-2019 22:14:17 14.2 C 20 %
353 08-06-2019 22:26:17 13.9 C 20 %
354 08-06-2019 22:38:18 13.6 C 20 %
355 08-06-2019 22:50:17 13.2 C 22 %
356 08-06-2019 23:02:17 12.7 C 25 %
357 08-06-2019 23:14:17 12.7 C 26 %
358 08-06-2019 23:26:17 12.6 C 26 %
359 08-06-2019 23:38:17 12.4 C 26 %
360 08-06-2019 23:50:17 12.2 C 27 %
361 09-06-2019 00:02:17 11.8 C 30 %
362 09-06-2019 00:14:17 11.8 C 30 %
363 09-06-2019 00:26:17 11.5 C 31 %
364 09-06-2019 00:38:17 11.1 C 33 %
365 09-06-2019 00:50:17 11 C 35 %
366 09-06-2019 01:02:18 11.1 C 34 %
367 09-06-2019 01:14:18 10.9 C 35 %
368 09-06-2019 01:26:17 11.2 C 34 %
369 09-06-2019 01:38:17 11.1 C 33 %
370 09-06-2019 01:50:18 10.7 C 33 %
371 09-06-2019 02:02:17 11 C 35 %
372 09-06-2019 02:14:17 11 C 34 %
373 09-06-2019 02:26:17 11.1 C 35 %
374 09-06-2019 02:38:17 10.8 C 35 %
375 09-06-2019 02:50:17 10.4 C 36 %
Sensor: Nr:Datum:Temp:Feuchte:
Aussen-T/F 376 09-06-2019 03:02:17 10.4 C 37 %
377 09-06-2019 03:14:17 10.4 C 37 %
378 09-06-2019 03:26:18 10.1 C 38 %
379 09-06-2019 03:38:17 9.8 C 40 %
380 09-06-2019 03:50:17 9.7 C 41 %
381 09-06-2019 04:02:18 9.6 C 41 %
382 09-06-2019 04:14:18 9.5 C 41 %
383 09-06-2019 04:26:17 9 C 40 %
384 09-06-2019 04:38:17 8.7 C 41 %
385 09-06-2019 04:50:17 8.6 C 43 %
386 09-06-2019 05:02:17 8.5 C 43 %
387 09-06-2019 05:14:17 8.3 C 44 %
388 09-06-2019 05:26:17 8.3 C 45 %
389 09-06-2019 05:38:17 8.3 C 45 %
390 09-06-2019 05:50:17 8.3 C 46 %
391 09-06-2019 06:02:18 8.3 C 45 %
392 09-06-2019 06:14:18 8.4 C 45 %
393 09-06-2019 06:26:17 8.2 C 45 %
394 09-06-2019 06:38:17 8.5 C 46 %
395 09-06-2019 06:50:17 9 C 46 %
396 09-06-2019 07:02:17 9.3 C 46 %
397 09-06-2019 07:14:17 9.5 C 45 %
398 09-06-2019 07:26:17 10 C 45 %
399 09-06-2019 07:38:17 10.2 C 44 %
400 09-06-2019 07:50:17 10.4 C 43 %
Sensor: Nr:Datum:Temp:Feuchte:
Aussen-T/F 401 09-06-2019 08:02:18 10.6 C 42 %
402 09-06-2019 08:14:18 10.7 C 43 %
403 09-06-2019 08:26:17 11.2 C 42 %
404 09-06-2019 08:38:17 11.6 C 42 %
405 09-06-2019 08:50:17 11.6 C 42 %
406 09-06-2019 09:02:17 13.2 C 36 %
407 09-06-2019 09:14:17 14.1 C 31 %
408 09-06-2019 09:26:17 14.6 C 27 %
409 09-06-2019 09:38:17 15 C 26 %
410 09-06-2019 09:50:17 16.4 C 21 %
411 09-06-2019 10:02:18 16.3 C 21 %
412 09-06-2019 10:14:18 16.9 C 20 %
413 09-06-2019 10:26:17 18.2 C 20 %
414 09-06-2019 10:38:17 19.1 C 20 %
415 09-06-2019 10:50:17 19.5 C 20 %
416 09-06-2019 11:02:17 19.9 C 20 %
417 09-06-2019 11:14:17 20.3 C 20 %
418 09-06-2019 11:26:17 20.2 C 20 %
419 09-06-2019 11:38:17 20.2 C 20 %
420 09-06-2019 11:50:17 20.8 C 20 %
421 09-06-2019 12:02:17 20.7 C 20 %
422 09-06-2019 12:14:17 21.4 C 20 %
423 09-06-2019 12:26:17 21.2 C 20 %
424 09-06-2019 12:38:17 21 C 20 %
425 09-06-2019 12:50:17 21 C 20 %
Sensor: Nr:Datum:Temp:Feuchte:
Aussen-T/F 426 09-06-2019 13:02:17 21.1 C 20 %
427 09-06-2019 13:14:17 21.4 C 20 %
428 09-06-2019 13:26:17 21.6 C 20 %
429 09-06-2019 13:38:18 21.6 C 20 %
430 09-06-2019 13:50:17 22.7 C 20 %
431 09-06-2019 14:02:17 23.1 C 20 %
432 09-06-2019 14:14:17 23 C 20 %
433 09-06-2019 14:26:17 23.4 C 20 %
434 09-06-2019 14:38:17 23.6 C 20 %
435 09-06-2019 14:50:17 23.6 C 20 %
436 09-06-2019 15:02:17 23.6 C 20 %
437 09-06-2019 15:14:17 23.4 C 20 %
438 09-06-2019 15:26:18 23.7 C 20 %
439 09-06-2019 15:38:17 24.2 C 20 %
440 09-06-2019 15:50:17 24.2 C 20 %
441 09-06-2019 16:02:17 24.1 C 20 %
442 09-06-2019 16:14:17 24.3 C 20 %
443 09-06-2019 16:26:17 24.1 C 20 %
444 09-06-2019 16:38:17 24.1 C 20 %
445 09-06-2019 16:50:17 24.1 C 20 %
446 09-06-2019 17:02:18 23.7 C 20 %
447 09-06-2019 17:14:18 23.6 C 20 %
448 09-06-2019 17:26:17 23.8 C 20 %
449 09-06-2019 17:38:17 23.4 C 20 %
450 09-06-2019 17:50:17 23.2 C 20 %
Sensor: Nr:Datum:Temp:Feuchte:
Aussen-T/F 451 09-06-2019 18:02:17 23.3 C 20 %
452 09-06-2019 18:14:17 23.3 C 20 %
453 09-06-2019 18:26:17 25 C 20 %
454 09-06-2019 18:38:17 23.5 C 20 %
455 09-06-2019 18:50:17 23.5 C 20 %
456 09-06-2019 19:02:17 23.5 C 20 %
457 09-06-2019 19:14:17 23.5 C 20 %
458 09-06-2019 19:26:17 21.3 C 20 %
459 09-06-2019 19:38:17 21.3 C 20 %
460 09-06-2019 19:50:17 20.4 C 20 %
461 09-06-2019 20:02:17 20.4 C 20 %
462 09-06-2019 20:14:17 20.4 C 20 %
463 09-06-2019 20:26:17 19.6 C 20 %
464 09-06-2019 20:38:18 19.6 C 20 %
465 09-06-2019 20:50:17 19.3 C 20 %
466 09-06-2019 21:02:17 19.1 C 20 %
467 09-06-2019 21:14:17 19.1 C 20 %
468 09-06-2019 21:26:17 18.8 C 20 %
469 09-06-2019 21:38:17 18.7 C 20 %
470 09-06-2019 21:50:17 18.5 C 20 %
471 09-06-2019 22:02:17 18.5 C 20 %
472 09-06-2019 22:14:17 18.4 C 20 %
473 09-06-2019 22:26:17 18.3 C 20 %
474 09-06-2019 22:38:17 18.1 C 20 %
475 09-06-2019 22:50:17 18 C 20 %
Sensor: Nr:Datum:Temp:Feuchte:
Aussen-T/F 476 09-06-2019 23:02:17 18 C 20 %
477 09-06-2019 23:14:17 17.9 C 21 %
478 09-06-2019 23:26:17 17.8 C 21 %
479 09-06-2019 23:38:17 17.8 C 21 %
480 09-06-2019 23:50:17 17.8 C 21 %
481 10-06-2019 00:02:17 17.7 C 22 %
482 10-06-2019 00:14:17 17.7 C 22 %
483 10-06-2019 00:26:17 17.7 C 22 %
484 10-06-2019 00:38:17 17.2 C 23 %
485 10-06-2019 00:50:17 17.2 C 23 %
486 10-06-2019 01:02:17 17.2 C 21 %
487 10-06-2019 01:14:17 17.2 C 21 %
488 10-06-2019 01:26:17 17.2 C 21 %
489 10-06-2019 01:38:17 16.3 C 25 %
490 10-06-2019 01:50:17 16.2 C 25 %
491 10-06-2019 02:02:17 16.3 C 25 %
492 10-06-2019 02:14:17 16.3 C 25 %
493 10-06-2019 02:26:17 14.3 C 25 %
494 10-06-2019 02:38:17 15.4 C 26 %
495 10-06-2019 02:50:17 15.4 C 26 %
496 10-06-2019 03:02:18 15.4 C 26 %
497 10-06-2019 03:14:18 15.4 C 26 %
498 10-06-2019 03:26:17 15.4 C 26 %
499 10-06-2019 03:38:17 15.4 C 26 %
500 10-06-2019 03:50:17 15.4 C 26 %
Sensor: Nr:Datum:Temp:Feuchte:
Aussen-T/F 501 10-06-2019 04:02:17 14.4 C 33 %
502 10-06-2019 04:14:17 14.4 C 33 %
503 10-06-2019 04:26:17 14.4 C 33 %
504 10-06-2019 04:38:17 14.6 C 34 %
505 10-06-2019 04:50:17 14.6 C 33 %
506 10-06-2019 05:02:18 14.7 C 34 %
507 10-06-2019 05:14:18 14.7 C 34 %
508 10-06-2019 05:26:17 14.6 C 34 %
509 10-06-2019 05:38:17 14.6 C 35 %
510 10-06-2019 05:50:17 14.7 C 35 %
511 10-06-2019 06:02:17 14.7 C 35 %
512 10-06-2019 06:14:17 14.8 C 35 %
513 10-06-2019 06:26:18 14.8 C 35 %
514 10-06-2019 06:38:17 14.9 C 35 %
515 10-06-2019 06:50:17 14.9 C 36 %
516 10-06-2019 07:02:18 15 C 35 %
517 10-06-2019 07:14:18 15.4 C 35 %
518 10-06-2019 07:26:17 15.4 C 35 %
519 10-06-2019 07:38:17 16.2 C 29 %
520 10-06-2019 07:50:17 16.7 C 27 %
521 10-06-2019 08:02:17 16.7 C 27 %
522 10-06-2019 08:14:17 16.7 C 27 %
523 10-06-2019 08:26:17 18.5 C 21 %
524 10-06-2019 08:38:17 18.7 C 20 %
525 10-06-2019 08:50:17 19.1 C 20 %
Sensor: Nr:Datum:Temp:Feuchte:
Aussen-T/F 526 10-06-2019 09:02:17 19.2 C 20 %
527 10-06-2019 09:14:17 19.1 C 20 %
528 10-06-2019 09:26:17 19.3 C 20 %
529 10-06-2019 09:38:17 19.9 C 20 %
530 10-06-2019 09:50:17 19.8 C 20 %
531 10-06-2019 10:02:18 20.2 C 20 %
532 10-06-2019 10:14:18 20.3 C 20 %
533 10-06-2019 10:26:17 20.7 C 20 %
534 10-06-2019 10:38:17 21.3 C 20 %
535 10-06-2019 10:50:17 21.7 C 20 %
536 10-06-2019 11:02:17 21.8 C 20 %
537 10-06-2019 11:14:17 21.8 C 20 %
538 10-06-2019 11:26:17 22.6 C 20 %
539 10-06-2019 11:38:18 23.5 C 20 %
540 10-06-2019 11:50:17 25.3 C 20 %
541 10-06-2019 12:02:18 25.3 C 20 %
542 10-06-2019 12:14:18 23.9 C 20 %
543 10-06-2019 12:26:17 23.2 C 20 %
544 10-06-2019 12:38:17 23.1 C 20 %
545 10-06-2019 12:50:17 23.5 C 20 %
546 10-06-2019 13:02:17 23.9 C 20 %
547 10-06-2019 13:14:17 23.8 C 20 %
548 10-06-2019 13:26:17 23.6 C 20 %
549 10-06-2019 13:38:17 23.4 C 20 %
550 10-06-2019 13:50:17 24 C 20 %
Sensor: Nr:Datum:Temp:Feuchte:
Aussen-T/F 551 10-06-2019 14:02:18 24.3 C 20 %
552 10-06-2019 14:14:18 24.1 C 20 %
553 10-06-2019 14:26:17 24.1 C 20 %
554 10-06-2019 14:38:18 24.2 C 20 %
555 10-06-2019 14:50:17 24.4 C 20 %
556 10-06-2019 15:02:17 24.4 C 20 %
557 10-06-2019 15:14:17 24.4 C 20 %
558 10-06-2019 15:26:17 24 C 20 %
559 10-06-2019 15:38:17 24.2 C 20 %
560 10-06-2019 15:50:17 24.1 C 20 %
561 10-06-2019 16:02:17 25.5 C 20 %
562 10-06-2019 16:14:17 25.3 C 20 %
563 10-06-2019 16:26:17 25.5 C 20 %
564 10-06-2019 16:38:17 25.1 C 20 %
565 10-06-2019 16:50:17 24.5 C 20 %
566 10-06-2019 17:02:18 23.8 C 20 %
567 10-06-2019 17:14:18 23.9 C 20 %
568 10-06-2019 17:26:17 24.7 C 20 %
569 10-06-2019 17:38:17 24.5 C 20 %
570 10-06-2019 17:50:17 24.4 C 20 %
571 10-06-2019 18:02:17 24 C 20 %
572 10-06-2019 18:14:17 24.6 C 20 %
573 10-06-2019 18:26:18 24.2 C 20 %
574 10-06-2019 18:38:17 23.3 C 20 %
575 10-06-2019 18:50:17 22.9 C 20 %
Sensor: Nr:Datum:Temp:Feuchte:
Aussen-T/F 576 10-06-2019 19:02:17 22.5 C 20 %
577 10-06-2019 19:14:17 22.1 C 20 %
578 10-06-2019 19:26:17 22 C 20 %
579 10-06-2019 19:38:17 22 C 20 %
580 10-06-2019 19:50:17 21.4 C 20 %
581 10-06-2019 20:02:17 21.1 C 20 %
582 10-06-2019 20:14:17 20.8 C 20 %
583 10-06-2019 20:26:17 20.7 C 20 %
584 10-06-2019 20:38:17 20.5 C 20 %
585 10-06-2019 20:50:17 20.1 C 20 %
586 10-06-2019 21:02:17 19.5 C 20 %
587 10-06-2019 21:14:17 19.5 C 20 %
588 10-06-2019 21:26:17 19.5 C 20 %
589 10-06-2019 21:38:17 19.4 C 20 %
590 10-06-2019 21:50:17 19 C 20 %
591 10-06-2019 22:02:17 18.6 C 20 %
592 10-06-2019 22:14:17 18.4 C 22 %
593 10-06-2019 22:26:17 18.2 C 23 %
594 10-06-2019 22:38:17 18 C 23 %
595 10-06-2019 22:50:17 17.6 C 25 %
596 10-06-2019 23:02:17 17.4 C 26 %
597 10-06-2019 23:14:17 17.4 C 26 %
598 10-06-2019 23:26:17 17.4 C 25 %
599 10-06-2019 23:38:17 17.3 C 27 %
600 10-06-2019 23:50:18 17.1 C 28 %
Sensor: Nr:Datum:Temp:Feuchte:
Aussen-T/F 601 11-06-2019 00:02:17 16.9 C 29 %
602 11-06-2019 00:14:17 16.7 C 30 %
603 11-06-2019 00:26:17 16.7 C 31 %
604 11-06-2019 00:38:17 16.8 C 31 %
605 11-06-2019 00:50:17 16.7 C 31 %
606 11-06-2019 01:02:17 16.7 C 31 %
607 11-06-2019 01:14:17 16.6 C 31 %
608 11-06-2019 01:26:17 16.6 C 31 %
609 11-06-2019 01:38:17 16.6 C 31 %
610 11-06-2019 01:50:17 16.5 C 31 %
611 11-06-2019 02:02:18 16.5 C 31 %
612 11-06-2019 02:14:18 16.5 C 31 %
613 11-06-2019 02:26:17 16.3 C 30 %
614 11-06-2019 02:38:17 16 C 32 %
615 11-06-2019 02:50:17 15.3 C 39 %
616 11-06-2019 03:02:17 15.1 C 43 %
617 11-06-2019 03:14:17 15.1 C 43 %
618 11-06-2019 03:26:18 14.6 C 46 %
619 11-06-2019 03:38:17 14.5 C 46 %
620 11-06-2019 03:50:17 14.5 C 47 %
621 11-06-2019 04:02:17 14.4 C 46 %
622 11-06-2019 04:14:17 14.3 C 46 %
623 11-06-2019 04:26:17 14.1 C 47 %
624 11-06-2019 04:38:17 14.1 C 48 %
625 11-06-2019 04:50:17 14 C 48 %
Sensor: Nr:Datum:Temp:Feuchte:
Aussen-T/F 626 11-06-2019 05:02:17 13.9 C 49 %
627 11-06-2019 05:14:17 13.9 C 50 %
628 11-06-2019 05:26:18 13.8 C 50 %
629 11-06-2019 05:38:17 13.8 C 50 %
630 11-06-2019 05:50:17 13.8 C 51 %
631 11-06-2019 06:02:17 13.7 C 51 %
632 11-06-2019 06:14:17 13.7 C 51 %
633 11-06-2019 06:26:17 13.8 C 53 %
634 11-06-2019 06:38:17 13.8 C 53 %
635 11-06-2019 06:50:17 14.1 C 56 %
636 11-06-2019 07:02:18 14 C 55 %
637 11-06-2019 07:14:18 14.2 C 55 %
638 11-06-2019 07:26:17 14.4 C 54 %
639 11-06-2019 07:38:17 14.2 C 49 %
640 11-06-2019 07:50:18 14.4 C 47 %
641 11-06-2019 08:02:17 14.8 C 46 %
642 11-06-2019 08:14:17 14.7 C 43 %
643 11-06-2019 08:26:17 14.8 C 43 %
644 11-06-2019 08:38:17 14.8 C 42 %
645 11-06-2019 08:50:17 15 C 41 %
646 11-06-2019 09:02:17 15.1 C 41 %
647 11-06-2019 09:14:17 15.6 C 38 %
648 11-06-2019 09:26:17 16.2 C 35 %
649 11-06-2019 09:38:17 16.6 C 29 %
650 11-06-2019 09:50:17 16.7 C 30 %
Sensor: Nr:Datum:Temp:Feuchte:
Aussen-T/F 651 11-06-2019 10:02:17 17 C 29 %
652 11-06-2019 10:14:17 17.3 C 29 %
653 11-06-2019 10:26:17 17.3 C 29 %
654 11-06-2019 10:38:17 16.4 C 29 %
655 11-06-2019 10:50:17 16.4 C 34 %
656 11-06-2019 11:02:17 16.8 C 34 %
657 11-06-2019 11:14:17 17.6 C 29 %
658 11-06-2019 11:26:17 18.9 C 24 %
659 11-06-2019 11:38:17 19.1 C 23 %
660 11-06-2019 11:50:17 19.1 C 23 %
661 11-06-2019 12:02:17 17.6 C 31 %
662 11-06-2019 12:14:17 18.4 C 25 %
663 11-06-2019 12:26:17 19.2 C 21 %
664 11-06-2019 12:38:17 19.6 C 20 %
665 11-06-2019 12:50:17 19.4 C 20 %
666 11-06-2019 13:02:17 20.2 C 20 %
667 11-06-2019 13:14:17 19.8 C 20 %
668 11-06-2019 13:26:17 19.9 C 20 %
669 11-06-2019 13:38:17 20.5 C 20 %
670 11-06-2019 13:50:17 21 C 20 %
671 11-06-2019 14:02:18 21.3 C 20 %
672 11-06-2019 14:14:18 21 C 20 %
673 11-06-2019 14:26:17 20.9 C 20 %
674 11-06-2019 14:38:18 22.3 C 20 %
675 11-06-2019 14:50:17 23.1 C 20 %
Sensor: Nr:Datum:Temp:Feuchte:
Aussen-T/F 676 11-06-2019 15:02:17 23 C 20 %
677 11-06-2019 15:14:17 22.5 C 20 %
678 11-06-2019 15:26:17 22.7 C 20 %
679 11-06-2019 15:38:17 22.3 C 20 %
680 11-06-2019 15:50:17 22.9 C 20 %
681 11-06-2019 16:02:17 22.5 C 20 %
682 11-06-2019 16:14:17 21.7 C 20 %
683 11-06-2019 16:26:17 21.2 C 20 %
684 11-06-2019 16:38:17 20.1 C 20 %
685 11-06-2019 16:50:17 19.6 C 24 %
686 11-06-2019 17:02:18 19.2 C 25 %
687 11-06-2019 17:14:18 18.8 C 26 %
688 11-06-2019 17:26:17 18.7 C 27 %
689 11-06-2019 17:38:17 18.5 C 27 %
690 11-06-2019 17:50:18 18.5 C 27 %
691 11-06-2019 18:02:17 18.5 C 28 %
692 11-06-2019 18:14:17 18.4 C 28 %
693 11-06-2019 18:26:18 18.4 C 29 %
694 11-06-2019 18:38:17 18.8 C 28 %
695 11-06-2019 18:50:17 19.1 C 23 %
696 11-06-2019 19:02:17 19.9 C 25 %
697 11-06-2019 19:14:17 20.8 C 20 %
698 11-06-2019 19:26:17 21.2 C 20 %
699 11-06-2019 19:38:17 20.4 C 20 %
700 11-06-2019 19:50:17 20 C 20 %
Sensor: Nr:Datum:Temp:Feuchte:
Aussen-T/F 701 11-06-2019 20:02:17 19.3 C 23 %
702 11-06-2019 20:14:17 19 C 25 %
703 11-06-2019 20:26:17 18.4 C 28 %
704 11-06-2019 20:38:17 18.4 C 28 %
705 11-06-2019 20:50:17 18.4 C 28 %
706 11-06-2019 21:02:17 17.8 C 30 %
707 11-06-2019 21:14:17 17.5 C 30 %
708 11-06-2019 21:26:17 17.3 C 31 %
709 11-06-2019 21:38:17 17.1 C 31 %
710 11-06-2019 21:50:17 16.9 C 32 %
711 11-06-2019 22:02:17 16.8 C 33 %
712 11-06-2019 22:14:17 16.8 C 33 %
713 11-06-2019 22:26:17 16.8 C 33 %
714 11-06-2019 22:38:17 16.8 C 33 %
715 11-06-2019 22:50:17 16.8 C 33 %
716 11-06-2019 23:02:17 16.8 C 33 %
717 11-06-2019 23:14:18 15.3 C 36 %
718 11-06-2019 23:26:17 15.3 C 36 %
719 11-06-2019 23:38:17 15.2 C 36 %
720 11-06-2019 23:50:17 15.2 C 35 %
721 12-06-2019 00:02:17 15.2 C 35 %
722 12-06-2019 00:14:17 15.2 C 35 %
723 12-06-2019 00:26:17 14.8 C 36 %
724 12-06-2019 00:38:17 14.5 C 36 %
725 12-06-2019 00:50:17 14.2 C 37 %
Sensor: Nr:Datum:Temp:Feuchte:
Aussen-T/F 726 12-06-2019 01:02:17 14 C 38 %
727 12-06-2019 01:14:17 14 C 38 %
728 12-06-2019 01:26:17 13.9 C 40 %
729 12-06-2019 01:38:17 14.1 C 40 %
730 12-06-2019 01:50:17 14.2 C 40 %
731 12-06-2019 02:02:17 14.2 C 40 %
732 12-06-2019 02:14:17 14.2 C 40 %
733 12-06-2019 02:26:17 14.6 C 37 %
734 12-06-2019 02:38:17 14.5 C 37 %
735 12-06-2019 02:50:17 14.5 C 37 %
736 12-06-2019 03:02:18 14.4 C 38 %
737 12-06-2019 03:14:18 14.4 C 40 %
738 12-06-2019 03:26:17 14.4 C 40 %
739 12-06-2019 03:38:17 14.4 C 40 %
740 12-06-2019 03:50:17 14.4 C 40 %
741 12-06-2019 04:02:17 14.4 C 40 %
742 12-06-2019 04:14:17 14.4 C 40 %
743 12-06-2019 04:26:17 14.4 C 40 %
744 12-06-2019 04:38:17 14.4 C 40 %
745 12-06-2019 04:50:17 14.4 C 40 %
746 12-06-2019 05:02:18 13.9 C 41 %
747 12-06-2019 05:14:18 13.9 C 41 %
748 12-06-2019 05:26:17 13.9 C 41 %
749 12-06-2019 05:38:17 14.1 C 42 %
750 12-06-2019 05:50:17 14 C 41 %
Sensor: Nr:Datum:Temp:Feuchte:
Aussen-T/F 751 12-06-2019 06:02:18 13.8 C 41 %
752 12-06-2019 06:14:18 13.5 C 42 %
753 12-06-2019 06:26:17 13.5 C 42 %
754 12-06-2019 06:38:17 14.2 C 42 %
755 12-06-2019 06:50:17 14.4 C 42 %
756 12-06-2019 07:02:17 14.7 C 37 %
757 12-06-2019 07:14:17 14.8 C 36 %
758 12-06-2019 07:26:17 14.9 C 37 %
759 12-06-2019 07:38:18 15 C 36 %
760 12-06-2019 07:50:17 15.1 C 36 %
761 12-06-2019 08:02:17 15.1 C 36 %
762 12-06-2019 08:14:17 15.6 C 32 %
763 12-06-2019 08:26:17 16 C 32 %
764 12-06-2019 08:38:17 16.4 C 30 %
765 12-06-2019 08:50:17 16.9 C 30 %
766 12-06-2019 09:02:18 17.3 C 26 %
767 12-06-2019 09:14:18 16.9 C 26 %
768 12-06-2019 09:26:17 16.5 C 29 %
769 12-06-2019 09:38:18 16.1 C 31 %
770 12-06-2019 09:50:17 15.8 C 33 %
771 12-06-2019 10:02:17 15 C 42 %
772 12-06-2019 10:14:17 14.8 C 45 %
773 12-06-2019 10:26:17 14.5 C 47 %
774 12-06-2019 10:38:17 14.5 C 47 %
775 12-06-2019 10:50:17 14.5 C 47 %
Sensor: Nr:Datum:Temp:Feuchte:
Aussen-T/F 776 12-06-2019 11:02:17 14.5 C 47 %
777 12-06-2019 11:14:17 13.6 C 47 %
778 12-06-2019 11:26:17 13.4 C 45 %
779 12-06-2019 11:38:17 13.5 C 46 %
780 12-06-2019 11:50:17 13.4 C 47 %
781 12-06-2019 12:02:18 13.8 C 48 %
782 12-06-2019 12:14:18 13.9 C 47 %
783 12-06-2019 12:26:17 14 C 47 %
784 12-06-2019 12:38:17 14 C 47 %
785 12-06-2019 12:50:17 14 C 47 %
786 12-06-2019 13:02:17 14.3 C 43 %
787 12-06-2019 13:14:17 14.5 C 44 %
788 12-06-2019 13:26:17 14.9 C 42 %
789 12-06-2019 13:38:17 16.1 C 38 %
790 12-06-2019 13:50:17 16.6 C 32 %
791 12-06-2019 14:02:17 16.8 C 30 %
792 12-06-2019 14:14:17 17.7 C 28 %
793 12-06-2019 14:26:17 18.5 C 25 %
794 12-06-2019 14:38:17 19 C 21 %
795 12-06-2019 14:50:17 17.7 C 21 %
796 12-06-2019 15:02:17 17.3 C 25 %
797 12-06-2019 15:14:17 18.8 C 22 %
798 12-06-2019 15:26:17 19.8 C 21 %
799 12-06-2019 15:38:17 19.7 C 20 %
800 12-06-2019 15:50:17 19.2 C 20 %
Sensor: Nr:Datum:Temp:Feuchte:
Aussen-T/F 801 12-06-2019 16:02:17 20.1 C 20 %
802 12-06-2019 16:14:17 20.4 C 20 %
803 12-06-2019 16:26:17 21.2 C 20 %
804 12-06-2019 16:38:17 20.8 C 20 %
805 12-06-2019 16:50:17 21.4 C 20 %
806 12-06-2019 17:02:17 22.2 C 20 %
807 12-06-2019 17:14:17 22.5 C 20 %
808 12-06-2019 17:26:17 22.9 C 20 %
809 12-06-2019 17:38:17 22.8 C 20 %
810 12-06-2019 17:50:17 22.6 C 20 %
811 12-06-2019 18:02:17 23.3 C 20 %
812 12-06-2019 18:14:17 23.9 C 20 %
813 12-06-2019 18:26:18 24.2 C 20 %
814 12-06-2019 18:38:17 23.9 C 20 %
815 12-06-2019 18:50:17 23.3 C 20 %
816 12-06-2019 19:02:17 23.2 C 20 %
817 12-06-2019 19:14:17 22.8 C 20 %
818 12-06-2019 19:26:17 21.9 C 20 %
819 12-06-2019 19:38:17 21.7 C 20 %
820 12-06-2019 19:50:17 21.2 C 20 %
821 12-06-2019 20:02:17 20.7 C 20 %
822 12-06-2019 20:14:18 20.5 C 20 %
823 12-06-2019 20:26:17 19.7 C 20 %
824 12-06-2019 20:38:17 19.3 C 20 %
825 12-06-2019 20:50:17 18.4 C 20 %
Sensor: Nr:Datum:Temp:Feuchte:
Aussen-T/F 826 12-06-2019 21:02:17 17.6 C 22 %
827 12-06-2019 21:14:17 16.7 C 26 %
828 12-06-2019 21:26:17 15.9 C 27 %
829 12-06-2019 21:38:17 15.6 C 28 %
830 12-06-2019 21:50:17 15 C 30 %
831 12-06-2019 22:02:18 15 C 30 %
832 12-06-2019 22:14:18 13.9 C 35 %
833 12-06-2019 22:26:17 13.8 C 36 %
834 12-06-2019 22:38:17 13.5 C 37 %
835 12-06-2019 22:50:17 13.5 C 37 %
836 12-06-2019 23:02:17 13.3 C 38 %
837 12-06-2019 23:14:17 13 C 38 %
838 12-06-2019 23:26:17 13 C 38 %
839 12-06-2019 23:38:17 12.7 C 39 %
840 12-06-2019 23:50:17 12.5 C 40 %
841 13-06-2019 00:02:17 12.4 C 40 %
842 13-06-2019 00:14:17 12.4 C 41 %
843 13-06-2019 00:26:17 12.2 C 41 %
844 13-06-2019 00:38:17 12.1 C 41 %
845 13-06-2019 00:50:17 11.9 C 42 %
846 13-06-2019 01:02:17 11.6 C 42 %
847 13-06-2019 01:14:17 11.7 C 42 %
848 13-06-2019 01:26:17 11.2 C 43 %
849 13-06-2019 01:38:17 11.2 C 43 %
850 13-06-2019 01:50:17 10.9 C 45 %
Sensor: Nr:Datum:Temp:Feuchte:
Aussen-T/F 851 13-06-2019 02:02:17 10.9 C 46 %
852 13-06-2019 02:14:17 10.8 C 46 %
853 13-06-2019 02:26:17 10.7 C 46 %
854 13-06-2019 02:38:17 10.7 C 46 %
855 13-06-2019 02:50:17 10.5 C 46 %
856 13-06-2019 03:02:17 10.5 C 46 %
857 13-06-2019 03:14:17 10.5 C 46 %
858 13-06-2019 03:26:17 10.5 C 46 %
859 13-06-2019 03:38:17 10.5 C 46 %
860 13-06-2019 03:50:18 10.5 C 46 %
861 13-06-2019 04:02:17 10.5 C 46 %
862 13-06-2019 04:14:17 10.5 C 46 %
863 13-06-2019 04:26:17 10.5 C 46 %
864 13-06-2019 04:38:17 10.5 C 46 %
865 13-06-2019 04:50:17 10.5 C 46 %
866 13-06-2019 05:02:18 10.5 C 46 %
867 13-06-2019 05:14:18 10.5 C 46 %
868 13-06-2019 05:26:17 10.5 C 46 %
869 13-06-2019 05:38:17 10.5 C 46 %
870 13-06-2019 05:50:17 10.5 C 46 %
871 13-06-2019 06:02:17 10.5 C 46 %
872 13-06-2019 06:14:17 10.5 C 46 %
873 13-06-2019 06:26:17 10.5 C 46 %
874 13-06-2019 06:38:18 9.4 C 50 %
875 13-06-2019 06:50:17 9.4 C 50 %
Sensor: Nr:Datum:Temp:Feuchte:
Aussen-T/F 876 13-06-2019 07:02:17 9.8 C 51 %
877 13-06-2019 07:14:17 10 C 50 %
878 13-06-2019 07:26:17 10 C 50 %
879 13-06-2019 07:38:17 10 C 50 %
880 13-06-2019 07:50:17 10.8 C 50 %
881 13-06-2019 08:02:17 11 C 49 %
882 13-06-2019 08:14:17 11.6 C 48 %
883 13-06-2019 08:26:17 12.3 C 46 %
884 13-06-2019 08:38:17 12.3 C 46 %
885 13-06-2019 08:50:17 12.3 C 46 %
886 13-06-2019 09:02:18 14.5 C 31 %
887 13-06-2019 09:14:18 14.5 C 31 %
888 13-06-2019 09:26:17 14.5 C 31 %
889 13-06-2019 09:38:18 18.3 C 20 %
890 13-06-2019 09:50:17 18.3 C 20 %
891 13-06-2019 10:02:17 18.3 C 20 %
892 13-06-2019 10:14:17 18.3 C 20 %
893 13-06-2019 10:26:17 18.3 C 20 %
894 13-06-2019 10:38:17 19.1 C 20 %
895 13-06-2019 10:50:17 19.1 C 20 %
896 13-06-2019 11:02:17 20.5 C 20 %
897 13-06-2019 11:14:17 20.1 C 20 %
898 13-06-2019 11:26:17 20.5 C 20 %
899 13-06-2019 11:38:17 21.6 C 20 %
900 13-06-2019 11:50:17 22.9 C 20 %
Sensor: Nr:Datum:Temp:Feuchte:
Aussen-T/F 901 13-06-2019 12:02:17 22.1 C 20 %
902 13-06-2019 12:14:18 20.1 C 20 %
903 13-06-2019 12:26:17 20.1 C 20 %
904 13-06-2019 12:38:17 20 C 20 %
905 13-06-2019 12:50:17 20.2 C 20 %
906 13-06-2019 13:02:18 21.1 C 20 %
907 13-06-2019 13:14:18 21.6 C 20 %
908 13-06-2019 13:26:17 22 C 20 %
909 13-06-2019 13:38:17 22.1 C 20 %
910 13-06-2019 13:50:17 22.1 C 20 %
911 13-06-2019 14:02:17 22.4 C 20 %
912 13-06-2019 14:14:17 21.9 C 20 %
913 13-06-2019 14:26:17 21.5 C 20 %
914 13-06-2019 14:38:17 22.8 C 20 %
915 13-06-2019 14:50:17 22.4 C 20 %
916 13-06-2019 15:02:18 22 C 20 %
917 13-06-2019 15:14:18 23.3 C 20 %
918 13-06-2019 15:26:17 23.5 C 20 %
919 13-06-2019 15:38:17 22.8 C 20 %
920 13-06-2019 15:50:17 24 C 20 %
921 13-06-2019 16:02:17 24.7 C 20 %
922 13-06-2019 16:14:17 24.4 C 20 %
923 13-06-2019 16:26:17 25.1 C 20 %
924 13-06-2019 16:38:17 25.2 C 20 %
925 13-06-2019 16:50:18 24.7 C 20 %
Sensor: Nr:Datum:Temp:Feuchte:
Aussen-T/F 926 13-06-2019 17:02:17 25.2 C 20 %
927 13-06-2019 17:14:17 25.2 C 20 %
928 13-06-2019 17:26:17 24.7 C 20 %
929 13-06-2019 17:38:17 25.1 C 20 %
930 13-06-2019 17:50:17 26.1 C 20 %
931 13-06-2019 18:02:17 25.8 C 20 %
932 13-06-2019 18:14:17 25.9 C 20 %
933 13-06-2019 18:26:17 25.8 C 20 %
934 13-06-2019 18:38:17 24.4 C 20 %
935 13-06-2019 18:50:17 24 C 20 %
936 13-06-2019 19:02:18 23.1 C 20 %
937 13-06-2019 19:14:18 21.7 C 20 %
938 13-06-2019 19:26:17 20.5 C 20 %
939 13-06-2019 19:38:18 17.9 C 20 %
940 13-06-2019 19:50:17 15.1 C 35 %
941 13-06-2019 20:02:17 15.1 C 37 %
942 13-06-2019 20:14:17 15.1 C 41 %
943 13-06-2019 20:26:17 15.6 C 42 %
944 13-06-2019 20:38:17 15.3 C 41 %
945 13-06-2019 20:50:17 15.3 C 43 %
946 13-06-2019 21:02:18 15.2 C 44 %
947 13-06-2019 21:14:18 15.1 C 44 %
948 13-06-2019 21:26:17 14.4 C 45 %
949 13-06-2019 21:38:18 13.5 C 46 %
950 13-06-2019 21:50:17 13.1 C 47 %
Sensor: Nr:Datum:Temp:Feuchte:
Aussen-T/F 951 13-06-2019 22:02:17 12.9 C 48 %
952 13-06-2019 22:14:17 12.7 C 48 %
953 13-06-2019 22:26:18 12.6 C 49 %
954 13-06-2019 22:38:17 12.4 C 49 %
955 13-06-2019 22:50:17 12.4 C 49 %
956 13-06-2019 23:02:17 12.5 C 50 %
957 13-06-2019 23:14:17 12.7 C 50 %
958 13-06-2019 23:26:17 12.6 C 50 %
959 13-06-2019 23:38:17 12.4 C 49 %
960 13-06-2019 23:50:17 12.1 C 48 %
961 14-06-2019 00:02:17 12 C 49 %
962 14-06-2019 00:14:17 11.8 C 50 %
963 14-06-2019 00:26:17 11.7 C 50 %
964 14-06-2019 00:38:18 11.6 C 50 %
965 14-06-2019 00:50:17 11.6 C 51 %
966 14-06-2019 01:02:17 11.4 C 50 %
967 14-06-2019 01:14:17 11.4 C 51 %
968 14-06-2019 01:26:18 11.5 C 53 %
969 14-06-2019 01:38:17 11.5 C 52 %
970 14-06-2019 01:50:17 11.7 C 58 %
971 14-06-2019 02:02:17 11.9 C 60 %
972 14-06-2019 02:14:18 12.1 C 61 %
973 14-06-2019 02:26:17 12.2 C 62 %
974 14-06-2019 02:38:17 12.2 C 61 %
975 14-06-2019 02:50:17 12.1 C 61 %
Sensor: Nr:Datum:Temp:Feuchte:
Aussen-T/F 976 14-06-2019 03:02:18 11.8 C 58 %
977 14-06-2019 03:14:18 12 C 59 %
978 14-06-2019 03:26:17 12 C 59 %
979 14-06-2019 03:38:18 11.9 C 58 %
980 14-06-2019 03:50:18 11.5 C 54 %
981 14-06-2019 04:02:17 11.4 C 52 %
982 14-06-2019 04:14:17 11.2 C 53 %
983 14-06-2019 04:26:17 11.4 C 57 %
984 14-06-2019 04:38:17 11.4 C 58 %
985 14-06-2019 04:50:17 11.5 C 59 %
986 14-06-2019 05:02:17 11.5 C 57 %
987 14-06-2019 05:14:17 11.3 C 55 %
988 14-06-2019 05:26:17 11.2 C 55 %
989 14-06-2019 05:38:18 11.4 C 56 %
990 14-06-2019 05:50:17 11.3 C 54 %
991 14-06-2019 06:02:17 11.4 C 53 %
992 14-06-2019 06:14:17 11.3 C 50 %
993 14-06-2019 06:26:17 11.4 C 50 %
994 14-06-2019 06:38:17 11.5 C 49 %
995 14-06-2019 06:50:17 11.4 C 47 %
996 14-06-2019 07:02:18 11.4 C 47 %
997 14-06-2019 07:14:18 11.4 C 46 %
998 14-06-2019 07:26:17 11.4 C 46 %
999 14-06-2019 07:38:18 11.5 C 47 %
1000 14-06-2019 07:50:17 11.7 C 47 %
Sensor: Nr:Datum:Temp:Feuchte:
Aussen-T/F 1001 14-06-2019 08:02:17 11.7 C 46 %
1002 14-06-2019 08:14:17 11.8 C 46 %
1003 14-06-2019 08:26:17 12.4 C 47 %
1004 14-06-2019 08:38:17 13.1 C 47 %
1005 14-06-2019 08:50:17 14.1 C 43 %
1006 14-06-2019 09:02:17 13.8 C 39 %
1007 14-06-2019 09:14:17 15.3 C 37 %
1008 14-06-2019 09:26:17 15.7 C 35 %
1009 14-06-2019 09:38:17 16.4 C 36 %
1010 14-06-2019 09:50:17 18.3 C 36 %
1011 14-06-2019 10:02:17 18.3 C 34 %
1012 14-06-2019 10:14:17 18.1 C 33 %
1013 14-06-2019 10:26:17 18.2 C 34 %
1014 14-06-2019 10:38:17 19.3 C 32 %
1015 14-06-2019 10:50:17 19.3 C 32 %
1016 14-06-2019 11:02:17 20.1 C 31 %
1017 14-06-2019 11:14:17 21.2 C 30 %
1018 14-06-2019 11:26:17 21.4 C 29 %
1019 14-06-2019 11:38:17 22.2 C 26 %
1020 14-06-2019 11:50:18 23.1 C 23 %
1021 14-06-2019 12:02:17 23.2 C 22 %
1022 14-06-2019 12:14:17 23.5 C 20 %
1023 14-06-2019 12:26:17 25.2 C 20 %
1024 14-06-2019 12:38:17 22.5 C 20 %
1025 14-06-2019 12:50:18 22.4 C 20 %
Sensor: Nr:Datum:Temp:Feuchte:
Aussen-T/F 1026 14-06-2019 13:02:17 23.2 C 20 %
1027 14-06-2019 13:14:17 23.9 C 20 %
1028 14-06-2019 13:26:17 23.9 C 20 %
1029 14-06-2019 13:38:17 24.9 C 20 %
1030 14-06-2019 13:50:17 25 C 20 %
1031 14-06-2019 14:02:17 26.1 C 20 %
1032 14-06-2019 14:14:17 26.8 C 20 %
1033 14-06-2019 14:26:17 27 C 20 %
1034 14-06-2019 14:38:17 27 C 20 %
1035 14-06-2019 14:50:17 27 C 20 %
1036 14-06-2019 15:02:17 27 C 20 %
1037 14-06-2019 15:14:17 27 C 20 %
1038 14-06-2019 15:26:17 27.3 C 20 %
1039 14-06-2019 15:38:18 27.3 C 20 %
1040 14-06-2019 15:50:17 26.9 C 20 %
1041 14-06-2019 16:02:17 26.5 C 20 %
1042 14-06-2019 16:14:17 26.1 C 20 %
1043 14-06-2019 16:26:17 26 C 20 %
1044 14-06-2019 16:38:17 25.7 C 20 %
1045 14-06-2019 16:50:17 25.5 C 20 %
1046 14-06-2019 17:02:17 25.5 C 20 %
1047 14-06-2019 17:14:17 25.4 C 20 %
1048 14-06-2019 17:26:17 25.5 C 20 %
1049 14-06-2019 17:38:18 25 C 20 %
1050 14-06-2019 17:50:17 24.5 C 20 %
Sensor: Nr:Datum:Temp:Feuchte:
Aussen-T/F 1051 14-06-2019 18:02:17 24.3 C 20 %
1052 14-06-2019 18:14:17 24.9 C 20 %
1053 14-06-2019 18:26:18 24.8 C 20 %
1054 14-06-2019 18:38:17 24.4 C 20 %
1055 14-06-2019 18:50:17 23.8 C 20 %
1056 14-06-2019 19:02:17 23 C 20 %
1057 14-06-2019 19:14:17 22.5 C 21 %
1058 14-06-2019 19:26:17 22.4 C 20 %
1059 14-06-2019 19:38:17 21.6 C 21 %
1060 14-06-2019 19:50:17 21 C 23 %
1061 14-06-2019 20:02:17 20.4 C 25 %
1062 14-06-2019 20:14:17 20 C 26 %
1063 14-06-2019 20:26:17 19.9 C 26 %
1064 14-06-2019 20:38:17 18.6 C 30 %
1065 14-06-2019 20:50:17 18.7 C 31 %
1066 14-06-2019 21:02:18 18.8 C 32 %
1067 14-06-2019 21:14:18 18.9 C 31 %
1068 14-06-2019 21:26:18 18.7 C 32 %
1069 14-06-2019 21:38:17 18.7 C 31 %
1070 14-06-2019 21:50:17 18.7 C 31 %
1071 14-06-2019 22:02:18 18.7 C 30 %
1072 14-06-2019 22:14:18 19 C 27 %
1073 14-06-2019 22:26:17 19.1 C 27 %
1074 14-06-2019 22:38:18 19 C 28 %
1075 14-06-2019 22:50:17 18.9 C 30 %
Sensor: Nr:Datum:Temp:Feuchte:
Aussen-T/F 1076 14-06-2019 23:02:17 18.6 C 31 %
1077 14-06-2019 23:14:17 18.4 C 32 %
1078 14-06-2019 23:26:18 18.3 C 35 %
1079 14-06-2019 23:38:17 18.1 C 35 %
1080 14-06-2019 23:50:17 17.7 C 41 %
1081 15-06-2019 00:02:17 17.6 C 43 %
1082 15-06-2019 00:14:17 17.1 C 46 %
1083 15-06-2019 00:26:17 16.7 C 46 %
1084 15-06-2019 00:38:17 16.6 C 47 %
1085 15-06-2019 00:50:17 16.4 C 47 %
1086 15-06-2019 01:02:17 16.2 C 47 %
1087 15-06-2019 01:14:17 16.1 C 48 %
1088 15-06-2019 01:26:17 16 C 48 %
1089 15-06-2019 01:38:18 15.6 C 48 %
1090 15-06-2019 01:50:17 15.5 C 49 %
1091 15-06-2019 02:02:17 15.4 C 50 %
1092 15-06-2019 02:14:17 15.2 C 49 %
1093 15-06-2019 02:26:17 15.1 C 51 %
1094 15-06-2019 02:38:17 15 C 51 %
1095 15-06-2019 02:50:17 14.9 C 53 %
1096 15-06-2019 03:02:17 14.7 C 53 %
1097 15-06-2019 03:14:17 14.5 C 54 %
1098 15-06-2019 03:26:18 14.5 C 55 %
1099 15-06-2019 03:38:17 14.8 C 60 %
1100 15-06-2019 03:50:17 14.8 C 60 %
Sensor: Nr:Datum:Temp:Feuchte:
Aussen-T/F 1101 15-06-2019 04:02:17 14.8 C 60 %
1102 15-06-2019 04:14:18 14.7 C 59 %
1103 15-06-2019 04:26:17 14.7 C 60 %
1104 15-06-2019 04:38:17 14.8 C 62 %
1105 15-06-2019 04:50:18 14.8 C 63 %
1106 15-06-2019 05:02:17 14.5 C 59 %
1107 15-06-2019 05:14:17 14.1 C 55 %
1108 15-06-2019 05:26:17 14.3 C 59 %
1109 15-06-2019 05:38:17 14.9 C 65 %
1110 15-06-2019 05:50:17 15 C 64 %
1111 15-06-2019 06:02:17 15 C 62 %
1112 15-06-2019 06:14:17 15 C 58 %
1113 15-06-2019 06:26:17 15.2 C 55 %
1114 15-06-2019 06:38:17 15.4 C 54 %
1115 15-06-2019 06:50:17 15.4 C 52 %
1116 15-06-2019 07:02:17 15.6 C 52 %
1117 15-06-2019 07:14:17 15.8 C 52 %
1118 15-06-2019 07:26:18 16 C 51 %
1119 15-06-2019 07:38:17 16.1 C 49 %
1120 15-06-2019 07:50:17 16.4 C 47 %
1121 15-06-2019 08:02:18 16.6 C 45 %
1122 15-06-2019 08:14:18 16.7 C 43 %
1123 15-06-2019 08:26:17 17 C 41 %
1124 15-06-2019 08:38:17 17.5 C 39 %
1125 15-06-2019 08:50:17 17.8 C 33 %
Sensor: Nr:Datum:Temp:Feuchte:
Aussen-T/F 1126 15-06-2019 09:02:17 18.3 C 31 %
1127 15-06-2019 09:14:17 18.5 C 31 %
1128 15-06-2019 09:26:17 18.9 C 30 %
1129 15-06-2019 09:38:17 21.4 C 25 %
1130 15-06-2019 09:50:17 20.8 C 25 %
1131 15-06-2019 10:02:18 20.8 C 24 %
1132 15-06-2019 10:14:18 20.5 C 25 %
1133 15-06-2019 10:26:17 20.6 C 24 %
1134 15-06-2019 10:38:17 21.5 C 22 %
1135 15-06-2019 10:50:17 21.2 C 21 %
1136 15-06-2019 11:02:17 21.1 C 20 %
1137 15-06-2019 11:14:17 21.6 C 20 %
1138 15-06-2019 11:26:17 22.1 C 20 %
1139 15-06-2019 11:38:17 21.9 C 20 %
1140 15-06-2019 11:50:17 22.4 C 20 %
1141 15-06-2019 12:02:17 22.5 C 20 %
1142 15-06-2019 12:14:17 22.5 C 20 %
1143 15-06-2019 12:26:17 21.8 C 20 %
1144 15-06-2019 12:38:17 22.5 C 20 %
1145 15-06-2019 12:50:17 21.7 C 20 %
1146 15-06-2019 13:02:17 21.5 C 20 %
1147 15-06-2019 13:14:17 20.8 C 20 %
1148 15-06-2019 13:26:17 21.6 C 20 %
1149 15-06-2019 13:38:17 22.9 C 20 %
1150 15-06-2019 13:50:17 22.2 C 20 %
Sensor: Nr:Datum:Temp:Feuchte:
Aussen-T/F 1151 15-06-2019 14:02:17 21.5 C 22 %
1152 15-06-2019 14:14:17 22.4 C 20 %
1153 15-06-2019 14:26:17 22.4 C 20 %
1154 15-06-2019 14:38:17 21.8 C 20 %
1155 15-06-2019 14:50:17 21.5 C 20 %
1156 15-06-2019 15:02:17 21.7 C 20 %
1157 15-06-2019 15:14:17 22.9 C 20 %
1158 15-06-2019 15:26:17 23.2 C 20 %
1159 15-06-2019 15:38:17 24 C 20 %
1160 15-06-2019 15:50:17 23.4 C 20 %
1161 15-06-2019 16:02:18 23.8 C 20 %
1162 15-06-2019 16:14:18 24.5 C 20 %
1163 15-06-2019 16:26:17 23.4 C 20 %
1164 15-06-2019 16:38:17 25.2 C 20 %
1165 15-06-2019 16:50:17 25.2 C 20 %
1166 15-06-2019 17:02:17 26.3 C 20 %
1167 15-06-2019 17:14:17 25.6 C 20 %
1168 15-06-2019 17:26:17 26 C 20 %
1169 15-06-2019 17:38:17 25.6 C 20 %
1170 15-06-2019 17:50:17 26.3 C 20 %
1171 15-06-2019 18:02:17 27.4 C 20 %
1172 15-06-2019 18:14:17 27.7 C 20 %
1173 15-06-2019 18:26:17 27.7 C 20 %
1174 15-06-2019 18:38:18 27.3 C 20 %
1175 15-06-2019 18:50:17 26.3 C 20 %
Sensor: Nr:Datum:Temp:Feuchte:
Aussen-T/F 1176 15-06-2019 19:02:17 27.3 C 20 %
1177 15-06-2019 19:14:17 26 C 20 %
1178 15-06-2019 19:26:17 25.5 C 20 %
1179 15-06-2019 19:38:17 23.9 C 20 %
1180 15-06-2019 19:50:17 23.3 C 20 %
1181 15-06-2019 20:02:17 23.3 C 20 %
1182 15-06-2019 20:14:17 22.9 C 20 %
1183 15-06-2019 20:26:17 23 C 20 %
1184 15-06-2019 20:38:17 22.6 C 20 %
1185 15-06-2019 20:50:17 22.5 C 20 %
1186 15-06-2019 21:02:17 21.8 C 20 %
1187 15-06-2019 21:14:17 20.7 C 20 %
1188 15-06-2019 21:26:17 19.8 C 21 %
1189 15-06-2019 21:38:17 19.5 C 21 %
1190 15-06-2019 21:50:17 19 C 22 %
1191 15-06-2019 22:03:17 18.2 C 25 %
1192 15-06-2019 22:14:17 18.2 C 26 %
1193 15-06-2019 22:26:17 18.2 C 26 %
1194 15-06-2019 22:39:17 18.2 C 25 %
1195 15-06-2019 22:50:17 18.4 C 25 %
1196 15-06-2019 23:02:17 18.3 C 23 %
1197 15-06-2019 23:14:17 18.1 C 25 %
1198 15-06-2019 23:26:17 17.7 C 27 %
1199 15-06-2019 23:38:17 17.8 C 26 %
1200 15-06-2019 23:50:18 17.4 C 27 %
Sensor: Nr:Datum:Temp:Feuchte:
Aussen-T/F 1201 16-06-2019 00:03:17 17.3 C 28 %
1202 16-06-2019 00:14:17 17.5 C 27 %
1203 16-06-2019 00:26:18 17.5 C 28 %
1204 16-06-2019 00:39:17 17.6 C 27 %
1205 16-06-2019 00:50:17 17.5 C 28 %
1206 16-06-2019 01:02:17 17.5 C 28 %
1207 16-06-2019 01:14:17 17.5 C 28 %
1208 16-06-2019 01:27:17 17.5 C 28 %
1209 16-06-2019 01:38:17 17.5 C 28 %
1210 16-06-2019 01:50:18 17.7 C 26 %
1211 16-06-2019 02:03:17 17.3 C 29 %
1212 16-06-2019 02:14:17 17.1 C 30 %
1213 16-06-2019 02:26:17 17.2 C 28 %
1214 16-06-2019 02:39:17 17.1 C 30 %
1215 16-06-2019 02:50:17 17 C 30 %
1216 16-06-2019 03:03:17 17 C 31 %
1217 16-06-2019 03:14:17 16.9 C 31 %
1218 16-06-2019 03:26:17 16.9 C 30 %
1219 16-06-2019 03:38:18 17.2 C 27 %
1220 16-06-2019 03:51:17 17.1 C 26 %
1221 16-06-2019 04:03:17 17.4 C 25 %
1222 16-06-2019 04:15:17 17.3 C 25 %
1223 16-06-2019 04:27:17 16.9 C 28 %
1224 16-06-2019 04:39:17 16.8 C 28 %
1225 16-06-2019 04:51:17 16.5 C 30 %
Sensor: Nr:Datum:Temp:Feuchte:
Aussen-T/F 1226 16-06-2019 05:03:18 16.4 C 27 %
1227 16-06-2019 05:15:17 16.3 C 30 %
1228 16-06-2019 05:27:17 16.3 C 30 %
1229 16-06-2019 05:39:17 16.1 C 30 %
1230 16-06-2019 05:51:17 15.5 C 35 %
1231 16-06-2019 06:03:17 15.2 C 38 %
1232 16-06-2019 06:15:17 14.9 C 38 %
1233 16-06-2019 06:27:17 15 C 40 %
1234 16-06-2019 06:39:17 15 C 41 %
1235 16-06-2019 06:51:17 15.1 C 40 %
1236 16-06-2019 07:03:17 15.2 C 40 %
1237 16-06-2019 07:15:17 15.5 C 39 %
1238 16-06-2019 07:27:17 15.9 C 39 %
1239 16-06-2019 07:39:17 16.2 C 33 %
1240 16-06-2019 07:51:17 16.5 C 33 %
1241 16-06-2019 08:03:17 16.3 C 35 %
1242 16-06-2019 08:15:17 16.2 C 32 %
1243 16-06-2019 08:27:17 16 C 34 %
1244 16-06-2019 08:39:17 16.1 C 35 %
1245 16-06-2019 08:51:17 17 C 30 %
1246 16-06-2019 09:03:17 17.4 C 27 %
1247 16-06-2019 09:15:16 19.7 C 21 %
1248 16-06-2019 09:27:16 22 C 20 %
1249 16-06-2019 09:39:17 24.4 C 20 %
1250 16-06-2019 09:51:17 24.7 C 20 %
Sensor: Nr:Datum:Temp:Feuchte:
Aussen-T/F 1251 16-06-2019 10:03:17 22 C 20 %
1252 16-06-2019 10:15:17 20.8 C 20 %
1253 16-06-2019 10:27:17 21.5 C 20 %
1254 16-06-2019 10:39:17 21.5 C 20 %
1255 16-06-2019 10:51:17 21.8 C 20 %
1256 16-06-2019 11:03:17 23.1 C 20 %
1257 16-06-2019 11:15:17 22 C 20 %
1258 16-06-2019 11:27:17 22.8 C 20 %
1259 16-06-2019 11:39:17 21.8 C 20 %
1260 16-06-2019 11:51:17 21.3 C 20 %
1261 16-06-2019 12:03:17 21.6 C 20 %
1262 16-06-2019 12:15:16 23.3 C 20 %
1263 16-06-2019 12:27:16 23.2 C 20 %
1264 16-06-2019 12:39:17 22.8 C 20 %
1265 16-06-2019 12:51:17 23 C 20 %
1266 16-06-2019 13:03:17 23.6 C 20 %
1267 16-06-2019 13:15:17 23.4 C 20 %
1268 16-06-2019 13:27:17 23.4 C 20 %
1269 16-06-2019 13:39:17 23.3 C 20 %
1270 16-06-2019 13:51:17 23.5 C 20 %
1271 16-06-2019 14:03:17 23.3 C 20 %
1272 16-06-2019 14:15:17 23.7 C 20 %
1273 16-06-2019 14:27:18 24.4 C 20 %
1274 16-06-2019 14:39:16 23.8 C 20 %
1275 16-06-2019 14:51:16 23.2 C 20 %
Sensor: Nr:Datum:Temp:Feuchte:
Aussen-T/F 1276 16-06-2019 15:03:17 22.8 C 20 %
1277 16-06-2019 15:15:17 23.8 C 20 %
1278 16-06-2019 15:27:17 24.6 C 20 %
1279 16-06-2019 15:39:16 25.2 C 20 %
1280 16-06-2019 15:51:17 25.5 C 20 %
1281 16-06-2019 16:03:17 24.8 C 20 %
1282 16-06-2019 16:15:16 24.5 C 20 %
1283 16-06-2019 16:27:16 24.2 C 20 %
1284 16-06-2019 16:39:17 24 C 20 %
1285 16-06-2019 16:51:16 23.8 C 20 %
1286 16-06-2019 17:03:16 23.2 C 20 %
1287 16-06-2019 17:15:17 23 C 20 %
1288 16-06-2019 17:27:17 23 C 20 %
1289 16-06-2019 17:39:16 22.9 C 20 %
1290 16-06-2019 17:51:16 23.5 C 20 %
1291 16-06-2019 18:03:17 24.2 C 20 %
1292 16-06-2019 18:15:16 24.8 C 20 %
1293 16-06-2019 18:27:16 25.4 C 20 %
1294 16-06-2019 18:39:17 25.8 C 20 %
1295 16-06-2019 18:51:17 25.8 C 20 %
1296 16-06-2019 19:03:16 25.9 C 20 %
1297 16-06-2019 19:15:16 25.7 C 20 %
1298 16-06-2019 19:27:16 23.3 C 20 %
1299 16-06-2019 19:39:16 22.2 C 20 %
1300 16-06-2019 19:51:16 21.5 C 20 %
Sensor: Nr:Datum:Temp:Feuchte:
Aussen-T/F 1301 16-06-2019 20:03:17 21.6 C 20 %
1302 16-06-2019 20:15:16 22.5 C 20 %
1303 16-06-2019 20:27:16 23 C 20 %
1304 16-06-2019 20:39:16 22.8 C 20 %
1305 16-06-2019 20:51:16 22.4 C 20 %
1306 16-06-2019 21:03:16 21 C 20 %
1307 16-06-2019 21:15:16 19.5 C 20 %
1308 16-06-2019 21:27:16 18.7 C 20 %
1309 16-06-2019 21:39:16 18.1 C 20 %
1310 16-06-2019 21:51:16 17.7 C 21 %
1311 16-06-2019 22:03:16 17.4 C 21 %
1312 16-06-2019 22:15:16 17.2 C 22 %
1313 16-06-2019 22:27:16 16.7 C 25 %
1314 16-06-2019 22:39:16 16.1 C 27 %
1315 16-06-2019 22:51:16 15.6 C 30 %
1316 16-06-2019 23:03:16 15.5 C 30 %
1317 16-06-2019 23:15:16 15.3 C 30 %
1318 16-06-2019 23:27:16 15.2 C 31 %
1319 16-06-2019 23:39:16 15 C 31 %
1320 16-06-2019 23:51:16 14.8 C 31 %
1321 17-06-2019 00:03:16 14.3 C 32 %
1322 17-06-2019 00:15:16 14 C 33 %
1323 17-06-2019 00:27:16 13.8 C 34 %
1324 17-06-2019 00:39:16 13.7 C 35 %
1325 17-06-2019 00:51:16 13.6 C 36 %
Sensor: Nr:Datum:Temp:Feuchte:
Aussen-T/F 1326 17-06-2019 01:03:16 13.5 C 37 %
1327 17-06-2019 01:15:16 13.3 C 37 %
1328 17-06-2019 01:27:16 13.2 C 37 %
1329 17-06-2019 01:39:16 13.1 C 38 %
1330 17-06-2019 01:51:16 12.8 C 39 %
1331 17-06-2019 02:03:16 12.8 C 40 %
1332 17-06-2019 02:15:16 12.7 C 41 %
1333 17-06-2019 02:27:16 12.8 C 42 %
1334 17-06-2019 02:39:16 12.4 C 41 %
1335 17-06-2019 02:51:17 12.2 C 41 %
1336 17-06-2019 03:03:17 12.2 C 42 %
1337 17-06-2019 03:15:18 12.1 C 43 %
1338 17-06-2019 03:27:18 12 C 43 %
1339 17-06-2019 03:39:17 11.8 C 45 %
1340 17-06-2019 03:51:17 11.8 C 45 %
1341 17-06-2019 04:03:17 11.7 C 45 %
1342 17-06-2019 04:15:17 11.6 C 45 %
1343 17-06-2019 04:27:17 11.5 C 46 %
1344 17-06-2019 04:39:17 11.5 C 46 %
1345 17-06-2019 04:51:17 11.3 C 46 %
1346 17-06-2019 05:03:17 11.2 C 46 %
1347 17-06-2019 05:15:17 11.2 C 47 %
1348 17-06-2019 05:27:17 11 C 46 %
1349 17-06-2019 05:39:17 11.2 C 47 %
1350 17-06-2019 05:51:17 11 C 46 %
Sensor: Nr:Datum:Temp:Feuchte:
Aussen-T/F 1351 17-06-2019 06:03:18 11.2 C 47 %
1352 17-06-2019 06:15:18 11.3 C 47 %
1353 17-06-2019 06:27:18 11.2 C 47 %
1354 17-06-2019 06:39:17 11.2 C 47 %
1355 17-06-2019 06:51:17 11.4 C 47 %
1356 17-06-2019 07:03:17 11.4 C 47 %
1357 17-06-2019 07:15:17 11.5 C 47 %
1358 17-06-2019 07:27:17 11.7 C 47 %
1359 17-06-2019 07:39:17 11.9 C 47 %
1360 17-06-2019 07:51:18 12.1 C 46 %
1361 17-06-2019 08:03:17 12.4 C 46 %
1362 17-06-2019 08:15:17 12.6 C 45 %
1363 17-06-2019 08:27:17 13.1 C 45 %
1364 17-06-2019 08:39:17 13.8 C 43 %
1365 17-06-2019 08:51:17 14.8 C 36 %
1366 17-06-2019 09:03:17 15.1 C 34 %
1367 17-06-2019 09:15:17 17.2 C 28 %
1368 17-06-2019 09:27:17 18.8 C 25 %
1369 17-06-2019 09:39:17 22.6 C 20 %
1370 17-06-2019 09:51:17 23.9 C 20 %
1371 17-06-2019 10:03:17 20.7 C 20 %
1372 17-06-2019 10:15:17 19.9 C 20 %
1373 17-06-2019 10:27:17 21.2 C 20 %
1374 17-06-2019 10:39:17 21.9 C 20 %
1375 17-06-2019 10:51:18 22.5 C 20 %
Sensor: Nr:Datum:Temp:Feuchte:
Aussen-T/F 1376 17-06-2019 11:03:17 23.3 C 20 %
1377 17-06-2019 11:15:17 23.9 C 20 %
1378 17-06-2019 11:27:18 24.5 C 20 %
1379 17-06-2019 11:39:17 25.3 C 20 %
1380 17-06-2019 11:51:17 25.5 C 20 %
1381 17-06-2019 12:03:17 25.1 C 20 %
1382 17-06-2019 12:15:17 25.6 C 20 %
1383 17-06-2019 12:27:17 24.6 C 20 %
1384 17-06-2019 12:39:18 24.7 C 20 %
1385 17-06-2019 12:51:17 25 C 20 %
1386 17-06-2019 13:03:17 25.3 C 20 %
1387 17-06-2019 13:15:17 25.6 C 20 %
1388 17-06-2019 13:27:17 25.8 C 20 %
1389 17-06-2019 13:39:17 24.8 C 20 %
1390 17-06-2019 13:51:18 26 C 20 %
1391 17-06-2019 14:03:17 25.8 C 20 %
1392 17-06-2019 14:15:17 26.4 C 20 %
1393 17-06-2019 14:27:17 26.9 C 20 %
1394 17-06-2019 14:39:17 25.9 C 20 %
1395 17-06-2019 14:51:17 26.6 C 20 %
1396 17-06-2019 15:03:17 25.8 C 20 %
1397 17-06-2019 15:15:18 26.7 C 20 %
1398 17-06-2019 15:27:18 26.3 C 20 %
1399 17-06-2019 15:39:17 25.6 C 20 %
1400 17-06-2019 15:51:17 25.9 C 20 %
Sensor: Nr:Datum:Temp:Feuchte:
Aussen-T/F 1401 17-06-2019 16:03:17 27.2 C 20 %
1402 17-06-2019 16:15:17 28.1 C 20 %
1403 17-06-2019 16:27:17 26.6 C 20 %
1404 17-06-2019 16:39:17 26.7 C 20 %
1405 17-06-2019 16:51:17 27.2 C 20 %
1406 17-06-2019 17:03:17 27.9 C 20 %
1407 17-06-2019 17:15:17 29.2 C 20 %
1408 17-06-2019 17:27:18 29.4 C 20 %
1409 17-06-2019 17:39:17 29.5 C 20 %
1410 17-06-2019 17:51:17 28.1 C 20 %
1411 17-06-2019 18:03:17 27 C 20 %
1412 17-06-2019 18:15:17 26.6 C 20 %
1413 17-06-2019 18:27:17 29 C 20 %
1414 17-06-2019 18:39:17 29.3 C 20 %
1415 17-06-2019 18:51:17 29.8 C 20 %
1416 17-06-2019 19:03:18 29.4 C 20 %
1417 17-06-2019 19:15:17 28.3 C 20 %
1418 17-06-2019 19:27:17 27.1 C 20 %
1419 17-06-2019 19:39:18 26 C 20 %
1420 17-06-2019 19:51:17 24.5 C 20 %
1421 17-06-2019 20:03:17 23.4 C 20 %
1422 17-06-2019 20:15:17 23.7 C 20 %
1423 17-06-2019 20:27:17 23.1 C 20 %
1424 17-06-2019 20:39:17 22 C 20 %
1425 17-06-2019 20:51:17 21.5 C 20 %
Sensor: Nr:Datum:Temp:Feuchte:
Aussen-T/F 1426 17-06-2019 21:03:17 21 C 20 %
1427 17-06-2019 21:15:17 20.8 C 20 %
1428 17-06-2019 21:27:17 20.3 C 20 %
1429 17-06-2019 21:39:17 19.9 C 20 %
1430 17-06-2019 21:51:17 19.5 C 20 %
1431 17-06-2019 22:03:17 19.3 C 20 %
1432 17-06-2019 22:15:17 18.9 C 20 %
1433 17-06-2019 22:27:17 18.5 C 21 %
1434 17-06-2019 22:39:17 18 C 22 %
1435 17-06-2019 22:51:17 17.5 C 25 %
1436 17-06-2019 23:03:17 17.2 C 25 %
1437 17-06-2019 23:15:17 17 C 26 %
1438 17-06-2019 23:27:17 16.6 C 27 %
1439 17-06-2019 23:39:17 16.5 C 28 %
1440 17-06-2019 23:51:18 16.3 C 29 %
1441 18-06-2019 00:03:17 16.1 C 30 %
1442 18-06-2019 00:15:17 15.8 C 30 %
1443 18-06-2019 00:27:17 15.5 C 31 %
1444 18-06-2019 00:39:17 15.4 C 32 %
1445 18-06-2019 00:51:17 15.2 C 32 %
1446 18-06-2019 01:03:18 15.1 C 34 %
1447 18-06-2019 01:15:17 15 C 34 %
1448 18-06-2019 01:27:17 14.9 C 35 %
1449 18-06-2019 01:39:18 14.8 C 35 %
1450 18-06-2019 01:51:17 14.7 C 36 %
Sensor: Nr:Datum:Temp:Feuchte:
Aussen-T/F 1451 18-06-2019 02:03:17 14.7 C 36 %
1452 18-06-2019 02:15:17 14.4 C 37 %
1453 18-06-2019 02:27:17 14.3 C 38 %
1454 18-06-2019 02:39:17 14.2 C 40 %
1455 18-06-2019 02:51:17 14 C 40 %
1456 18-06-2019 03:03:17 13.8 C 40 %
1457 18-06-2019 03:15:17 13.8 C 42 %
1458 18-06-2019 03:27:17 13.7 C 42 %
1459 18-06-2019 03:39:17 13.8 C 42 %
1460 18-06-2019 03:51:17 13.9 C 43 %
1461 18-06-2019 04:03:17 13.9 C 42 %
1462 18-06-2019 04:15:17 13.9 C 42 %
1463 18-06-2019 04:27:17 13.9 C 42 %
1464 18-06-2019 04:39:17 14 C 41 %
1465 18-06-2019 04:51:17 13.9 C 42 %
1466 18-06-2019 05:03:17 13.9 C 42 %
1467 18-06-2019 05:15:17 14 C 41 %
1468 18-06-2019 05:27:17 13.6 C 41 %
1469 18-06-2019 05:39:17 13.3 C 42 %
1470 18-06-2019 05:51:17 13.3 C 42 %
1471 18-06-2019 06:03:17 13.3 C 43 %
1472 18-06-2019 06:15:17 13.6 C 44 %
1473 18-06-2019 06:27:17 13.9 C 45 %
1474 18-06-2019 06:39:18 14.4 C 43 %
1475 18-06-2019 06:51:17 14.6 C 40 %
Sensor: Nr:Datum:Temp:Feuchte:
Aussen-T/F 1476 18-06-2019 07:03:17 14.9 C 39 %
1477 18-06-2019 07:15:17 15.2 C 37 %
1478 18-06-2019 07:27:17 15.4 C 36 %
1479 18-06-2019 07:39:17 15.6 C 34 %
1480 18-06-2019 07:51:17 15.9 C 32 %
1481 18-06-2019 08:03:17 16 C 31 %
1482 18-06-2019 08:15:17 15.9 C 32 %
1483 18-06-2019 08:27:17 16.3 C 34 %
1484 18-06-2019 08:39:17 17 C 32 %
1485 18-06-2019 08:51:17 17.8 C 30 %
1486 18-06-2019 09:03:17 17.7 C 30 %
1487 18-06-2019 09:15:17 19.3 C 26 %
1488 18-06-2019 09:27:17 22.5 C 20 %
1489 18-06-2019 09:39:17 25.6 C 20 %
1490 18-06-2019 09:51:17 27.7 C 20 %
1491 18-06-2019 10:03:18 24.7 C 20 %
1492 18-06-2019 10:15:17 22.2 C 20 %
1493 18-06-2019 10:27:17 22.5 C 20 %
1494 18-06-2019 10:39:17 23.8 C 20 %
1495 18-06-2019 10:51:17 24 C 20 %
1496 18-06-2019 11:03:17 25.3 C 20 %
1497 18-06-2019 11:15:17 26.7 C 20 %
1498 18-06-2019 11:27:17 27 C 20 %
1499 18-06-2019 11:39:18 27.4 C 20 %
1500 18-06-2019 11:51:17 28.9 C 20 %
Sensor: Nr:Datum:Temp:Feuchte:
Aussen-T/F 1501 18-06-2019 12:03:17 28.7 C 20 %
1502 18-06-2019 12:15:17 27.5 C 20 %
1503 18-06-2019 12:27:17 27.8 C 20 %
1504 18-06-2019 12:39:17 28.7 C 20 %
1505 18-06-2019 12:51:17 29 C 20 %
1506 18-06-2019 13:03:17 29.2 C 20 %
1507 18-06-2019 13:15:17 29.1 C 20 %
1508 18-06-2019 13:27:17 28.7 C 20 %
1509 18-06-2019 13:39:17 28.9 C 20 %
1510 18-06-2019 13:51:17 29.6 C 20 %
1511 18-06-2019 14:03:18 29.4 C 20 %
1512 18-06-2019 14:15:17 29.7 C 20 %
1513 18-06-2019 14:27:17 30.3 C 20 %
1514 18-06-2019 14:39:18 30.7 C 20 %
1515 18-06-2019 14:51:17 31.1 C 20 %
1516 18-06-2019 15:03:17 31.2 C 20 %
1517 18-06-2019 15:15:17 31.1 C 20 %
1518 18-06-2019 15:27:17 31.4 C 20 %
1519 18-06-2019 15:39:17 31.2 C 20 %
1520 18-06-2019 15:51:17 30.9 C 20 %
1521 18-06-2019 16:03:17 30.1 C 20 %
1522 18-06-2019 16:15:17 30 C 20 %
1523 18-06-2019 16:27:17 30.5 C 20 %
1524 18-06-2019 16:39:17 30.8 C 20 %
1525 18-06-2019 16:51:17 30.4 C 20 %
Sensor: Nr:Datum:Temp:Feuchte:
Aussen-T/F 1526 18-06-2019 17:03:17 29.7 C 20 %
1527 18-06-2019 17:15:17 29.9 C 20 %
1528 18-06-2019 17:27:17 29.8 C 20 %
1529 18-06-2019 17:39:17 29.2 C 20 %
1530 18-06-2019 17:51:17 29 C 20 %
1531 18-06-2019 18:03:17 28.8 C 20 %
1532 18-06-2019 18:15:17 29.9 C 20 %
1533 18-06-2019 18:27:17 29.6 C 20 %
1534 18-06-2019 18:39:18 30.4 C 20 %
1535 18-06-2019 18:51:17 29.8 C 20 %
1536 18-06-2019 19:03:17 28.6 C 20 %
1537 18-06-2019 19:15:17 27.2 C 20 %
1538 18-06-2019 19:27:17 26.1 C 20 %
1539 18-06-2019 19:39:17 25.8 C 20 %
1540 18-06-2019 19:51:17 25.7 C 20 %
1541 18-06-2019 20:03:18 25.6 C 20 %
1542 18-06-2019 20:15:17 25.3 C 20 %
1543 18-06-2019 20:27:17 25.2 C 20 %
1544 18-06-2019 20:39:18 24.9 C 20 %
1545 18-06-2019 20:51:17 24.2 C 20 %
1546 18-06-2019 21:03:17 23.8 C 20 %
1547 18-06-2019 21:15:17 23.2 C 20 %
1548 18-06-2019 21:27:17 22.7 C 20 %
1549 18-06-2019 21:39:17 22.4 C 20 %
1550 18-06-2019 21:51:17 22 C 20 %
Sensor: Nr:Datum:Temp:Feuchte:
Aussen-T/F 1551 18-06-2019 22:03:17 21.7 C 20 %
1552 18-06-2019 22:15:17 21.4 C 20 %
1553 18-06-2019 22:27:17 20.9 C 22 %
1554 18-06-2019 22:39:17 20.7 C 23 %
1555 18-06-2019 22:51:17 20.5 C 23 %
1556 18-06-2019 23:03:17 20 C 25 %
1557 18-06-2019 23:15:17 19.6 C 26 %
1558 18-06-2019 23:27:17 19.3 C 27 %
1559 18-06-2019 23:39:17 19.1 C 27 %
1560 18-06-2019 23:51:18 18.9 C 29 %
1561 19-06-2019 00:03:17 18.6 C 30 %
1562 19-06-2019 00:15:17 18.4 C 31 %
1563 19-06-2019 00:27:17 18.1 C 31 %
1564 19-06-2019 00:39:17 18 C 32 %
1565 19-06-2019 00:51:17 17.8 C 33 %
1566 19-06-2019 01:03:18 17.6 C 34 %
1567 19-06-2019 01:15:17 17.5 C 35 %
1568 19-06-2019 01:27:17 17.4 C 35 %
1569 19-06-2019 01:39:18 17.2 C 35 %
1570 19-06-2019 01:51:17 17.3 C 36 %
1571 19-06-2019 02:03:17 17.4 C 37 %
1572 19-06-2019 02:15:17 17.5 C 37 %
1573 19-06-2019 02:27:17 17.5 C 37 %
1574 19-06-2019 02:39:17 17.4 C 37 %
1575 19-06-2019 02:51:17 17 C 37 %
Sensor: Nr:Datum:Temp:Feuchte:
Aussen-T/F 1576 19-06-2019 03:03:17 16.8 C 38 %
1577 19-06-2019 03:15:17 16.3 C 38 %
1578 19-06-2019 03:27:18 16.2 C 39 %
1579 19-06-2019 03:39:17 16 C 40 %
1580 19-06-2019 03:51:17 16 C 40 %
1581 19-06-2019 04:03:17 15.9 C 41 %
1582 19-06-2019 04:15:17 15.8 C 41 %
1583 19-06-2019 04:27:17 15.5 C 41 %
1584 19-06-2019 04:39:18 15.3 C 41 %
1585 19-06-2019 04:51:17 15.1 C 41 %
1586 19-06-2019 05:03:17 15 C 42 %
1587 19-06-2019 05:15:18 15 C 43 %
1588 19-06-2019 05:27:18 15 C 44 %
1589 19-06-2019 05:39:17 15 C 43 %
1590 19-06-2019 05:51:17 14.8 C 44 %
1591 19-06-2019 06:03:17 14.8 C 44 %
1592 19-06-2019 06:15:17 14.8 C 44 %
1593 19-06-2019 06:27:17 14.8 C 45 %
1594 19-06-2019 06:39:17 15 C 44 %
1595 19-06-2019 06:51:17 15.2 C 45 %
1596 19-06-2019 07:03:17 15.2 C 44 %
1597 19-06-2019 07:15:17 15.4 C 44 %
1598 19-06-2019 07:27:17 15.5 C 44 %
1599 19-06-2019 07:39:17 15.7 C 44 %
1600 19-06-2019 07:51:17 16 C 43 %
Sensor: Nr:Datum:Temp:Feuchte:
Aussen-T/F 1601 19-06-2019 08:03:17 16.2 C 42 %
1602 19-06-2019 08:15:17 16.6 C 42 %
1603 19-06-2019 08:27:17 17.1 C 41 %
1604 19-06-2019 08:39:18 17.8 C 39 %
1605 19-06-2019 08:51:17 18.6 C 34 %
1606 19-06-2019 09:03:17 18.8 C 34 %
1607 19-06-2019 09:15:17 20.7 C 28 %
1608 19-06-2019 09:27:17 22.7 C 24 %
1609 19-06-2019 09:39:17 26.3 C 20 %
1610 19-06-2019 09:51:17 28.6 C 20 %
1611 19-06-2019 10:03:17 27.1 C 20 %
1612 19-06-2019 10:15:17 24.2 C 20 %
1613 19-06-2019 10:27:17 25 C 20 %
1614 19-06-2019 10:39:17 27.2 C 20 %
1615 19-06-2019 10:51:17 27.7 C 20 %
1616 19-06-2019 11:03:17 28.1 C 20 %
1617 19-06-2019 11:15:17 28.4 C 20 %
1618 19-06-2019 11:27:17 28.5 C 20 %
1619 19-06-2019 11:39:18 28.7 C 20 %
1620 19-06-2019 11:51:17 28.5 C 20 %
1621 19-06-2019 12:03:17 28.2 C 20 %
1622 19-06-2019 12:15:17 27.9 C 20 %
1623 19-06-2019 12:27:17 26.7 C 20 %
1624 19-06-2019 12:39:17 25.6 C 20 %
1625 19-06-2019 12:51:17 25.1 C 20 %
Sensor: Nr:Datum:Temp:Feuchte:
Aussen-T/F 1626 19-06-2019 13:03:17 24.8 C 20 %
1627 19-06-2019 13:15:17 24.9 C 20 %
1628 19-06-2019 13:27:17 26.6 C 20 %
1629 19-06-2019 13:39:18 27.7 C 20 %
1630 19-06-2019 13:51:17 28.8 C 20 %
1631 19-06-2019 14:03:17 28.3 C 20 %
1632 19-06-2019 14:15:17 27.7 C 20 %
1633 19-06-2019 14:27:17 27.1 C 20 %
1634 19-06-2019 14:39:17 27.3 C 20 %
1635 19-06-2019 14:51:17 27.5 C 20 %
1636 19-06-2019 15:03:17 26.8 C 20 %
1637 19-06-2019 15:15:17 28.4 C 20 %
1638 19-06-2019 15:27:17 27.9 C 20 %
1639 19-06-2019 15:39:17 29.1 C 20 %
1640 19-06-2019 15:51:17 29.6 C 20 %
1641 19-06-2019 16:03:17 29.5 C 20 %
1642 19-06-2019 16:15:17 30.2 C 20 %
1643 19-06-2019 16:27:17 30.5 C 20 %
1644 19-06-2019 16:39:17 31.2 C 20 %
1645 19-06-2019 16:51:17 31.8 C 20 %
1646 19-06-2019 17:03:17 31.8 C 20 %
1647 19-06-2019 17:15:17 32.1 C 20 %
1648 19-06-2019 17:27:17 32.5 C 20 %
1649 19-06-2019 17:39:18 32.2 C 20 %
1650 19-06-2019 17:51:17 32 C 20 %
Sensor: Nr:Datum:Temp:Feuchte:
Aussen-T/F 1651 19-06-2019 18:03:17 30.2 C 20 %
1652 19-06-2019 18:15:17 28.3 C 20 %
1653 19-06-2019 18:27:18 26.5 C 20 %
1654 19-06-2019 18:39:17 26.5 C 20 %
1655 19-06-2019 18:51:17 27.2 C 20 %
1656 19-06-2019 19:03:17 29.9 C 20 %
1657 19-06-2019 19:15:18 30.7 C 20 %
1658 19-06-2019 19:27:18 29.5 C 20 %
1659 19-06-2019 19:39:17 28.1 C 20 %
1660 19-06-2019 19:51:17 26.6 C 20 %
1661 19-06-2019 20:03:17 25.4 C 20 %
1662 19-06-2019 20:15:17 25 C 20 %
1663 19-06-2019 20:27:17 25 C 20 %
1664 19-06-2019 20:39:17 24.4 C 20 %
1665 19-06-2019 20:51:17 23.7 C 20 %
1666 19-06-2019 21:03:17 23.3 C 20 %
1667 19-06-2019 21:15:18 23.2 C 20 %
1668 19-06-2019 21:27:18 22.9 C 20 %
1669 19-06-2019 21:39:17 22.5 C 20 %
1670 19-06-2019 21:51:17 21.9 C 20 %
1671 19-06-2019 22:03:18 21.8 C 20 %
1672 19-06-2019 22:15:17 22.6 C 20 %
1673 19-06-2019 22:27:17 21.7 C 20 %
1674 19-06-2019 22:39:17 20.8 C 20 %
1675 19-06-2019 22:51:17 20.4 C 22 %
Sensor: Nr:Datum:Temp:Feuchte:
Aussen-T/F 1676 19-06-2019 23:03:18 20.1 C 23 %
1677 19-06-2019 23:15:17 20.1 C 24 %
1678 19-06-2019 23:27:17 20.2 C 25 %
1679 19-06-2019 23:39:17 19.9 C 25 %
1680 19-06-2019 23:51:17 19.3 C 26 %
1681 20-06-2019 00:03:18 19 C 26 %
1682 20-06-2019 00:15:17 18.8 C 28 %
1683 20-06-2019 00:27:17 18.6 C 29 %
1684 20-06-2019 00:39:18 18.5 C 30 %
1685 20-06-2019 00:51:17 18.6 C 30 %
1686 20-06-2019 01:03:17 18.4 C 30 %
1687 20-06-2019 01:15:18 18.2 C 31 %
1688 20-06-2019 01:27:18 18.1 C 32 %
1689 20-06-2019 01:39:17 17.8 C 33 %
1690 20-06-2019 01:51:17 17.7 C 34 %
1691 20-06-2019 02:03:18 17.6 C 35 %
1692 20-06-2019 02:15:17 17.5 C 35 %
1693 20-06-2019 02:27:17 17.6 C 36 %
1694 20-06-2019 02:39:17 17.6 C 36 %
1695 20-06-2019 02:51:17 17.8 C 36 %
1696 20-06-2019 03:03:18 17.9 C 35 %
1697 20-06-2019 03:15:17 18.2 C 35 %
1698 20-06-2019 03:27:17 18.4 C 33 %
1699 20-06-2019 03:39:17 18 C 33 %
1700 20-06-2019 03:51:17 17.9 C 35 %
Sensor: Nr:Datum:Temp:Feuchte:
Aussen-T/F 1701 20-06-2019 04:03:17 18 C 34 %
1702 20-06-2019 04:15:17 17.4 C 36 %
1703 20-06-2019 04:27:18 17.5 C 36 %
1704 20-06-2019 04:39:17 17.1 C 38 %
1705 20-06-2019 04:51:17 16.8 C 40 %
1706 20-06-2019 05:03:18 16.6 C 40 %
1707 20-06-2019 05:15:17 16.5 C 41 %
1708 20-06-2019 05:27:17 16.4 C 41 %
1709 20-06-2019 05:39:17 16.4 C 41 %
1710 20-06-2019 05:51:17 16.5 C 42 %
1711 20-06-2019 06:03:18 16.8 C 42 %
1712 20-06-2019 06:15:17 17.1 C 39 %
1713 20-06-2019 06:27:17 17.6 C 36 %
1714 20-06-2019 06:39:17 17.7 C 35 %
1715 20-06-2019 06:51:17 17.9 C 33 %
1716 20-06-2019 07:03:17 17.9 C 33 %
1717 20-06-2019 07:15:17 17.7 C 35 %
1718 20-06-2019 07:27:17 17.9 C 34 %
1719 20-06-2019 07:39:17 18.6 C 30 %
1720 20-06-2019 07:51:18 19 C 27 %
1721 20-06-2019 08:03:17 19.3 C 26 %
1722 20-06-2019 08:15:17 20.1 C 23 %
1723 20-06-2019 08:27:17 20.4 C 22 %
1724 20-06-2019 08:39:17 20.5 C 20 %
1725 20-06-2019 08:51:17 20.6 C 20 %
Sensor: Nr:Datum:Temp:Feuchte:
Aussen-T/F 1726 20-06-2019 09:03:18 20.8 C 20 %
1727 20-06-2019 09:15:17 20.7 C 20 %
1728 20-06-2019 09:27:17 21.1 C 20 %
1729 20-06-2019 09:39:17 21.2 C 20 %
1730 20-06-2019 09:51:17 21.8 C 20 %
1731 20-06-2019 10:03:17 22 C 20 %
1732 20-06-2019 10:15:17 22.7 C 20 %
1733 20-06-2019 10:27:17 22.6 C 20 %
1734 20-06-2019 10:39:17 22.7 C 20 %
1735 20-06-2019 10:51:17 23.1 C 20 %
1736 20-06-2019 11:03:17 23 C 20 %
1737 20-06-2019 11:15:17 23 C 20 %
1738 20-06-2019 11:27:17 23.4 C 20 %
1739 20-06-2019 11:39:17 23.2 C 20 %
1740 20-06-2019 11:51:17 23.7 C 20 %
1741 20-06-2019 12:03:17 24.5 C 20 %
1742 20-06-2019 12:15:17 24.4 C 20 %
1743 20-06-2019 12:27:17 24.4 C 20 %
1744 20-06-2019 12:39:17 24 C 20 %
1745 20-06-2019 12:51:17 24.4 C 20 %
1746 20-06-2019 13:03:17 24.2 C 20 %
1747 20-06-2019 13:15:17 24.5 C 20 %
1748 20-06-2019 13:27:17 24.2 C 20 %
1749 20-06-2019 13:39:17 24.1 C 20 %
1750 20-06-2019 13:51:17 24.8 C 20 %
Sensor: Nr:Datum:Temp:Feuchte:
Aussen-T/F 1751 20-06-2019 14:03:17 25.8 C 20 %
1752 20-06-2019 14:15:17 26.4 C 20 %
1753 20-06-2019 14:27:17 26.8 C 20 %
1754 20-06-2019 14:39:17 26.8 C 20 %
1755 20-06-2019 14:51:17 26 C 20 %
1756 20-06-2019 15:03:18 24.7 C 20 %
1757 20-06-2019 15:15:17 23.1 C 20 %
1758 20-06-2019 15:27:17 19.4 C 31 %
1759 20-06-2019 15:39:18 19.5 C 35 %
1760 20-06-2019 15:51:17 20 C 34 %
1761 20-06-2019 16:03:17 22.3 C 22 %
1762 20-06-2019 16:15:18 23.7 C 20 %
1763 20-06-2019 16:27:18 24.8 C 20 %
1764 20-06-2019 16:39:17 24.8 C 20 %
1765 20-06-2019 16:51:17 23.5 C 20 %
1766 20-06-2019 17:03:18 22.9 C 20 %
1767 20-06-2019 17:15:17 22.1 C 20 %
1768 20-06-2019 17:27:17 20.6 C 25 %
1769 20-06-2019 17:39:17 20.1 C 26 %
1770 20-06-2019 17:51:18 21.1 C 25 %
1771 20-06-2019 18:03:17 20.7 C 24 %
1772 20-06-2019 18:15:17 20.8 C 24 %
1773 20-06-2019 18:27:17 21.2 C 21 %
1774 20-06-2019 18:39:17 20.9 C 22 %
1775 20-06-2019 18:51:17 20.2 C 22 %
Sensor: Nr:Datum:Temp:Feuchte:
Aussen-T/F 1776 20-06-2019 19:03:17 19.5 C 26 %
1777 20-06-2019 19:15:17 19.5 C 25 %
1778 20-06-2019 19:27:17 19.3 C 23 %
1779 20-06-2019 19:39:17 19.1 C 25 %
1780 20-06-2019 19:51:17 19.1 C 24 %
1781 20-06-2019 20:03:17 19.2 C 24 %
1782 20-06-2019 20:15:17 19.4 C 23 %
1783 20-06-2019 20:27:17 19.4 C 24 %
1784 20-06-2019 20:39:17 19.1 C 26 %
1785 20-06-2019 20:51:17 18.9 C 28 %
1786 20-06-2019 21:03:17 18.6 C 30 %
1787 20-06-2019 21:15:17 18.4 C 31 %
1788 20-06-2019 21:27:17 18.1 C 31 %
1789 20-06-2019 21:39:17 17.7 C 33 %
1790 20-06-2019 21:51:17 17.3 C 34 %
1791 20-06-2019 22:03:17 17.1 C 35 %
1792 20-06-2019 22:15:18 17.1 C 35 %
1793 20-06-2019 22:27:18 16.7 C 36 %
1794 20-06-2019 22:39:17 16.3 C 37 %
1795 20-06-2019 22:51:17 16 C 38 %
1796 20-06-2019 23:03:17 15.9 C 40 %
1797 20-06-2019 23:15:17 15.5 C 41 %
1798 20-06-2019 23:27:17 15.3 C 41 %
1799 20-06-2019 23:39:17 15.2 C 42 %
1800 20-06-2019 23:51:17 15.1 C 43 %
Sensor: Nr:Datum:Temp:Feuchte:
Aussen-T/F 1801 21-06-2019 00:03:18 15.9 C 47 %
1802 21-06-2019 00:15:17 15.8 C 44 %
1803 21-06-2019 00:27:17 15.8 C 42 %
1804 21-06-2019 00:39:17 15.4 C 40 %
1805 21-06-2019 00:51:17 15.1 C 41 %
1806 21-06-2019 01:03:17 15 C 42 %
1807 21-06-2019 01:15:17 14.9 C 44 %
1808 21-06-2019 01:27:17 14.7 C 43 %
1809 21-06-2019 01:39:17 14.5 C 43 %
1810 21-06-2019 01:51:17 14.6 C 44 %
1811 21-06-2019 02:03:18 14.7 C 44 %
1812 21-06-2019 02:15:17 14.7 C 44 %
1813 21-06-2019 02:27:17 15.1 C 44 %
1814 21-06-2019 02:39:17 15.2 C 44 %
1815 21-06-2019 02:51:18 15.2 C 44 %
1816 21-06-2019 03:03:17 15.3 C 43 %
1817 21-06-2019 03:15:17 15.3 C 43 %
1818 21-06-2019 03:27:17 15.3 C 43 %
1819 21-06-2019 03:39:17 15.2 C 42 %
1820 21-06-2019 03:51:17 15.1 C 43 %
1821 21-06-2019 04:03:17 15 C 44 %
1822 21-06-2019 04:15:17 15.1 C 44 %
1823 21-06-2019 04:27:17 15 C 43 %
1824 21-06-2019 04:39:17 14.8 C 43 %
1825 21-06-2019 04:51:17 14.6 C 42 %
Sensor: Nr:Datum:Temp:Feuchte:
Aussen-T/F 1826 21-06-2019 05:03:17 14.5 C 42 %
1827 21-06-2019 05:15:17 14.4 C 42 %
1828 21-06-2019 05:27:17 14.4 C 42 %
1829 21-06-2019 05:39:17 14.4 C 42 %
1830 21-06-2019 05:51:17 14.3 C 42 %
1831 21-06-2019 06:03:17 14.5 C 41 %
1832 21-06-2019 06:15:17 14.6 C 41 %
1833 21-06-2019 06:27:17 14.4 C 40 %
1834 21-06-2019 06:39:17 14.4 C 40 %
1835 21-06-2019 06:51:18 14.7 C 38 %
1836 21-06-2019 07:03:17 14.9 C 38 %
1837 21-06-2019 07:15:17 15 C 37 %
1838 21-06-2019 07:27:17 14.8 C 36 %
1839 21-06-2019 07:39:17 15.1 C 35 %
1840 21-06-2019 07:51:17 15.7 C 34 %
1841 21-06-2019 08:03:17 16.2 C 27 %
1842 21-06-2019 08:15:17 16.8 C 21 %
1843 21-06-2019 08:27:17 16.9 C 20 %
1844 21-06-2019 08:39:18 17 C 20 %
1845 21-06-2019 08:51:17 17 C 20 %
1846 21-06-2019 09:03:17 17.4 C 20 %
1847 21-06-2019 09:15:17 19.3 C 20 %
1848 21-06-2019 09:27:17 19.7 C 20 %
1849 21-06-2019 09:39:17 20.8 C 20 %
1850 21-06-2019 09:51:18 22.8 C 20 %
Sensor: Nr:Datum:Temp:Feuchte:
Aussen-T/F 1851 21-06-2019 10:03:17 21.8 C 20 %
1852 21-06-2019 10:15:17 19.5 C 20 %
1853 21-06-2019 10:27:17 20.1 C 20 %
1854 21-06-2019 10:39:17 20.4 C 20 %
1855 21-06-2019 10:51:17 20.6 C 20 %
1856 21-06-2019 11:03:18 21.7 C 20 %
1857 21-06-2019 11:15:17 21.6 C 20 %
1858 21-06-2019 11:27:17 20.5 C 20 %
1859 21-06-2019 11:39:17 22.4 C 20 %
1860 21-06-2019 11:51:17 21.5 C 20 %
1861 21-06-2019 12:03:17 22 C 20 %
1862 21-06-2019 12:15:17 22.6 C 20 %
1863 21-06-2019 12:27:17 21.2 C 20 %
1864 21-06-2019 12:39:17 21.5 C 20 %
1865 21-06-2019 12:51:17 22 C 20 %
1866 21-06-2019 13:03:17 22.8 C 20 %
1867 21-06-2019 13:15:17 22.2 C 20 %
1868 21-06-2019 13:27:17 22.2 C 20 %
1869 21-06-2019 13:39:17 23.1 C 20 %
1870 21-06-2019 13:51:17 23.8 C 20 %
1871 21-06-2019 14:03:17 23.6 C 20 %
1872 21-06-2019 14:15:17 23.1 C 20 %
1873 21-06-2019 14:27:17 23.4 C 20 %
1874 21-06-2019 14:39:18 23.9 C 20 %
1875 21-06-2019 14:51:17 24.2 C 20 %
Sensor: Nr:Datum:Temp:Feuchte:
Aussen-T/F 1876 21-06-2019 15:03:17 23.3 C 20 %
1877 21-06-2019 15:15:17 23.3 C 20 %
1878 21-06-2019 15:27:17 24.5 C 20 %
1879 21-06-2019 15:39:17 24.1 C 20 %
1880 21-06-2019 15:51:17 24.4 C 20 %
1881 21-06-2019 16:03:17 24.9 C 20 %
1882 21-06-2019 16:15:17 24.8 C 20 %
1883 21-06-2019 16:27:17 23.7 C 20 %
1884 21-06-2019 16:39:18 24.5 C 20 %
1885 21-06-2019 16:51:17 25 C 20 %
1886 21-06-2019 17:03:17 25.6 C 20 %
1887 21-06-2019 17:15:17 25.7 C 20 %
1888 21-06-2019 17:27:17 26.3 C 20 %
1889 21-06-2019 17:39:17 26.6 C 20 %
1890 21-06-2019 17:51:17 26.8 C 20 %
1891 21-06-2019 18:03:17 28 C 20 %
1892 21-06-2019 18:15:17 26.8 C 20 %
1893 21-06-2019 18:27:17 25.6 C 20 %
1894 21-06-2019 18:39:17 24.8 C 20 %
1895 21-06-2019 18:51:17 24.5 C 20 %
1896 21-06-2019 19:03:17 25 C 20 %
1897 21-06-2019 19:15:18 24 C 20 %
1898 21-06-2019 19:27:18 24.1 C 20 %
1899 21-06-2019 19:39:17 23.7 C 20 %
1900 21-06-2019 19:51:17 23 C 20 %
Sensor: Nr:Datum:Temp:Feuchte:
Aussen-T/F 1901 21-06-2019 20:03:18 22.7 C 20 %
1902 21-06-2019 20:15:17 22.4 C 20 %
1903 21-06-2019 20:27:17 22.2 C 20 %
1904 21-06-2019 20:39:17 21.9 C 20 %
1905 21-06-2019 20:51:17 21.5 C 20 %
1906 21-06-2019 21:03:17 21 C 20 %
1907 21-06-2019 21:15:17 20.6 C 20 %
1908 21-06-2019 21:27:18 19.7 C 20 %
1909 21-06-2019 21:39:17 18.2 C 20 %
1910 21-06-2019 21:51:17 17.4 C 20 %
1911 21-06-2019 22:03:18 16.9 C 20 %
1912 21-06-2019 22:15:17 16.8 C 20 %
1913 21-06-2019 22:27:17 16.3 C 20 %
1914 21-06-2019 22:39:18 16 C 20 %
1915 21-06-2019 22:51:17 15.7 C 20 %
1916 21-06-2019 23:03:17 15.6 C 20 %
1917 21-06-2019 23:15:18 15.4 C 20 %
1918 21-06-2019 23:27:18 15.2 C 20 %
1919 21-06-2019 23:39:17 15.1 C 20 %
1920 21-06-2019 23:51:17 14.5 C 22 %
1921 22-06-2019 00:03:17 14.2 C 25 %
1922 22-06-2019 00:15:17 14 C 25 %
1923 22-06-2019 00:27:17 13.6 C 26 %
1924 22-06-2019 00:39:18 13.5 C 28 %
1925 22-06-2019 00:51:17 13.4 C 28 %
Sensor: Nr:Datum:Temp:Feuchte:
Aussen-T/F 1926 22-06-2019 01:03:17 13.4 C 30 %
1927 22-06-2019 01:15:17 13.6 C 29 %
1928 22-06-2019 01:27:18 13.3 C 27 %
1929 22-06-2019 01:39:17 13.1 C 30 %
1930 22-06-2019 01:51:17 12.5 C 30 %
1931 22-06-2019 02:03:17 12.4 C 33 %
1932 22-06-2019 02:15:17 12.3 C 35 %
1933 22-06-2019 02:27:17 12.1 C 35 %
1934 22-06-2019 02:39:17 11.9 C 36 %
1935 22-06-2019 02:51:17 11.9 C 37 %
1936 22-06-2019 03:03:17 11.7 C 37 %
1937 22-06-2019 03:15:17 11.7 C 38 %
1938 22-06-2019 03:27:17 11.6 C 39 %
1939 22-06-2019 03:39:17 11.4 C 38 %
1940 22-06-2019 03:51:17 11.6 C 41 %
1941 22-06-2019 04:03:17 11.3 C 40 %
1942 22-06-2019 04:15:17 11.2 C 41 %
1943 22-06-2019 04:27:17 11 C 41 %
1944 22-06-2019 04:39:17 11.1 C 42 %
1945 22-06-2019 04:51:17 10.9 C 43 %
1946 22-06-2019 05:03:17 10.8 C 43 %
1947 22-06-2019 05:15:17 10.8 C 44 %
1948 22-06-2019 05:27:17 10.9 C 44 %
1949 22-06-2019 05:39:17 10.9 C 44 %
1950 22-06-2019 05:51:17 10.8 C 45 %
Sensor: Nr:Datum:Temp:Feuchte:
Aussen-T/F 1951 22-06-2019 06:03:18 10.9 C 45 %
1952 22-06-2019 06:15:17 10.9 C 45 %
1953 22-06-2019 06:27:17 11 C 44 %
1954 22-06-2019 06:39:17 11.1 C 44 %
1955 22-06-2019 06:51:17 11.3 C 44 %
1956 22-06-2019 07:03:17 11.6 C 44 %
1957 22-06-2019 07:15:17 12 C 44 %
1958 22-06-2019 07:27:17 12.5 C 43 %
1959 22-06-2019 07:39:18 13.1 C 42 %
1960 22-06-2019 07:51:17 13.6 C 40 %
1961 22-06-2019 08:03:17 14 C 36 %
1962 22-06-2019 08:15:18 14.4 C 33 %
1963 22-06-2019 08:27:18 14.8 C 31 %
1964 22-06-2019 08:39:17 15.4 C 27 %
1965 22-06-2019 08:51:17 16.4 C 23 %
1966 22-06-2019 09:03:17 16.7 C 23 %
1967 22-06-2019 09:15:17 18.3 C 20 %
1968 22-06-2019 09:27:17 19 C 20 %
1969 22-06-2019 09:39:17 22.3 C 20 %
1970 22-06-2019 09:51:17 25.3 C 20 %
1971 22-06-2019 10:03:17 22.5 C 20 %
1972 22-06-2019 10:15:17 21 C 20 %
1973 22-06-2019 10:27:17 21.4 C 20 %
1974 22-06-2019 10:39:17 21.9 C 20 %
1975 22-06-2019 10:51:17 21.7 C 20 %
Sensor: Nr:Datum:Temp:Feuchte:
Aussen-T/F 1976 22-06-2019 11:03:18 22.5 C 20 %
1977 22-06-2019 11:15:17 22.6 C 20 %
1978 22-06-2019 11:27:17 23 C 20 %
1979 22-06-2019 11:39:18 23.3 C 20 %
1980 22-06-2019 11:51:17 24.2 C 20 %
1981 22-06-2019 12:03:17 24.9 C 20 %
1982 22-06-2019 12:15:17 24.1 C 20 %
1983 22-06-2019 12:27:17 25 C 20 %
1984 22-06-2019 12:39:17 24.2 C 20 %
1985 22-06-2019 12:51:17 24.5 C 20 %
1986 22-06-2019 13:03:18 24.7 C 20 %
1987 22-06-2019 13:15:17 25.1 C 20 %
1988 22-06-2019 13:27:17 25.1 C 20 %
1989 22-06-2019 13:39:17 25.4 C 20 %
1990 22-06-2019 13:51:17 25.2 C 20 %
1991 22-06-2019 14:03:17 25.9 C 20 %
1992 22-06-2019 14:15:18 26.1 C 20 %
1993 22-06-2019 14:27:18 26.1 C 20 %
1994 22-06-2019 14:39:17 25.9 C 20 %
1995 22-06-2019 14:51:17 26 C 20 %
1996 22-06-2019 15:03:18 26.2 C 20 %
1997 22-06-2019 15:15:17 26.6 C 20 %
1998 22-06-2019 15:27:17 26.8 C 20 %
1999 22-06-2019 15:39:17 26.4 C 20 %
2000 22-06-2019 15:51:17 26.5 C 20 %
Sensor: Nr:Datum:Temp:Feuchte:
Aussen-T/F 2001 22-06-2019 16:03:17 26.7 C 20 %
2002 22-06-2019 16:15:17 27.5 C 20 %
2003 22-06-2019 16:27:17 27.4 C 20 %
2004 22-06-2019 16:39:17 27.7 C 20 %
2005 22-06-2019 16:51:17 27.4 C 20 %
2006 22-06-2019 17:03:18 26.8 C 20 %
2007 22-06-2019 17:15:17 26.5 C 20 %
2008 22-06-2019 17:27:17 26.4 C 20 %
2009 22-06-2019 17:39:17 26.9 C 20 %
2010 22-06-2019 17:51:17 27.5 C 20 %
2011 22-06-2019 18:03:17 27.9 C 20 %
2012 22-06-2019 18:15:17 27.7 C 20 %
2013 22-06-2019 18:27:18 28 C 20 %
2014 22-06-2019 18:39:17 27.8 C 20 %
2015 22-06-2019 18:51:17 27.5 C 20 %
2016 22-06-2019 19:03:17 27.8 C 20 %
2017 22-06-2019 19:15:17 27.7 C 20 %
2018 22-06-2019 19:27:17 27.5 C 20 %
2019 22-06-2019 19:39:17 27.7 C 20 %
2020 22-06-2019 19:51:17 27.6 C 20 %
2021 22-06-2019 20:03:17 27.4 C 20 %
2022 22-06-2019 20:15:17 27.1 C 20 %
2023 22-06-2019 20:27:17 26.9 C 20 %
2024 22-06-2019 20:39:17 26.7 C 20 %
2025 22-06-2019 20:51:17 25.8 C 20 %
Sensor: Nr:Datum:Temp:Feuchte:
Aussen-T/F 2026 22-06-2019 21:03:18 24.7 C 20 %
2027 22-06-2019 21:15:17 23.9 C 20 %
2028 22-06-2019 21:27:17 23 C 20 %
2029 22-06-2019 21:39:17 22.1 C 20 %
2030 22-06-2019 21:51:17 21.1 C 20 %
2031 22-06-2019 22:03:17 20.2 C 20 %
2032 22-06-2019 22:15:17 19.7 C 20 %
2033 22-06-2019 22:27:17 19.4 C 21 %
2034 22-06-2019 22:39:17 19.3 C 22 %
2035 22-06-2019 22:51:17 19.2 C 23 %
2036 22-06-2019 23:03:17 18.9 C 23 %
2037 22-06-2019 23:15:18 18.6 C 25 %
2038 22-06-2019 23:27:18 18.5 C 26 %
2039 22-06-2019 23:39:17 18.3 C 26 %
2040 22-06-2019 23:51:17 18.1 C 26 %
2041 23-06-2019 00:03:17 17.8 C 27 %
2042 23-06-2019 00:15:17 17.5 C 28 %
2043 23-06-2019 00:27:17 17.1 C 30 %
2044 23-06-2019 00:39:18 17 C 30 %
2045 23-06-2019 00:51:17 16.8 C 31 %
2046 23-06-2019 01:03:17 16.5 C 32 %
2047 23-06-2019 01:15:17 16.3 C 33 %
2048 23-06-2019 01:27:17 16.3 C 34 %
2049 23-06-2019 01:39:17 16.1 C 35 %
2050 23-06-2019 01:51:18 15.9 C 36 %
Sensor: Nr:Datum:Temp:Feuchte:
Aussen-T/F 2051 23-06-2019 02:03:17 16.1 C 36 %
2052 23-06-2019 02:15:17 15.7 C 37 %
2053 23-06-2019 02:27:17 15.6 C 37 %
2054 23-06-2019 02:39:17 15.5 C 37 %
2055 23-06-2019 02:51:17 15.4 C 38 %
2056 23-06-2019 03:03:17 15.1 C 38 %
2057 23-06-2019 03:15:18 15 C 39 %
2058 23-06-2019 03:27:18 14.8 C 40 %
2059 23-06-2019 03:39:17 14.7 C 40 %
2060 23-06-2019 03:51:17 14.7 C 41 %
2061 23-06-2019 04:03:17 14.6 C 42 %
2062 23-06-2019 04:15:17 14.6 C 42 %
2063 23-06-2019 04:27:17 14.4 C 42 %
2064 23-06-2019 04:39:18 14.3 C 42 %
2065 23-06-2019 04:51:17 14.2 C 42 %
2066 23-06-2019 05:03:17 14.1 C 43 %
2067 23-06-2019 05:15:18 14 C 43 %
2068 23-06-2019 05:27:18 14 C 43 %
2069 23-06-2019 05:39:17 13.9 C 44 %
2070 23-06-2019 05:51:17 14.1 C 44 %
2071 23-06-2019 06:03:17 14.2 C 44 %
2072 23-06-2019 06:15:17 14.2 C 44 %
2073 23-06-2019 06:27:17 14.4 C 45 %
2074 23-06-2019 06:39:18 14.4 C 44 %
2075 23-06-2019 06:51:17 14.5 C 44 %
Sensor: Nr:Datum:Temp:Feuchte:
Aussen-T/F 2076 23-06-2019 07:03:17 14.6 C 44 %
2077 23-06-2019 07:15:17 14.7 C 44 %
2078 23-06-2019 07:27:17 14.9 C 44 %
2079 23-06-2019 07:39:17 15.2 C 42 %
2080 23-06-2019 07:51:17 15.4 C 42 %
2081 23-06-2019 08:03:17 15.8 C 42 %
2082 23-06-2019 08:15:17 16.3 C 41 %
2083 23-06-2019 08:27:17 16.8 C 40 %
2084 23-06-2019 08:39:18 17.5 C 36 %
2085 23-06-2019 08:51:17 18.3 C 31 %
2086 23-06-2019 09:03:17 18.9 C 29 %
2087 23-06-2019 09:15:17 20.3 C 25 %
2088 23-06-2019 09:27:17 21.1 C 20 %
2089 23-06-2019 09:39:17 25.7 C 20 %
2090 23-06-2019 09:51:17 27.1 C 20 %
2091 23-06-2019 10:03:17 25 C 20 %
2092 23-06-2019 10:15:17 23.5 C 20 %
2093 23-06-2019 10:27:17 24 C 20 %
2094 23-06-2019 10:39:17 24.6 C 20 %
2095 23-06-2019 10:51:17 24.5 C 20 %
2096 23-06-2019 11:03:17 25.5 C 20 %
2097 23-06-2019 11:15:17 25.1 C 20 %
2098 23-06-2019 11:27:17 25.7 C 20 %
2099 23-06-2019 11:39:17 25.9 C 20 %
2100 23-06-2019 11:51:17 26.3 C 20 %
Sensor: Nr:Datum:Temp:Feuchte:
Aussen-T/F 2101 23-06-2019 12:03:17 26.2 C 20 %
2102 23-06-2019 12:15:17 25.8 C 20 %
2103 23-06-2019 12:27:17 26.5 C 20 %
2104 23-06-2019 12:39:18 26.7 C 20 %
2105 23-06-2019 12:51:17 27.1 C 20 %
2106 23-06-2019 13:03:17 27.1 C 20 %
2107 23-06-2019 13:15:17 26.8 C 20 %
2108 23-06-2019 13:27:17 27.6 C 20 %
2109 23-06-2019 13:39:17 28.1 C 20 %
2110 23-06-2019 13:51:17 28.2 C 20 %
2111 23-06-2019 14:03:17 28.1 C 20 %
2112 23-06-2019 14:15:17 28.9 C 20 %
2113 23-06-2019 14:27:17 29.6 C 20 %
2114 23-06-2019 14:39:18 29.6 C 20 %
2115 23-06-2019 14:51:17 29 C 20 %
2116 23-06-2019 15:03:17 28.5 C 20 %
2117 23-06-2019 15:15:18 29 C 20 %
2118 23-06-2019 15:27:18 29 C 20 %
2119 23-06-2019 15:39:17 30.4 C 20 %
2120 23-06-2019 15:51:17 31.5 C 20 %
2121 23-06-2019 16:03:17 32 C 20 %
2122 23-06-2019 16:15:17 30.4 C 20 %
2123 23-06-2019 16:27:17 30.5 C 20 %
2124 23-06-2019 16:39:18 30.6 C 20 %
2125 23-06-2019 16:51:17 30.7 C 20 %
Sensor: Nr:Datum:Temp:Feuchte:
Aussen-T/F 2126 23-06-2019 17:03:17 30.1 C 20 %
2127 23-06-2019 17:15:17 30.5 C 20 %
2128 23-06-2019 17:27:17 31.5 C 20 %
2129 23-06-2019 17:39:17 31.8 C 20 %
2130 23-06-2019 17:51:17 32.2 C 20 %
2131 23-06-2019 18:03:18 31 C 20 %
2132 23-06-2019 18:15:17 31.4 C 20 %
2133 23-06-2019 18:27:17 31.1 C 20 %
2134 23-06-2019 18:39:17 30.2 C 20 %
2135 23-06-2019 18:51:18 29.9 C 20 %
2136 23-06-2019 19:03:17 29.8 C 20 %
2137 23-06-2019 19:15:17 29.1 C 20 %
2138 23-06-2019 19:27:17 29.5 C 20 %
2139 23-06-2019 19:39:17 29 C 20 %
2140 23-06-2019 19:51:17 27.5 C 20 %
2141 23-06-2019 20:03:17 26.2 C 20 %
2142 23-06-2019 20:15:18 25.8 C 20 %
2143 23-06-2019 20:27:18 25.3 C 20 %
2144 23-06-2019 20:39:17 24.8 C 20 %
2145 23-06-2019 20:51:17 24.4 C 20 %
2146 23-06-2019 21:03:18 23.9 C 20 %
2147 23-06-2019 21:15:17 23.3 C 20 %
2148 23-06-2019 21:27:17 23 C 20 %
2149 23-06-2019 21:39:17 22.6 C 20 %
2150 23-06-2019 21:51:17 22.3 C 20 %
Sensor: Nr:Datum:Temp:Feuchte:
Aussen-T/F 2151 23-06-2019 22:03:17 22 C 20 %
2152 23-06-2019 22:15:17 21.7 C 20 %
2153 23-06-2019 22:27:17 21.4 C 20 %
2154 23-06-2019 22:39:17 21.2 C 20 %
2155 23-06-2019 22:51:17 20.9 C 20 %
2156 23-06-2019 23:03:18 20.6 C 21 %
2157 23-06-2019 23:15:17 20.2 C 22 %
2158 23-06-2019 23:27:17 19.9 C 24 %
2159 23-06-2019 23:39:18 19.6 C 25 %
2160 23-06-2019 23:51:17 19.4 C 26 %
2161 24-06-2019 00:03:18 19.1 C 26 %
2162 24-06-2019 00:15:17 19 C 27 %
2163 24-06-2019 00:27:17 18.9 C 28 %
2164 24-06-2019 00:39:18 18.7 C 29 %
2165 24-06-2019 00:51:17 18.7 C 29 %
2166 24-06-2019 01:03:17 18.8 C 29 %
2167 24-06-2019 01:15:18 18.5 C 29 %
2168 24-06-2019 01:27:18 18.2 C 30 %
2169 24-06-2019 01:39:17 18 C 31 %
2170 24-06-2019 01:51:17 17.8 C 32 %
2171 24-06-2019 02:03:17 17.6 C 33 %
2172 24-06-2019 02:15:17 17.4 C 34 %
2173 24-06-2019 02:27:17 17.2 C 35 %
2174 24-06-2019 02:39:17 17.2 C 35 %
2175 24-06-2019 02:51:18 17 C 35 %
Sensor: Nr:Datum:Temp:Feuchte:
Aussen-T/F 2176 24-06-2019 03:03:17 16.9 C 36 %
2177 24-06-2019 03:15:17 16.8 C 37 %
2178 24-06-2019 03:27:17 16.7 C 37 %
2179 24-06-2019 03:39:17 16.6 C 38 %
2180 24-06-2019 03:51:17 16.6 C 38 %
2181 24-06-2019 04:03:17 16.5 C 39 %
2182 24-06-2019 04:15:17 16.4 C 39 %
2183 24-06-2019 04:27:18 16.4 C 39 %
2184 24-06-2019 04:39:17 16.2 C 40 %
2185 24-06-2019 04:51:17 16.2 C 40 %
2186 24-06-2019 05:03:17 16.1 C 41 %
2187 24-06-2019 05:15:17 16.1 C 41 %
2188 24-06-2019 05:27:17 16.4 C 42 %
2189 24-06-2019 05:39:17 16.4 C 41 %
2190 24-06-2019 05:51:18 16.4 C 41 %
2191 24-06-2019 06:03:17 16.4 C 41 %
2192 24-06-2019 06:15:17 16.6 C 41 %
2193 24-06-2019 06:27:17 16.7 C 41 %
2194 24-06-2019 06:39:18 16.9 C 41 %
2195 24-06-2019 06:51:17 16.9 C 41 %
2196 24-06-2019 07:03:17 17.2 C 41 %
2197 24-06-2019 07:15:18 17.4 C 41 %
2198 24-06-2019 07:27:18 17.7 C 40 %
2199 24-06-2019 07:39:17 17.8 C 40 %
2200 24-06-2019 07:51:17 18.1 C 39 %
Sensor: Nr:Datum:Temp:Feuchte:
Aussen-T/F 2201 24-06-2019 08:03:17 18.3 C 38 %
2202 24-06-2019 08:15:17 18.5 C 37 %
2203 24-06-2019 08:27:17 19 C 37 %
2204 24-06-2019 08:39:17 19.6 C 35 %
2205 24-06-2019 08:51:17 20.6 C 30 %
2206 24-06-2019 09:03:17 20.9 C 29 %
2207 24-06-2019 09:15:17 22.7 C 23 %
2208 24-06-2019 09:27:17 25 C 20 %
2209 24-06-2019 09:39:17 28.5 C 20 %
2210 24-06-2019 09:51:17 30.6 C 20 %
2211 24-06-2019 10:03:18 27.4 C 20 %
2212 24-06-2019 10:15:17 26.4 C 20 %
2213 24-06-2019 10:27:17 27.1 C 20 %
2214 24-06-2019 10:39:18 28.3 C 20 %
2215 24-06-2019 10:51:17 27.7 C 20 %
2216 24-06-2019 11:03:17 28.3 C 20 %
2217 24-06-2019 11:15:17 28.7 C 20 %
2218 24-06-2019 11:27:17 28.7 C 20 %
2219 24-06-2019 11:39:17 29.2 C 20 %
2220 24-06-2019 11:51:17 30.3 C 20 %
2221 24-06-2019 12:03:17 29.8 C 20 %
2222 24-06-2019 12:15:18 29.6 C 20 %
2223 24-06-2019 12:27:18 29.9 C 20 %
2224 24-06-2019 12:39:17 28.9 C 20 %
2225 24-06-2019 12:51:17 29.4 C 20 %
Sensor: Nr:Datum:Temp:Feuchte:
Aussen-T/F 2226 24-06-2019 13:03:17 29.6 C 20 %
2227 24-06-2019 13:15:17 29.7 C 20 %
2228 24-06-2019 13:27:17 30.1 C 20 %
2229 24-06-2019 13:39:18 30.1 C 20 %
2230 24-06-2019 13:51:17 30.2 C 20 %
2231 24-06-2019 14:03:17 30.7 C 20 %
2232 24-06-2019 14:15:17 31.2 C 20 %
2233 24-06-2019 14:27:17 31.8 C 20 %
2234 24-06-2019 14:39:17 32.1 C 20 %
2235 24-06-2019 14:51:18 32.5 C 20 %
2236 24-06-2019 15:03:17 32.1 C 20 %
2237 24-06-2019 15:15:17 32.4 C 20 %
2238 24-06-2019 15:27:17 32.3 C 20 %
2239 24-06-2019 15:39:17 32.9 C 20 %
2240 24-06-2019 15:51:17 33 C 20 %
2241 24-06-2019 16:03:18 33.6 C 20 %
2242 24-06-2019 16:15:17 33.6 C 20 %
2243 24-06-2019 16:27:17 33.4 C 20 %
2244 24-06-2019 16:39:17 32.1 C 20 %
2245 24-06-2019 16:51:17 33.2 C 20 %
2246 24-06-2019 17:03:18 32.8 C 20 %
2247 24-06-2019 17:15:17 33.1 C 20 %
2248 24-06-2019 17:27:17 33.7 C 20 %
2249 24-06-2019 17:39:18 33.3 C 20 %
2250 24-06-2019 17:51:17 33.7 C 20 %
Sensor: Nr:Datum:Temp:Feuchte:
Aussen-T/F 2251 24-06-2019 18:03:17 33.6 C 20 %
2252 24-06-2019 18:15:17 33.5 C 20 %
2253 24-06-2019 18:27:17 33.8 C 20 %
2254 24-06-2019 18:39:18 33.4 C 20 %
2255 24-06-2019 18:51:17 33.2 C 20 %
2256 24-06-2019 19:03:17 33.4 C 20 %
2257 24-06-2019 19:15:17 33.7 C 20 %
2258 24-06-2019 19:27:17 32.2 C 20 %
2259 24-06-2019 19:39:18 31.8 C 20 %
2260 24-06-2019 19:51:17 31.5 C 20 %
2261 24-06-2019 20:03:17 31.3 C 20 %
2262 24-06-2019 20:15:18 31.1 C 20 %
2263 24-06-2019 20:27:18 30.7 C 20 %
2264 24-06-2019 20:39:17 30.9 C 20 %
2265 24-06-2019 20:51:17 29.9 C 20 %
2266 24-06-2019 21:03:18 28.4 C 20 %
2267 24-06-2019 21:15:17 27 C 20 %
2268 24-06-2019 21:27:17 25.8 C 20 %
2269 24-06-2019 21:39:17 25.3 C 20 %
2270 24-06-2019 21:51:17 24.8 C 20 %
2271 24-06-2019 22:03:17 24.5 C 20 %
2272 24-06-2019 22:15:17 24.1 C 20 %
2273 24-06-2019 22:27:17 23.8 C 20 %
2274 24-06-2019 22:39:18 23.5 C 20 %
2275 24-06-2019 22:51:17 23.3 C 20 %
Sensor: Nr:Datum:Temp:Feuchte:
Aussen-T/F 2276 24-06-2019 23:03:17 23 C 20 %
2277 24-06-2019 23:15:17 23 C 20 %
2278 24-06-2019 23:27:17 22.9 C 20 %
2279 24-06-2019 23:39:18 22.6 C 20 %
2280 24-06-2019 23:51:17 22.3 C 20 %
2281 25-06-2019 00:03:17 21.7 C 20 %
2282 25-06-2019 00:15:17 21.4 C 21 %
2283 25-06-2019 00:27:17 21.3 C 22 %
2284 25-06-2019 00:39:17 21.1 C 22 %
2285 25-06-2019 00:51:17 20.8 C 25 %
2286 25-06-2019 01:03:17 20.9 C 25 %
2287 25-06-2019 01:15:17 20.7 C 25 %
2288 25-06-2019 01:27:17 20.5 C 25 %
2289 25-06-2019 01:39:17 20 C 26 %
2290 25-06-2019 01:51:17 19.8 C 27 %
2291 25-06-2019 02:03:17 19.6 C 28 %
2292 25-06-2019 02:15:17 19.4 C 29 %
2293 25-06-2019 02:27:17 19.3 C 30 %
2294 25-06-2019 02:39:17 19.1 C 30 %
2295 25-06-2019 02:51:17 18.8 C 31 %
2296 25-06-2019 03:03:17 18.5 C 32 %
2297 25-06-2019 03:15:17 18.4 C 32 %
2298 25-06-2019 03:27:17 18.2 C 32 %
2299 25-06-2019 03:39:17 18 C 33 %
2300 25-06-2019 03:51:17 17.9 C 34 %
Sensor: Nr:Datum:Temp:Feuchte:
Aussen-T/F 2301 25-06-2019 04:03:18 17.8 C 35 %
2302 25-06-2019 04:15:17 17.7 C 36 %
2303 25-06-2019 04:27:17 17.7 C 36 %
2304 25-06-2019 04:39:17 17.5 C 36 %
2305 25-06-2019 04:51:17 17.5 C 37 %
2306 25-06-2019 05:03:18 17.6 C 37 %
2307 25-06-2019 05:15:17 17.4 C 37 %
2308 25-06-2019 05:27:17 17.3 C 37 %
2309 25-06-2019 05:39:17 17.3 C 38 %
2310 25-06-2019 05:51:17 17.4 C 38 %
2311 25-06-2019 06:03:17 17.5 C 39 %
2312 25-06-2019 06:15:17 17.9 C 39 %
2313 25-06-2019 06:27:17 17.9 C 38 %
2314 25-06-2019 06:39:17 18 C 37 %
2315 25-06-2019 06:51:17 18 C 37 %
2316 25-06-2019 07:03:18 18.1 C 38 %
2317 25-06-2019 07:15:17 18.4 C 38 %
2318 25-06-2019 07:27:17 18.6 C 37 %
2319 25-06-2019 07:39:17 18.9 C 37 %
2320 25-06-2019 07:51:18 19.3 C 35 %
2321 25-06-2019 08:03:18 19.7 C 35 %
2322 25-06-2019 08:15:18 20.3 C 33 %
2323 25-06-2019 08:27:18 20.8 C 31 %
2324 25-06-2019 08:39:17 21.9 C 28 %
2325 25-06-2019 08:51:18 22.4 C 25 %
Sensor: Nr:Datum:Temp:Feuchte:
Aussen-T/F 2326 25-06-2019 09:03:17 22.9 C 23 %
2327 25-06-2019 09:15:18 23.7 C 21 %
2328 25-06-2019 09:27:18 26.1 C 20 %
2329 25-06-2019 09:39:18 29.8 C 20 %
2330 25-06-2019 09:51:18 30.2 C 20 %
2331 25-06-2019 10:03:18 28.2 C 20 %
2332 25-06-2019 10:15:17 27.5 C 20 %
2333 25-06-2019 10:27:17 28 C 20 %
2334 25-06-2019 10:39:17 28.4 C 20 %
2335 25-06-2019 10:51:17 28.7 C 20 %
2336 25-06-2019 11:03:18 28.3 C 20 %
2337 25-06-2019 11:15:17 29.5 C 20 %
2338 25-06-2019 11:27:17 29.8 C 20 %
2339 25-06-2019 11:39:17 30.3 C 20 %
2340 25-06-2019 11:51:18 32 C 20 %
2341 25-06-2019 12:03:17 31.7 C 20 %
2342 25-06-2019 12:15:17 30.5 C 20 %
2343 25-06-2019 12:27:17 31.7 C 20 %
2344 25-06-2019 12:39:17 31.1 C 20 %
2345 25-06-2019 12:51:17 30.8 C 20 %
2346 25-06-2019 13:03:18 31.4 C 20 %
2347 25-06-2019 13:15:18 32.1 C 20 %
2348 25-06-2019 13:27:18 32.1 C 20 %
2349 25-06-2019 13:39:18 32.4 C 20 %
2350 25-06-2019 13:51:18 32.7 C 20 %
Sensor: Nr:Datum:Temp:Feuchte:
Aussen-T/F 2351 25-06-2019 14:03:18 33.3 C 20 %
2352 25-06-2019 14:15:18 33.9 C 20 %
2353 25-06-2019 14:27:18 34.3 C 20 %
2354 25-06-2019 14:39:18 35 C 20 %
2355 25-06-2019 14:51:18 35.5 C 20 %
2356 25-06-2019 15:03:18 36 C 20 %
2357 25-06-2019 15:15:17 36.5 C 20 %
2358 25-06-2019 15:27:17 36.5 C 20 %
2359 25-06-2019 15:39:18 36.7 C 20 %
2360 25-06-2019 15:51:18 36.9 C 20 %
2361 25-06-2019 16:03:18 37.2 C 20 %
2362 25-06-2019 16:15:18 36.8 C 20 %
2363 25-06-2019 16:27:18 37.5 C 20 %
2364 25-06-2019 16:39:18 36.9 C 20 %
2365 25-06-2019 16:51:17 37.6 C 20 %
2366 25-06-2019 17:03:17 38.2 C 20 %
2367 25-06-2019 17:15:17 38.3 C 20 %
2368 25-06-2019 17:27:17 38.3 C 20 %
2369 25-06-2019 17:39:17 38.7 C 20 %
2370 25-06-2019 17:51:18 38.5 C 20 %
2371 25-06-2019 18:03:18 38.5 C 20 %
2372 25-06-2019 18:15:17 38.5 C 20 %
2373 25-06-2019 18:27:17 38.2 C 20 %
2374 25-06-2019 18:39:17 36.3 C 20 %
2375 25-06-2019 18:51:17 34 C 20 %
Sensor: Nr:Datum:Temp:Feuchte:
Aussen-T/F 2376 25-06-2019 19:03:18 33.1 C 20 %
2377 25-06-2019 19:15:17 33.7 C 20 %
2378 25-06-2019 19:27:17 34 C 20 %
2379 25-06-2019 19:39:18 34.2 C 20 %
2380 25-06-2019 19:51:17 33.8 C 20 %
2381 25-06-2019 20:03:17 33 C 20 %
2382 25-06-2019 20:15:17 31.7 C 20 %
2383 25-06-2019 20:27:17 30.3 C 20 %
2384 25-06-2019 20:39:17 29.5 C 20 %
2385 25-06-2019 20:51:18 29.1 C 20 %
2386 25-06-2019 21:03:18 28.5 C 20 %
2387 25-06-2019 21:15:18 27.7 C 20 %
2388 25-06-2019 21:27:18 27.1 C 20 %
2389 25-06-2019 21:39:18 26.5 C 20 %
2390 25-06-2019 21:51:17 26.1 C 20 %
2391 25-06-2019 22:03:17 25.7 C 20 %
2392 25-06-2019 22:15:17 25.4 C 20 %
2393 25-06-2019 22:27:17 25.1 C 20 %
2394 25-06-2019 22:39:17 24.9 C 20 %
2395 25-06-2019 22:51:18 24.6 C 20 %
2396 25-06-2019 23:03:18 24 C 20 %
2397 25-06-2019 23:15:18 23.8 C 20 %
2398 25-06-2019 23:27:18 24 C 20 %
2399 25-06-2019 23:39:18 24 C 20 %
2400 25-06-2019 23:51:17 23.9 C 20 %
Sensor: Nr:Datum:Temp:Feuchte:
Aussen-T/F 2401 26-06-2019 00:03:18 23.5 C 20 %
2402 26-06-2019 00:15:17 23.2 C 20 %
2403 26-06-2019 00:27:17 23.1 C 20 %
2404 26-06-2019 00:39:18 22.8 C 20 %
2405 26-06-2019 00:51:18 22.8 C 20 %
2406 26-06-2019 01:03:18 22.9 C 20 %
2407 26-06-2019 01:15:18 22.7 C 20 %
2408 26-06-2019 01:27:18 22 C 20 %
2409 26-06-2019 01:39:18 21.7 C 22 %
2410 26-06-2019 01:51:17 21.8 C 22 %
2411 26-06-2019 02:03:17 21.7 C 23 %
2412 26-06-2019 02:15:17 21.1 C 25 %
2413 26-06-2019 02:27:17 21 C 25 %
2414 26-06-2019 02:39:17 20.8 C 26 %
2415 26-06-2019 02:51:17 21.1 C 25 %
2416 26-06-2019 03:03:17 20.9 C 26 %
2417 26-06-2019 03:15:18 20.9 C 27 %
2418 26-06-2019 03:27:18 20.8 C 27 %
2419 26-06-2019 03:39:17 20.4 C 28 %
2420 26-06-2019 03:51:18 20.3 C 29 %
2421 26-06-2019 04:03:18 20 C 29 %
2422 26-06-2019 04:15:18 19.8 C 31 %
2423 26-06-2019 04:27:18 19.7 C 31 %
2424 26-06-2019 04:39:18 19.5 C 32 %
2425 26-06-2019 04:51:17 19.4 C 33 %
Sensor: Nr:Datum:Temp:Feuchte:
Aussen-T/F 2426 26-06-2019 05:03:17 19.5 C 33 %
2427 26-06-2019 05:15:17 19.8 C 32 %
2428 26-06-2019 05:27:17 19.7 C 32 %
2429 26-06-2019 05:39:17 19.5 C 33 %
2430 26-06-2019 05:51:18 19.6 C 34 %
2431 26-06-2019 06:03:17 19.6 C 34 %
2432 26-06-2019 06:15:17 19.7 C 34 %
2433 26-06-2019 06:27:17 19.9 C 34 %
2434 26-06-2019 06:39:17 20 C 33 %
2435 26-06-2019 06:51:18 20.1 C 33 %
2436 26-06-2019 07:03:18 20.4 C 32 %
2437 26-06-2019 07:15:18 20.5 C 32 %
2438 26-06-2019 07:27:18 20.7 C 32 %
2439 26-06-2019 07:39:18 20.9 C 33 %
2440 26-06-2019 07:51:17 21.2 C 33 %
2441 26-06-2019 08:03:18 21.6 C 33 %
2442 26-06-2019 08:15:17 22.2 C 30 %
2443 26-06-2019 08:27:17 22.6 C 28 %
2444 26-06-2019 08:39:17 23.5 C 29 %
2445 26-06-2019 08:51:19 24.4 C 25 %
2446 26-06-2019 09:03:19 24.6 C 26 %
2447 26-06-2019 09:15:19 25.3 C 24 %
2448 26-06-2019 09:27:19 27.5 C 20 %
2449 26-06-2019 09:39:19 29.8 C 20 %
2450 26-06-2019 09:51:18 30.5 C 20 %
Sensor: Nr:Datum:Temp:Feuchte:
Aussen-T/F 2451 26-06-2019 10:03:17 29.1 C 20 %
2452 26-06-2019 10:15:18 28.4 C 20 %
2453 26-06-2019 10:27:18 28.9 C 20 %
2454 26-06-2019 10:39:18 29.5 C 20 %
2455 26-06-2019 10:51:18 29.5 C 20 %
2456 26-06-2019 11:03:17 29.9 C 20 %
2457 26-06-2019 11:15:17 30.3 C 20 %
2458 26-06-2019 11:27:17 31 C 20 %
2459 26-06-2019 11:39:17 31.1 C 20 %
2460 26-06-2019 11:51:17 32.3 C 20 %
2461 26-06-2019 12:03:17 32.4 C 20 %
2462 26-06-2019 12:15:17 31.8 C 20 %
2463 26-06-2019 12:27:17 32.7 C 20 %
2464 26-06-2019 12:39:17 31.8 C 20 %
2465 26-06-2019 12:51:18 32.1 C 20 %
2466 26-06-2019 13:03:17 32.3 C 20 %
2467 26-06-2019 13:15:17 32.5 C 20 %
2468 26-06-2019 13:27:17 32.9 C 20 %
2469 26-06-2019 13:39:17 32.8 C 20 %
2470 26-06-2019 13:51:17 33.3 C 20 %
2471 26-06-2019 14:03:17 33.7 C 20 %
2472 26-06-2019 14:15:17 34 C 20 %
2473 26-06-2019 14:27:17 34.3 C 20 %
2474 26-06-2019 14:39:17 34.6 C 20 %
2475 26-06-2019 14:51:17 34.7 C 20 %
Sensor: Nr:Datum:Temp:Feuchte:
Aussen-T/F 2476 26-06-2019 15:03:17 34.8 C 20 %
2477 26-06-2019 15:15:17 35 C 20 %
2478 26-06-2019 15:27:17 35.3 C 20 %
2479 26-06-2019 15:39:17 35.3 C 20 %
2480 26-06-2019 15:51:17 35.2 C 20 %
2481 26-06-2019 16:03:17 35.8 C 20 %
2482 26-06-2019 16:15:17 35.5 C 20 %
2483 26-06-2019 16:27:17 35.3 C 20 %
2484 26-06-2019 16:39:17 34.7 C 20 %
2485 26-06-2019 16:51:18 35.1 C 20 %
2486 26-06-2019 17:03:18 35.9 C 20 %
2487 26-06-2019 17:15:17 35.5 C 20 %
2488 26-06-2019 17:27:17 35.4 C 20 %
2489 26-06-2019 17:39:17 35.1 C 20 %
2490 26-06-2019 17:51:18 35 C 20 %
2491 26-06-2019 18:03:18 35.4 C 20 %
2492 26-06-2019 18:15:17 35.3 C 20 %
2493 26-06-2019 18:27:17 34.7 C 20 %
2494 26-06-2019 18:39:17 34.2 C 20 %
2495 26-06-2019 18:51:17 34.4 C 20 %
2496 26-06-2019 19:03:18 34.7 C 20 %
2497 26-06-2019 19:15:17 34.2 C 20 %
2498 26-06-2019 19:27:17 33.4 C 20 %
2499 26-06-2019 19:39:17 32.8 C 20 %
2500 26-06-2019 19:51:18 32.6 C 20 %
Sensor: Nr:Datum:Temp:Feuchte:
Aussen-T/F 2501 26-06-2019 20:03:18 32.4 C 20 %
2502 26-06-2019 20:15:17 32 C 20 %
2503 26-06-2019 20:27:17 31.2 C 20 %
2504 26-06-2019 20:39:17 30.9 C 20 %
2505 26-06-2019 20:51:18 30.4 C 20 %
2506 26-06-2019 21:03:17 29.9 C 20 %
2507 26-06-2019 21:15:17 29.2 C 20 %
2508 26-06-2019 21:27:17 28.3 C 20 %
2509 26-06-2019 21:39:17 28.2 C 20 %
2510 26-06-2019 21:51:18 27.5 C 20 %
2511 26-06-2019 22:03:18 27 C 20 %
2512 26-06-2019 22:15:17 26.4 C 20 %
2513 26-06-2019 22:27:17 26.2 C 20 %
2514 26-06-2019 22:39:18 25.9 C 20 %
2515 26-06-2019 22:51:18 26.3 C 20 %
2516 26-06-2019 23:03:18 25.6 C 20 %
2517 26-06-2019 23:15:18 26.7 C 20 %
2518 26-06-2019 23:27:18 26.2 C 20 %
2519 26-06-2019 23:39:17 26.2 C 20 %
2520 26-06-2019 23:51:17 26.2 C 20 %
2521 27-06-2019 00:03:18 25.9 C 20 %
2522 27-06-2019 00:15:17 25.5 C 20 %
2523 27-06-2019 00:27:17 25.2 C 20 %
2524 27-06-2019 00:39:18 24.9 C 20 %
2525 27-06-2019 00:51:18 24.8 C 20 %
Sensor: Nr:Datum:Temp:Feuchte:
Aussen-T/F 2526 27-06-2019 01:03:18 24.8 C 20 %
2527 27-06-2019 01:15:17 24.1 C 20 %
2528 27-06-2019 01:27:17 24.1 C 21 %
2529 27-06-2019 01:39:17 24.1 C 20 %
2530 27-06-2019 01:51:17 24 C 20 %
2531 27-06-2019 02:03:18 23.6 C 22 %
2532 27-06-2019 02:15:17 23.4 C 23 %
2533 27-06-2019 02:27:17 23.2 C 23 %
2534 27-06-2019 02:39:17 23.2 C 23 %
2535 27-06-2019 02:51:17 23.4 C 20 %
2536 27-06-2019 03:03:17 23 C 21 %
2537 27-06-2019 03:15:17 22.5 C 23 %
2538 27-06-2019 03:27:17 22.5 C 22 %
2539 27-06-2019 03:39:17 22.6 C 20 %
2540 27-06-2019 03:51:17 22.2 C 21 %
2541 27-06-2019 04:03:17 22.2 C 20 %
2542 27-06-2019 04:15:17 22.1 C 20 %
2543 27-06-2019 04:27:17 22 C 20 %
2544 27-06-2019 04:39:17 21.7 C 20 %
2545 27-06-2019 04:51:17 21.4 C 21 %
2546 27-06-2019 05:03:17 20.6 C 25 %
2547 27-06-2019 05:15:17 20.1 C 27 %
2548 27-06-2019 05:27:17 20.5 C 25 %
2549 27-06-2019 05:39:17 20.8 C 22 %
2550 27-06-2019 05:51:18 20.7 C 23 %
Sensor: Nr:Datum:Temp:Feuchte:
Aussen-T/F 2551 27-06-2019 06:03:18 20.5 C 23 %
2552 27-06-2019 06:15:17 20.5 C 23 %
2553 27-06-2019 06:27:17 20.1 C 25 %
2554 27-06-2019 06:39:18 19.9 C 27 %
2555 27-06-2019 06:51:17 19.9 C 27 %
2556 27-06-2019 07:03:18 20.2 C 24 %
2557 27-06-2019 07:15:17 20.5 C 22 %
2558 27-06-2019 07:27:17 20.6 C 20 %
2559 27-06-2019 07:39:17 20.8 C 20 %
2560 27-06-2019 07:51:17 20.9 C 20 %
2561 27-06-2019 08:03:17 21 C 20 %
2562 27-06-2019 08:15:17 21.2 C 20 %
2563 27-06-2019 08:27:17 21.3 C 20 %
2564 27-06-2019 08:39:17 21.6 C 20 %
2565 27-06-2019 08:51:17 22.1 C 20 %
2566 27-06-2019 09:03:17 22.4 C 20 %
2567 27-06-2019 09:15:17 23 C 20 %
2568 27-06-2019 09:27:17 24 C 20 %
2569 27-06-2019 09:39:17 26.2 C 20 %
2570 27-06-2019 09:51:17 27.1 C 20 %
2571 27-06-2019 10:03:17 25.4 C 20 %
2572 27-06-2019 10:15:17 24.1 C 20 %
2573 27-06-2019 10:27:17 24.5 C 20 %
2574 27-06-2019 10:39:18 25 C 20 %
2575 27-06-2019 10:51:17 25.1 C 20 %
Sensor: Nr:Datum:Temp:Feuchte:
Aussen-T/F 2576 27-06-2019 11:03:17 25.8 C 20 %
2577 27-06-2019 11:15:18 26.1 C 20 %
2578 27-06-2019 11:27:18 26.2 C 20 %
2579 27-06-2019 11:39:17 26.8 C 20 %
2580 27-06-2019 11:51:17 27.4 C 20 %
2581 27-06-2019 12:03:18 27.5 C 20 %
2582 27-06-2019 12:15:17 27.1 C 20 %
2583 27-06-2019 12:27:17 27.6 C 20 %
2584 27-06-2019 12:39:18 26.2 C 20 %
2585 27-06-2019 12:51:17 26.5 C 20 %
2586 27-06-2019 13:03:18 26.8 C 20 %
2587 27-06-2019 13:15:17 27 C 20 %
2588 27-06-2019 13:27:17 26.9 C 20 %
2589 27-06-2019 13:39:17 27.4 C 20 %
2590 27-06-2019 13:51:18 27.8 C 20 %
2591 27-06-2019 14:03:18 27.9 C 20 %
2592 27-06-2019 14:16:17 28.3 C 20 %
2593 27-06-2019 14:27:17 28.8 C 20 %
2594 27-06-2019 14:39:17 29.7 C 20 %
2595 27-06-2019 14:51:18 29.2 C 20 %
2596 27-06-2019 15:03:18 29.3 C 20 %
2597 27-06-2019 15:16:17 30.1 C 20 %
2598 27-06-2019 15:28:17 30.4 C 20 %
2599 27-06-2019 15:39:17 29.9 C 20 %
2600 27-06-2019 15:52:17 30.2 C 20 %
Sensor: Nr:Datum:Temp:Feuchte:
Aussen-T/F 2601 27-06-2019 16:03:17 30.9 C 20 %
2602 27-06-2019 16:15:17 30.4 C 20 %
2603 27-06-2019 16:27:17 30.9 C 20 %
2604 27-06-2019 16:39:17 31.4 C 20 %
2605 27-06-2019 16:51:17 30.6 C 20 %
2606 27-06-2019 17:03:18 31.3 C 20 %
2607 27-06-2019 17:16:17 31.5 C 20 %
2608 27-06-2019 17:28:17 31.4 C 20 %
2609 27-06-2019 17:40:17 31.3 C 20 %
2610 27-06-2019 17:52:17 32.1 C 20 %
2611 27-06-2019 18:04:17 31.8 C 20 %
2612 27-06-2019 18:16:17 30.8 C 20 %
2613 27-06-2019 18:28:17 30.5 C 20 %
2614 27-06-2019 18:39:18 30.7 C 20 %
2615 27-06-2019 18:51:18 30.8 C 20 %
2616 27-06-2019 19:03:18 31 C 20 %
2617 27-06-2019 19:15:18 31.2 C 20 %
2618 27-06-2019 19:27:18 29.7 C 20 %
2619 27-06-2019 19:40:17 28.8 C 20 %
2620 27-06-2019 19:51:18 28.8 C 20 %
2621 27-06-2019 20:04:17 28.3 C 20 %
2622 27-06-2019 20:16:17 28.2 C 20 %
2623 27-06-2019 20:28:17 27.2 C 20 %
2624 27-06-2019 20:40:17 26.8 C 20 %
2625 27-06-2019 20:52:17 26.2 C 20 %
Sensor: Nr:Datum:Temp:Feuchte:
Aussen-T/F 2626 27-06-2019 21:04:17 25.9 C 20 %
2627 27-06-2019 21:16:17 25.3 C 20 %
2628 27-06-2019 21:28:17 24.4 C 20 %
2629 27-06-2019 21:40:17 23.1 C 20 %
2630 27-06-2019 21:51:18 22.2 C 20 %
2631 27-06-2019 22:04:17 21.9 C 20 %
2632 27-06-2019 22:16:17 21.6 C 20 %
2633 27-06-2019 22:28:17 21.3 C 20 %
2634 27-06-2019 22:40:17 20.6 C 20 %
2635 27-06-2019 22:51:18 20.2 C 20 %
2636 27-06-2019 23:04:17 20.4 C 20 %
2637 27-06-2019 23:15:18 20.3 C 20 %
2638 27-06-2019 23:27:18 20 C 20 %
2639 27-06-2019 23:40:17 19.7 C 20 %
2640 27-06-2019 23:52:17 19.3 C 20 %
2641 28-06-2019 00:04:17 19 C 20 %
2642 28-06-2019 00:16:17 18.9 C 20 %
2643 28-06-2019 00:28:17 18.7 C 20 %
2644 28-06-2019 00:40:17 18.2 C 20 %
2645 28-06-2019 00:52:17 17.9 C 20 %
2646 28-06-2019 01:04:17 17.7 C 20 %
2647 28-06-2019 01:16:17 17.5 C 20 %
2648 28-06-2019 01:28:17 17.3 C 20 %
2649 28-06-2019 01:40:17 16.9 C 20 %
2650 28-06-2019 01:51:18 16.7 C 20 %
Sensor: Nr:Datum:Temp:Feuchte:
Aussen-T/F 2651 28-06-2019 02:03:18 16.7 C 20 %
2652 28-06-2019 02:16:17 16.4 C 20 %
2653 28-06-2019 02:28:17 16.3 C 20 %
2654 28-06-2019 02:40:17 16.4 C 23 %
2655 28-06-2019 02:52:17 16.2 C 25 %
2656 28-06-2019 03:04:18 15.9 C 25 %
2657 28-06-2019 03:16:17 15.8 C 25 %
2658 28-06-2019 03:28:17 15.6 C 26 %
2659 28-06-2019 03:40:17 15.5 C 28 %
2660 28-06-2019 03:52:17 14.9 C 29 %
2661 28-06-2019 04:04:17 14.7 C 30 %
2662 28-06-2019 04:16:17 14.5 C 32 %
2663 28-06-2019 04:28:17 14.4 C 33 %
2664 28-06-2019 04:40:17 14.2 C 35 %
2665 28-06-2019 04:52:17 14.1 C 35 %
2666 28-06-2019 05:04:18 13.8 C 36 %
2667 28-06-2019 05:16:17 13.7 C 37 %
2668 28-06-2019 05:28:17 13.7 C 38 %
2669 28-06-2019 05:40:17 13.6 C 38 %
2670 28-06-2019 05:52:17 13.6 C 38 %
2671 28-06-2019 06:04:18 13.7 C 39 %
2672 28-06-2019 06:16:17 13.7 C 40 %
2673 28-06-2019 06:28:17 13.8 C 40 %
2674 28-06-2019 06:40:18 13.8 C 40 %
2675 28-06-2019 06:52:18 14 C 39 %
Sensor: Nr:Datum:Temp:Feuchte:
Aussen-T/F 2676 28-06-2019 07:04:18 14.1 C 39 %
2677 28-06-2019 07:16:18 14.2 C 39 %
2678 28-06-2019 07:28:18 14.2 C 37 %
2679 28-06-2019 07:40:17 14.4 C 37 %
2680 28-06-2019 07:52:17 14.6 C 37 %
2681 28-06-2019 08:04:17 14.9 C 36 %
2682 28-06-2019 08:16:17 15.4 C 33 %
2683 28-06-2019 08:28:17 16.5 C 23 %
2684 28-06-2019 08:40:17 17.5 C 20 %
2685 28-06-2019 08:52:18 17.6 C 20 %
2686 28-06-2019 09:04:18 18.4 C 20 %
2687 28-06-2019 09:16:17 19.7 C 20 %
2688 28-06-2019 09:28:17 20.5 C 20 %
2689 28-06-2019 09:40:17 24 C 20 %
2690 28-06-2019 09:52:17 26.5 C 20 %
2691 28-06-2019 10:04:17 23.6 C 20 %
2692 28-06-2019 10:16:17 21.6 C 20 %
2693 28-06-2019 10:28:17 22 C 20 %
2694 28-06-2019 10:40:18 22.7 C 20 %
2695 28-06-2019 10:52:17 22.5 C 20 %
2696 28-06-2019 11:04:17 23.3 C 20 %
2697 28-06-2019 11:16:17 23.5 C 20 %
2698 28-06-2019 11:28:17 24.1 C 20 %
2699 28-06-2019 11:40:17 24.3 C 20 %
2700 28-06-2019 11:52:17 25.4 C 20 %
Sensor: Nr:Datum:Temp:Feuchte:
Aussen-T/F 2701 28-06-2019 12:04:17 25.8 C 20 %
2702 28-06-2019 12:16:17 24.4 C 20 %
2703 28-06-2019 12:28:17 26.1 C 20 %
2704 28-06-2019 12:40:17 24.4 C 20 %
2705 28-06-2019 12:52:16 24.6 C 20 %
2706 28-06-2019 13:04:17 24.8 C 20 %
2707 28-06-2019 13:16:17 25.4 C 20 %
2708 28-06-2019 13:28:17 26 C 20 %
2709 28-06-2019 13:40:16 26.1 C 20 %
2710 28-06-2019 13:52:16 26.8 C 20 %
2711 28-06-2019 14:04:16 26.8 C 20 %
2712 28-06-2019 14:16:16 27.6 C 20 %
2713 28-06-2019 14:28:16 28.4 C 20 %
2714 28-06-2019 14:40:17 29 C 20 %
2715 28-06-2019 14:52:16 29.1 C 20 %
2716 28-06-2019 15:04:17 29.6 C 20 %
2717 28-06-2019 15:16:17 29.8 C 20 %
2718 28-06-2019 15:28:17 30 C 20 %
2719 28-06-2019 15:40:17 30.1 C 20 %
2720 28-06-2019 15:52:16 30.5 C 20 %
2721 28-06-2019 16:04:16 31.1 C 20 %
2722 28-06-2019 16:16:16 30.7 C 20 %
2723 28-06-2019 16:28:16 31.2 C 20 %
2724 28-06-2019 16:40:16 31.1 C 20 %
2725 28-06-2019 16:52:16 31.4 C 20 %
Sensor: Nr:Datum:Temp:Feuchte:
Aussen-T/F 2726 28-06-2019 17:04:16 31.2 C 20 %
2727 28-06-2019 17:16:16 32.3 C 20 %
2728 28-06-2019 17:28:16 32.4 C 20 %
2729 28-06-2019 17:40:16 32.1 C 20 %
2730 28-06-2019 17:52:17 32.8 C 20 %
2731 28-06-2019 18:04:17 33.1 C 20 %
2732 28-06-2019 18:16:16 33 C 20 %
2733 28-06-2019 18:28:16 32.2 C 20 %
2734 28-06-2019 18:40:17 33 C 20 %
2735 28-06-2019 18:52:17 32.9 C 20 %
2736 28-06-2019 19:04:17 32.4 C 20 %
2737 28-06-2019 19:16:17 32.1 C 20 %
2738 28-06-2019 19:28:17 31.8 C 20 %
2739 28-06-2019 19:40:16 31.3 C 20 %
2740 28-06-2019 19:52:17 30.5 C 20 %
2741 28-06-2019 20:04:17 29.7 C 20 %
2742 28-06-2019 20:16:17 29.4 C 20 %
2743 28-06-2019 20:28:17 28.5 C 20 %
2744 28-06-2019 20:40:17 28.2 C 20 %
2745 28-06-2019 20:52:17 27.5 C 20 %
2746 28-06-2019 21:04:17 26.7 C 20 %
2747 28-06-2019 21:16:16 25.4 C 20 %
2748 28-06-2019 21:28:16 24 C 20 %
2749 28-06-2019 21:40:16 23.1 C 20 %
2750 28-06-2019 21:52:17 22.5 C 20 %
Sensor: Nr:Datum:Temp:Feuchte:
Aussen-T/F 2751 28-06-2019 22:04:17 22.1 C 20 %
2752 28-06-2019 22:16:16 21.6 C 20 %
2753 28-06-2019 22:28:16 21 C 20 %
2754 28-06-2019 22:40:16 20.6 C 20 %
2755 28-06-2019 22:52:17 20.2 C 20 %
2756 28-06-2019 23:04:17 19.7 C 20 %
2757 28-06-2019 23:16:17 19.5 C 20 %
2758 28-06-2019 23:28:17 19.2 C 20 %
2759 28-06-2019 23:40:17 19 C 20 %
2760 28-06-2019 23:52:16 18.7 C 20 %
2761 29-06-2019 00:04:16 18.7 C 20 %
2762 29-06-2019 00:16:16 18.6 C 20 %
2763 29-06-2019 00:28:16 18.3 C 20 %
2764 29-06-2019 00:40:16 18.1 C 20 %
2765 29-06-2019 00:52:16 18 C 20 %
2766 29-06-2019 01:04:17 17.9 C 20 %
2767 29-06-2019 01:16:16 17.8 C 20 %
2768 29-06-2019 01:28:16 17.7 C 20 %
2769 29-06-2019 01:40:17 17.6 C 20 %
2770 29-06-2019 01:52:16 17.4 C 20 %
2771 29-06-2019 02:04:16 17.2 C 20 %
2772 29-06-2019 02:16:15 17.1 C 20 %
2773 29-06-2019 02:28:15 16.9 C 20 %
2774 29-06-2019 02:40:16 16.8 C 20 %
2775 29-06-2019 02:52:17 16.7 C 20 %
Sensor: Nr:Datum:Temp:Feuchte:
Aussen-T/F 2776 29-06-2019 03:04:17 16.5 C 20 %
2777 29-06-2019 03:16:17 16.4 C 20 %
2778 29-06-2019 03:28:18 16.2 C 20 %
2779 29-06-2019 03:40:18 16.2 C 20 %
2780 29-06-2019 03:52:17 15.8 C 20 %
2781 29-06-2019 04:04:17 15.5 C 22 %
2782 29-06-2019 04:16:17 15.2 C 23 %
2783 29-06-2019 04:28:17 15 C 25 %
2784 29-06-2019 04:40:18 14.7 C 27 %
2785 29-06-2019 04:52:17 14.5 C 29 %
2786 29-06-2019 05:04:17 14.3 C 28 %
2787 29-06-2019 05:16:17 14.1 C 28 %
2788 29-06-2019 05:28:17 14 C 29 %
2789 29-06-2019 05:40:17 14 C 30 %
2790 29-06-2019 05:52:18 13.9 C 31 %
2791 29-06-2019 06:04:18 13.8 C 32 %
2792 29-06-2019 06:16:17 13.8 C 32 %
2793 29-06-2019 06:28:17 13.9 C 33 %
2794 29-06-2019 06:40:17 13.9 C 34 %
2795 29-06-2019 06:52:17 13.9 C 35 %
2796 29-06-2019 07:04:17 14 C 34 %
2797 29-06-2019 07:16:17 14.1 C 34 %
2798 29-06-2019 07:28:17 14.3 C 35 %
2799 29-06-2019 07:40:17 14.5 C 35 %
2800 29-06-2019 07:52:18 14.6 C 34 %
Sensor: Nr:Datum:Temp:Feuchte:
Aussen-T/F 2801 29-06-2019 08:04:18 14.8 C 33 %
2802 29-06-2019 08:16:17 15.2 C 33 %
2803 29-06-2019 08:28:17 15.8 C 31 %
2804 29-06-2019 08:40:17 16.5 C 29 %
2805 29-06-2019 08:52:18 17.4 C 25 %
2806 29-06-2019 09:04:18 17.9 C 20 %
2807 29-06-2019 09:16:17 20.5 C 20 %
2808 29-06-2019 09:28:17 23.3 C 20 %
2809 29-06-2019 09:40:17 25.6 C 20 %
2810 29-06-2019 09:52:18 26.4 C 20 %
2811 29-06-2019 10:04:18 25.2 C 20 %
2812 29-06-2019 10:16:17 24.3 C 20 %
2813 29-06-2019 10:28:17 24.6 C 20 %
2814 29-06-2019 10:40:17 25.7 C 20 %
2815 29-06-2019 10:52:17 26 C 20 %
2816 29-06-2019 11:04:17 26.6 C 20 %
2817 29-06-2019 11:16:17 27.2 C 20 %
2818 29-06-2019 11:28:17 27.4 C 20 %
2819 29-06-2019 11:40:17 28.7 C 20 %
2820 29-06-2019 11:52:17 29.5 C 20 %
2821 29-06-2019 12:04:17 29.8 C 20 %
2822 29-06-2019 12:16:17 29.1 C 20 %
2823 29-06-2019 12:28:17 29.4 C 20 %
2824 29-06-2019 12:40:18 29.3 C 20 %
2825 29-06-2019 12:52:18 29.2 C 20 %
Sensor: Nr:Datum:Temp:Feuchte:
Aussen-T/F 2826 29-06-2019 13:04:17 29.5 C 20 %
2827 29-06-2019 13:16:17 29.7 C 20 %
2828 29-06-2019 13:28:17 30.2 C 20 %
2829 29-06-2019 13:40:18 30.4 C 20 %
2830 29-06-2019 13:52:18 30.7 C 20 %
2831 29-06-2019 14:04:17 31.1 C 20 %
2832 29-06-2019 14:16:17 31.7 C 20 %
2833 29-06-2019 14:28:17 31.9 C 20 %
2834 29-06-2019 14:40:17 32.6 C 20 %
2835 29-06-2019 14:52:18 32.8 C 20 %
2836 29-06-2019 15:04:17 33.1 C 20 %
2837 29-06-2019 15:16:17 33.7 C 20 %
2838 29-06-2019 15:28:17 33.8 C 20 %
2839 29-06-2019 15:40:17 34.4 C 20 %
2840 29-06-2019 15:52:17 34.2 C 20 %
2841 29-06-2019 16:04:17 34.4 C 20 %
2842 29-06-2019 16:16:17 34.3 C 20 %
2843 29-06-2019 16:28:17 34.4 C 20 %
2844 29-06-2019 16:40:18 34.3 C 20 %
2845 29-06-2019 16:52:18 34.5 C 20 %
2846 29-06-2019 17:04:18 34.5 C 20 %
2847 29-06-2019 17:16:18 35.3 C 20 %
2848 29-06-2019 17:28:18 35.6 C 20 %
2849 29-06-2019 17:40:18 36 C 20 %
2850 29-06-2019 17:52:17 36.2 C 20 %
Sensor: Nr:Datum:Temp:Feuchte:
Aussen-T/F 2851 29-06-2019 18:04:17 36.7 C 20 %
2852 29-06-2019 18:16:17 35.3 C 20 %
2853 29-06-2019 18:28:17 35.4 C 20 %
2854 29-06-2019 18:40:17 35.9 C 20 %
2855 29-06-2019 18:52:17 36 C 20 %
2856 29-06-2019 19:04:17 35.8 C 20 %
2857 29-06-2019 19:16:17 36 C 20 %
2858 29-06-2019 19:28:17 35.2 C 20 %
2859 29-06-2019 19:40:17 34.7 C 20 %
2860 29-06-2019 19:52:17 34.1 C 20 %
2861 29-06-2019 20:04:17 33 C 20 %
2862 29-06-2019 20:16:17 32.3 C 20 %
2863 29-06-2019 20:28:17 30.5 C 20 %
2864 29-06-2019 20:40:17 29.4 C 20 %
2865 29-06-2019 20:52:17 28.7 C 20 %
2866 29-06-2019 21:04:17 27.6 C 20 %
2867 29-06-2019 21:16:17 26.4 C 20 %
2868 29-06-2019 21:28:17 25.6 C 20 %
2869 29-06-2019 21:40:17 24.9 C 20 %
2870 29-06-2019 21:52:17 24.5 C 20 %
2871 29-06-2019 22:04:17 24.1 C 20 %
2872 29-06-2019 22:16:17 23.6 C 20 %
2873 29-06-2019 22:28:17 23.6 C 20 %
2874 29-06-2019 22:40:17 23.2 C 20 %
2875 29-06-2019 22:52:17 22.9 C 20 %
Sensor: Nr:Datum:Temp:Feuchte:
Aussen-T/F 2876 29-06-2019 23:04:18 22.4 C 20 %
2877 29-06-2019 23:16:17 21.3 C 20 %
2878 29-06-2019 23:28:17 20.6 C 20 %
2879 29-06-2019 23:40:17 20.1 C 20 %
2880 29-06-2019 23:52:17 19.7 C 20 %
2881 30-06-2019 00:04:18 19.4 C 20 %
2882 30-06-2019 00:16:17 18.9 C 20 %
2883 30-06-2019 00:28:17 18.6 C 20 %
2884 30-06-2019 00:40:17 18.2 C 20 %
2885 30-06-2019 00:52:18 18.1 C 20 %
2886 30-06-2019 01:04:17 17.9 C 20 %
2887 30-06-2019 01:16:18 17.7 C 20 %
2888 30-06-2019 01:28:18 17.4 C 20 %
2889 30-06-2019 01:40:17 17.2 C 20 %
2890 30-06-2019 01:52:18 17.1 C 20 %
2891 30-06-2019 02:04:18 17 C 20 %
2892 30-06-2019 02:16:17 16.9 C 20 %
2893 30-06-2019 02:28:17 16.7 C 20 %
2894 30-06-2019 02:40:17 16.6 C 22 %
2895 30-06-2019 02:52:17 16.5 C 22 %
2896 30-06-2019 03:04:17 16.3 C 22 %
2897 30-06-2019 03:16:17 16.2 C 23 %
2898 30-06-2019 03:28:17 16.2 C 23 %
2899 30-06-2019 03:40:17 15.8 C 25 %
2900 30-06-2019 03:52:17 15.9 C 26 %
Sensor: Nr:Datum:Temp:Feuchte:
Aussen-T/F 2901 30-06-2019 04:04:17 15.7 C 25 %
2902 30-06-2019 04:16:17 15.7 C 27 %
2903 30-06-2019 04:28:17 15.6 C 27 %
2904 30-06-2019 04:40:17 15.5 C 27 %
2905 30-06-2019 04:52:18 15.3 C 27 %
2906 30-06-2019 05:04:18 15.2 C 28 %
2907 30-06-2019 05:16:17 15.1 C 29 %
2908 30-06-2019 05:28:17 15.1 C 30 %
2909 30-06-2019 05:40:17 14.9 C 31 %
2910 30-06-2019 05:52:17 15 C 31 %
2911 30-06-2019 06:04:17 15 C 32 %
2912 30-06-2019 06:16:18 15 C 32 %
2913 30-06-2019 06:28:18 15 C 32 %
2914 30-06-2019 06:40:18 15.1 C 33 %
2915 30-06-2019 06:52:17 15.2 C 33 %
2916 30-06-2019 07:04:17 15.4 C 33 %
2917 30-06-2019 07:16:17 15.6 C 33 %
2918 30-06-2019 07:28:17 16 C 32 %
2919 30-06-2019 07:40:17 16 C 32 %
2920 30-06-2019 07:52:17 16.3 C 33 %
2921 30-06-2019 08:04:17 16.8 C 31 %
2922 30-06-2019 08:16:17 17.1 C 30 %
2923 30-06-2019 08:28:17 17.7 C 29 %
2924 30-06-2019 08:40:17 18.5 C 26 %
2925 30-06-2019 08:52:17 19.5 C 22 %
Sensor: Nr:Datum:Temp:Feuchte:
Aussen-T/F 2926 30-06-2019 09:04:17 19.8 C 20 %
2927 30-06-2019 09:16:17 20.9 C 20 %
2928 30-06-2019 09:28:17 23 C 20 %
2929 30-06-2019 09:40:17 27.4 C 20 %
2930 30-06-2019 09:52:17 29.1 C 20 %
2931 30-06-2019 10:04:17 26.9 C 20 %
2932 30-06-2019 10:16:17 25.3 C 20 %
2933 30-06-2019 10:28:17 27.2 C 20 %
2934 30-06-2019 10:40:18 29.8 C 20 %
2935 30-06-2019 10:52:17 30.4 C 20 %
2936 30-06-2019 11:04:17 31.1 C 20 %
2937 30-06-2019 11:16:17 31.7 C 20 %
2938 30-06-2019 11:28:17 32.7 C 20 %
2939 30-06-2019 11:40:17 33.2 C 20 %
2940 30-06-2019 11:52:17 34.8 C 20 %
2941 30-06-2019 12:04:17 34.2 C 20 %
2942 30-06-2019 12:16:17 33.8 C 20 %
2943 30-06-2019 12:28:17 34.7 C 20 %
2944 30-06-2019 12:40:17 33.7 C 20 %
2945 30-06-2019 12:52:17 34 C 20 %
2946 30-06-2019 13:04:17 34.4 C 20 %
2947 30-06-2019 13:16:17 34.6 C 20 %
2948 30-06-2019 13:28:17 35.1 C 20 %
2949 30-06-2019 13:40:17 35.7 C 20 %
2950 30-06-2019 13:52:18 35.9 C 20 %
Sensor: Nr:Datum:Temp:Feuchte:
Aussen-T/F 2951 30-06-2019 14:04:18 36.6 C 20 %
2952 30-06-2019 14:16:17 37.1 C 20 %
2953 30-06-2019 14:28:17 37.2 C 20 %
2954 30-06-2019 14:40:17 38 C 20 %
2955 30-06-2019 14:52:17 37.5 C 20 %
2956 30-06-2019 15:04:18 37 C 20 %
2957 30-06-2019 15:16:18 37 C 20 %
2958 30-06-2019 15:28:18 36.2 C 20 %
2959 30-06-2019 15:40:17 36.5 C 20 %
2960 30-06-2019 15:52:18 36.6 C 20 %
2961 30-06-2019 16:04:18 35.7 C 20 %
2962 30-06-2019 16:16:17 35.5 C 20 %
2963 30-06-2019 16:28:17 36.1 C 20 %
2964 30-06-2019 16:40:17 36.8 C 20 %
2965 30-06-2019 16:52:18 36.1 C 20 %
2966 30-06-2019 17:04:17 36 C 20 %
2967 30-06-2019 17:16:54 35.9 C 20 %
2968 30-06-2019 17:28:54 36.2 C 20 %
2969 30-06-2019 17:40:18 36.4 C 20 %
2970 30-06-2019 17:52:17 36.7 C 20 %
2971 30-06-2019 18:04:17 37 C 20 %
2972 30-06-2019 18:16:17 35.5 C 20 %
2973 30-06-2019 18:28:17 35.7 C 20 %
2974 30-06-2019 18:40:17 35.4 C 20 %
2975 30-06-2019 18:52:17 34.5 C 20 %
Sensor: Nr:Datum:Temp:Feuchte:
Aussen-T/F 2976 30-06-2019 19:04:18 34.5 C 20 %
2977 30-06-2019 19:16:17 33.3 C 20 %
2978 30-06-2019 19:28:17 32.9 C 20 %
2979 30-06-2019 19:40:17 32.4 C 20 %
2980 30-06-2019 19:52:18 31.6 C 20 %
2981 30-06-2019 20:04:17 30.9 C 20 %
2982 30-06-2019 20:16:17 30.1 C 20 %
2983 30-06-2019 20:28:17 29.6 C 20 %
2984 30-06-2019 20:40:17 29.2 C 20 %
2985 30-06-2019 20:52:17 28.6 C 20 %
2986 30-06-2019 21:04:17 28.2 C 20 %
2987 30-06-2019 21:16:18 27.8 C 20 %
2988 30-06-2019 21:28:18 27.6 C 20 %
2989 30-06-2019 21:40:17 27.3 C 20 %
2990 30-06-2019 21:52:17 27.4 C 20 %
2991 30-06-2019 22:04:17 27.1 C 20 %
2992 30-06-2019 22:16:17 27 C 20 %
2993 30-06-2019 22:28:17 26.7 C 20 %
2994 30-06-2019 22:40:17 26.2 C 20 %
2995 30-06-2019 22:52:17 26.1 C 20 %
2996 30-06-2019 23:04:17 25.6 C 20 %
2997 30-06-2019 23:16:17 25 C 20 %
2998 30-06-2019 23:28:17 24.3 C 20 %
2999 30-06-2019 23:40:17 23.5 C 20 %
3000 30-06-2019 23:52:18 23.5 C 20 %
Sensor: Nr:Datum:Temp:Feuchte:
Aussen-T/F 3001 01-07-2019 00:04:17 23.1 C 20 %
3002 01-07-2019 00:16:17 22.8 C 20 %
3003 01-07-2019 00:28:17 22.7 C 20 %
3004 01-07-2019 00:40:18 22.6 C 20 %
3005 01-07-2019 00:52:17 22.5 C 20 %
3006 01-07-2019 01:04:17 22.5 C 20 %
3007 01-07-2019 01:16:18 22.5 C 20 %
3008 01-07-2019 01:28:18 22.3 C 20 %
3009 01-07-2019 01:40:17 23.1 C 20 %
3010 01-07-2019 01:52:17 23.1 C 20 %
3011 01-07-2019 02:04:17 22.1 C 20 %
3012 01-07-2019 02:16:17 21.6 C 20 %
3013 01-07-2019 02:28:17 21.2 C 20 %
3014 01-07-2019 02:40:17 21.1 C 20 %
3015 01-07-2019 02:52:17 21.3 C 20 %
3016 01-07-2019 03:04:17 21.3 C 20 %
3017 01-07-2019 03:16:17 21.2 C 20 %
3018 01-07-2019 03:28:17 21.8 C 20 %
3019 01-07-2019 03:40:17 21.5 C 20 %
3020 01-07-2019 03:52:17 21.1 C 20 %
3021 01-07-2019 04:04:17 21 C 20 %
3022 01-07-2019 04:16:17 20.6 C 20 %
3023 01-07-2019 04:28:17 20 C 20 %
3024 01-07-2019 04:40:17 20.2 C 20 %
3025 01-07-2019 04:52:18 20.1 C 20 %
Sensor: Nr:Datum:Temp:Feuchte:
Aussen-T/F 3026 01-07-2019 05:04:17 20 C 20 %
3027 01-07-2019 05:16:18 20.1 C 20 %
3028 01-07-2019 05:28:18 19.7 C 20 %
3029 01-07-2019 05:40:17 19.6 C 20 %
3030 01-07-2019 05:52:17 19.7 C 20 %
3031 01-07-2019 06:04:17 20 C 20 %
3032 01-07-2019 06:16:17 19.9 C 20 %
3033 01-07-2019 06:28:17 20.2 C 20 %
3034 01-07-2019 06:40:17 20.3 C 20 %
3035 01-07-2019 06:52:18 20.3 C 20 %
3036 01-07-2019 07:04:17 20.3 C 20 %
3037 01-07-2019 07:16:17 20.1 C 20 %
3038 01-07-2019 07:28:17 19.5 C 20 %
3039 01-07-2019 07:40:17 20 C 20 %
3040 01-07-2019 07:52:17 19.8 C 20 %
3041 01-07-2019 08:04:18 20 C 20 %
3042 01-07-2019 08:16:17 20.4 C 20 %
3043 01-07-2019 08:28:17 20.5 C 20 %
3044 01-07-2019 08:40:17 21.1 C 20 %
3045 01-07-2019 08:52:17 21.5 C 20 %
3046 01-07-2019 09:04:17 21.2 C 20 %
3047 01-07-2019 09:16:17 20.7 C 20 %
3048 01-07-2019 09:28:17 20.7 C 20 %
3049 01-07-2019 09:40:17 22.6 C 20 %
3050 01-07-2019 09:52:17 25.3 C 20 %
Sensor: Nr:Datum:Temp:Feuchte:
Aussen-T/F 3051 01-07-2019 10:04:17 23.7 C 20 %
3052 01-07-2019 10:16:17 23 C 20 %
3053 01-07-2019 10:28:17 23.1 C 20 %
3054 01-07-2019 10:40:17 21.1 C 20 %
3055 01-07-2019 10:52:18 22.1 C 20 %
3056 01-07-2019 11:04:17 22.9 C 20 %
3057 01-07-2019 11:16:17 23.3 C 20 %
3058 01-07-2019 11:28:17 23.9 C 20 %
3059 01-07-2019 11:40:17 23.7 C 20 %
3060 01-07-2019 11:52:17 23.5 C 20 %
3061 01-07-2019 12:04:17 24 C 20 %
3062 01-07-2019 12:16:18 24.6 C 20 %
3063 01-07-2019 12:28:18 25 C 20 %
3064 01-07-2019 12:40:17 25.2 C 20 %
3065 01-07-2019 12:52:17 25.6 C 20 %
3066 01-07-2019 13:04:17 26.1 C 20 %
3067 01-07-2019 13:16:17 26.1 C 20 %
3068 01-07-2019 13:28:17 25.9 C 20 %
3069 01-07-2019 13:40:17 26.4 C 20 %
3070 01-07-2019 13:52:17 25.8 C 20 %
3071 01-07-2019 14:04:18 26.6 C 20 %
3072 01-07-2019 14:16:17 26.7 C 20 %
3073 01-07-2019 14:28:17 27.3 C 20 %
3074 01-07-2019 14:40:17 27.1 C 20 %
3075 01-07-2019 14:52:17 28 C 20 %
Sensor: Nr:Datum:Temp:Feuchte:
Aussen-T/F 3076 01-07-2019 15:04:18 28.9 C 20 %
3077 01-07-2019 15:16:17 28.3 C 20 %
3078 01-07-2019 15:28:17 28 C 20 %
3079 01-07-2019 15:40:17 28.1 C 20 %
3080 01-07-2019 15:52:17 26.9 C 20 %
3081 01-07-2019 16:04:17 26.9 C 20 %
3082 01-07-2019 16:16:17 27.7 C 20 %
3083 01-07-2019 16:28:17 27.9 C 20 %
3084 01-07-2019 16:40:17 28.6 C 20 %
3085 01-07-2019 16:52:17 27.3 C 20 %
3086 01-07-2019 17:04:17 28 C 20 %
3087 01-07-2019 17:16:17 28.3 C 20 %
3088 01-07-2019 17:28:17 28.4 C 20 %
3089 01-07-2019 17:40:17 27.1 C 20 %
3090 01-07-2019 17:52:17 27.5 C 20 %
3091 01-07-2019 18:04:17 27.3 C 20 %
3092 01-07-2019 18:16:18 27 C 20 %
3093 01-07-2019 18:28:18 27.1 C 20 %
3094 01-07-2019 18:40:17 27.6 C 20 %
3095 01-07-2019 18:52:17 27 C 20 %
3096 01-07-2019 19:04:17 27.4 C 20 %
3097 01-07-2019 19:16:17 27.2 C 20 %
3098 01-07-2019 19:28:17 26.3 C 20 %
3099 01-07-2019 19:40:18 25.8 C 20 %
3100 01-07-2019 19:52:17 25.6 C 20 %
Sensor: Nr:Datum:Temp:Feuchte:
Aussen-T/F 3101 01-07-2019 20:04:17 25.2 C 20 %
3102 01-07-2019 20:16:17 25.2 C 20 %
3103 01-07-2019 20:28:17 25 C 20 %
3104 01-07-2019 20:40:17 24.4 C 20 %
3105 01-07-2019 20:52:18 23.7 C 20 %
3106 01-07-2019 21:04:17 23 C 20 %
3107 01-07-2019 21:16:18 22.9 C 20 %
3108 01-07-2019 21:28:18 22.6 C 20 %
3109 01-07-2019 21:40:17 22.3 C 20 %
3110 01-07-2019 21:52:17 22.1 C 20 %
3111 01-07-2019 22:04:17 21.4 C 20 %
3112 01-07-2019 22:16:17 21.4 C 20 %
3113 01-07-2019 22:28:17 20.6 C 20 %
3114 01-07-2019 22:40:17 20.4 C 20 %
3115 01-07-2019 22:52:17 20.2 C 20 %
3116 01-07-2019 23:04:18 20.4 C 20 %
3117 01-07-2019 23:16:17 20.7 C 20 %
3118 01-07-2019 23:28:17 20.5 C 20 %
3119 01-07-2019 23:40:18 20.3 C 20 %
3120 01-07-2019 23:52:18 19.9 C 20 %
3121 02-07-2019 00:04:17 19.8 C 20 %
3122 02-07-2019 00:16:17 19.2 C 20 %
3123 02-07-2019 00:28:17 18.5 C 20 %
3124 02-07-2019 00:40:17 18.2 C 20 %
3125 02-07-2019 00:52:18 17.4 C 20 %
Sensor: Nr:Datum:Temp:Feuchte:
Aussen-T/F 3126 02-07-2019 01:04:18 17.2 C 20 %
3127 02-07-2019 01:16:18 17.2 C 20 %
3128 02-07-2019 01:28:18 16.8 C 20 %
3129 02-07-2019 01:40:18 16.5 C 20 %
3130 02-07-2019 01:52:18 16 C 20 %
3131 02-07-2019 02:04:18 15.9 C 20 %
3132 02-07-2019 02:16:18 16 C 20 %
3133 02-07-2019 02:28:18 15.8 C 20 %
3134 02-07-2019 02:40:17 15.5 C 20 %
3135 02-07-2019 02:52:18 15.4 C 20 %
3136 02-07-2019 03:04:17 15.1 C 20 %
3137 02-07-2019 03:16:17 15.2 C 20 %
3138 02-07-2019 03:28:17 16.1 C 20 %
3139 02-07-2019 03:40:17 15.9 C 20 %
3140 02-07-2019 03:52:17 15.3 C 20 %
3141 02-07-2019 04:04:17 14.9 C 20 %
3142 02-07-2019 04:16:18 14.6 C 23 %
3143 02-07-2019 04:28:18 14.2 C 25 %
3144 02-07-2019 04:40:18 13.9 C 27 %
3145 02-07-2019 04:52:17 13.7 C 29 %
3146 02-07-2019 05:04:17 13.7 C 29 %
3147 02-07-2019 05:16:18 13.6 C 30 %
3148 02-07-2019 05:28:18 13.5 C 30 %
3149 02-07-2019 05:40:18 13.4 C 30 %
3150 02-07-2019 05:52:18 13.3 C 31 %
Sensor: Nr:Datum:Temp:Feuchte:
Aussen-T/F 3151 02-07-2019 06:04:17 13.3 C 32 %
3152 02-07-2019 06:16:18 13.3 C 33 %
3153 02-07-2019 06:28:18 13.3 C 33 %
3154 02-07-2019 06:40:18 13.2 C 32 %
3155 02-07-2019 06:52:18 13.3 C 34 %
3156 02-07-2019 07:04:17 13.3 C 34 %
3157 02-07-2019 07:16:17 13.3 C 34 %
3158 02-07-2019 07:28:17 13.5 C 34 %
3159 02-07-2019 07:40:18 13.7 C 34 %
3160 02-07-2019 07:52:18 14 C 32 %
3161 02-07-2019 08:04:17 14.2 C 32 %
3162 02-07-2019 08:16:17 15 C 26 %
3163 02-07-2019 08:28:18 15.8 C 20 %
3164 02-07-2019 08:40:18 17 C 20 %
3165 02-07-2019 08:52:17 17.9 C 20 %
3166 02-07-2019 09:04:17 17.7 C 20 %
3167 02-07-2019 09:16:17 18.7 C 20 %
3168 02-07-2019 09:28:17 19.5 C 20 %
3169 02-07-2019 09:40:17 20.7 C 20 %
3170 02-07-2019 09:52:17 22 C 20 %
3171 02-07-2019 10:04:18 21.4 C 20 %
3172 02-07-2019 10:16:17 19.9 C 20 %
3173 02-07-2019 10:28:17 20.1 C 20 %
3174 02-07-2019 10:40:18 21.4 C 20 %
3175 02-07-2019 10:52:17 20.2 C 20 %
Sensor: Nr:Datum:Temp:Feuchte:
Aussen-T/F 3176 02-07-2019 11:04:17 21.3 C 20 %
3177 02-07-2019 11:16:17 21.2 C 20 %
3178 02-07-2019 11:28:17 20.8 C 20 %
3179 02-07-2019 11:40:17 21.8 C 20 %
3180 02-07-2019 11:52:17 21.1 C 20 %
3181 02-07-2019 12:04:18 21 C 20 %
3182 02-07-2019 12:16:17 22 C 20 %
3183 02-07-2019 12:28:17 22.4 C 20 %
3184 02-07-2019 12:40:18 22 C 20 %
3185 02-07-2019 12:52:18 22.2 C 20 %
3186 02-07-2019 13:04:17 22.5 C 20 %
3187 02-07-2019 13:16:17 22 C 20 %
3188 02-07-2019 13:28:17 22.5 C 20 %
3189 02-07-2019 13:40:17 22.8 C 20 %
3190 02-07-2019 13:52:17 23.4 C 20 %
3191 02-07-2019 14:04:18 23.6 C 20 %
3192 02-07-2019 14:16:17 23.2 C 20 %
3193 02-07-2019 14:28:17 24.2 C 20 %
3194 02-07-2019 14:40:17 24.6 C 20 %
3195 02-07-2019 14:52:18 23 C 20 %
3196 02-07-2019 15:04:18 23.2 C 20 %
3197 02-07-2019 15:16:17 24.8 C 20 %
3198 02-07-2019 15:28:17 25.2 C 20 %
3199 02-07-2019 15:40:18 23.4 C 20 %
3200 02-07-2019 15:52:18 24.6 C 20 %
Sensor: Nr:Datum:Temp:Feuchte:
Aussen-T/F 3201 02-07-2019 16:04:17 25.6 C 20 %
3202 02-07-2019 16:16:17 26.1 C 20 %
3203 02-07-2019 16:28:17 25.9 C 20 %
3204 02-07-2019 16:40:17 26.2 C 20 %
3205 02-07-2019 16:52:17 26.2 C 20 %
3206 02-07-2019 17:04:18 26.3 C 20 %
3207 02-07-2019 17:16:17 27.4 C 20 %
3208 02-07-2019 17:28:17 26 C 20 %
3209 02-07-2019 17:40:17 26.8 C 20 %
3210 02-07-2019 17:52:18 26.6 C 20 %
3211 02-07-2019 18:04:18 24.7 C 20 %
3212 02-07-2019 18:16:18 24.5 C 20 %
3213 02-07-2019 18:28:18 25.3 C 20 %
3214 02-07-2019 18:40:17 25.1 C 20 %
3215 02-07-2019 18:52:18 26.1 C 20 %
3216 02-07-2019 19:04:18 26.3 C 20 %
3217 02-07-2019 19:16:17 25.6 C 20 %
3218 02-07-2019 19:28:17 25 C 20 %
3219 02-07-2019 19:40:17 24.4 C 20 %
3220 02-07-2019 19:52:17 23.9 C 20 %
3221 02-07-2019 20:04:17 23.4 C 20 %
3222 02-07-2019 20:16:17 23.3 C 20 %
3223 02-07-2019 20:28:17 23.1 C 20 %
3224 02-07-2019 20:40:17 22.6 C 20 %
3225 02-07-2019 20:52:18 22.2 C 20 %
Sensor: Nr:Datum:Temp:Feuchte:
Aussen-T/F 3226 02-07-2019 21:04:18 22.1 C 20 %
3227 02-07-2019 21:16:18 21.6 C 20 %
3228 02-07-2019 21:28:18 20.7 C 20 %
3229 02-07-2019 21:40:18 19.2 C 20 %
3230 02-07-2019 21:52:17 18.6 C 20 %
3231 02-07-2019 22:04:17 18 C 20 %
3232 02-07-2019 22:16:17 17.5 C 20 %
3233 02-07-2019 22:28:17 17.5 C 20 %
3234 02-07-2019 22:40:17 17.5 C 20 %
3235 02-07-2019 22:52:17 16.9 C 20 %
3236 02-07-2019 23:04:18 16.7 C 20 %
3237 02-07-2019 23:16:18 16.6 C 20 %
3238 02-07-2019 23:28:18 16.2 C 20 %
3239 02-07-2019 23:40:17 16.1 C 20 %
3240 02-07-2019 23:52:18 15.9 C 20 %
3241 03-07-2019 00:04:18 15.2 C 20 %
3242 03-07-2019 00:16:18 15 C 20 %
3243 03-07-2019 00:28:18 14.5 C 20 %
3244 03-07-2019 00:40:18 14.4 C 20 %
3245 03-07-2019 00:52:17 14.1 C 20 %
3246 03-07-2019 01:04:18 13.7 C 20 %
3247 03-07-2019 01:16:18 13.5 C 20 %
3248 03-07-2019 01:28:18 13.2 C 20 %
3249 03-07-2019 01:40:18 13 C 20 %
3250 03-07-2019 01:52:17 12.9 C 20 %
Sensor: Nr:Datum:Temp:Feuchte:
Aussen-T/F 3251 03-07-2019 02:04:18 12.6 C 20 %
3252 03-07-2019 02:16:17 12.5 C 20 %
3253 03-07-2019 02:28:17 12.3 C 22 %
3254 03-07-2019 02:40:17 12.1 C 20 %
3255 03-07-2019 02:52:18 12.2 C 26 %
3256 03-07-2019 03:04:18 11.8 C 25 %
3257 03-07-2019 03:16:18 11.8 C 27 %
3258 03-07-2019 03:28:18 11.7 C 28 %
3259 03-07-2019 03:40:17 11.4 C 27 %
3260 03-07-2019 03:52:18 11.2 C 28 %
3261 03-07-2019 04:04:18 11.1 C 29 %
3262 03-07-2019 04:16:18 10.9 C 30 %
3263 03-07-2019 04:28:18 10.8 C 32 %
3264 03-07-2019 04:40:18 10.7 C 32 %
3265 03-07-2019 04:52:17 10.6 C 32 %
3266 03-07-2019 05:04:18 10.4 C 32 %
3267 03-07-2019 05:16:18 10.3 C 33 %
3268 03-07-2019 05:28:18 10.3 C 35 %
3269 03-07-2019 05:40:18 10.2 C 34 %
3270 03-07-2019 05:52:17 10.2 C 35 %
3271 03-07-2019 06:04:18 10.2 C 35 %
3272 03-07-2019 06:16:18 10.4 C 36 %
3273 03-07-2019 06:28:18 10.5 C 36 %
3274 03-07-2019 06:40:18 10.5 C 36 %
3275 03-07-2019 06:52:17 10.6 C 37 %
Sensor: Nr:Datum:Temp:Feuchte:
Aussen-T/F 3276 03-07-2019 07:04:18 10.9 C 38 %
3277 03-07-2019 07:16:18 11.1 C 36 %
3278 03-07-2019 07:28:18 11.4 C 36 %
3279 03-07-2019 07:40:17 11.6 C 34 %
3280 03-07-2019 07:52:17 11.9 C 33 %
3281 03-07-2019 08:04:18 12.2 C 31 %
3282 03-07-2019 08:16:18 12.5 C 30 %
3283 03-07-2019 08:28:18 13.1 C 28 %
3284 03-07-2019 08:40:17 13.7 C 25 %
3285 03-07-2019 08:52:17 14.4 C 20 %
3286 03-07-2019 09:04:17 14.7 C 20 %
3287 03-07-2019 09:16:17 15.8 C 20 %
3288 03-07-2019 09:28:17 17.2 C 20 %
3289 03-07-2019 09:40:17 21.2 C 20 %
3290 03-07-2019 09:52:18 24.2 C 20 %
3291 03-07-2019 10:04:18 21.5 C 20 %
3292 03-07-2019 10:16:17 19.7 C 20 %
3293 03-07-2019 10:28:17 19.9 C 20 %
3294 03-07-2019 10:40:18 20.4 C 20 %
3295 03-07-2019 10:52:18 21.1 C 20 %
3296 03-07-2019 11:04:17 21.1 C 20 %
3297 03-07-2019 11:16:17 22 C 20 %
3298 03-07-2019 11:28:17 22.1 C 20 %
3299 03-07-2019 11:40:17 22.5 C 20 %
3300 03-07-2019 11:52:17 23.3 C 20 %
Sensor: Nr:Datum:Temp:Feuchte:
Aussen-T/F 3301 03-07-2019 12:04:18 23 C 20 %
3302 03-07-2019 12:16:18 21.7 C 20 %
3303 03-07-2019 12:28:18 23.5 C 20 %
3304 03-07-2019 12:40:17 22.3 C 20 %
3305 03-07-2019 12:52:17 22.4 C 20 %
3306 03-07-2019 13:04:17 21.9 C 20 %
3307 03-07-2019 13:16:17 22 C 20 %
3308 03-07-2019 13:28:17 22.4 C 20 %
3309 03-07-2019 13:40:18 22.7 C 20 %
3310 03-07-2019 13:52:18 23.1 C 20 %
3311 03-07-2019 14:04:17 23.2 C 20 %
3312 03-07-2019 14:16:17 23.6 C 20 %
3313 03-07-2019 14:28:18 23 C 20 %
3314 03-07-2019 14:40:18 23 C 20 %
3315 03-07-2019 14:52:17 23.1 C 20 %
3316 03-07-2019 15:04:17 23.4 C 20 %
3317 03-07-2019 15:16:18 24.1 C 20 %
3318 03-07-2019 15:28:18 23.4 C 20 %
3319 03-07-2019 15:40:17 23.6 C 20 %
3320 03-07-2019 15:52:17 24.3 C 20 %
3321 03-07-2019 16:04:18 24.5 C 20 %
3322 03-07-2019 16:16:18 25.3 C 20 %
3323 03-07-2019 16:28:18 25.1 C 20 %
3324 03-07-2019 16:40:17 24.6 C 20 %
3325 03-07-2019 16:52:17 24.8 C 20 %
Sensor: Nr:Datum:Temp:Feuchte:
Aussen-T/F 3326 03-07-2019 17:04:18 24.5 C 20 %
3327 03-07-2019 17:16:17 25.5 C 20 %
3328 03-07-2019 17:28:17 24.7 C 20 %
3329 03-07-2019 17:40:18 25 C 20 %
3330 03-07-2019 17:52:17 24.6 C 20 %
3331 03-07-2019 18:04:18 26 C 20 %
3332 03-07-2019 18:16:17 25.4 C 20 %
3333 03-07-2019 18:28:17 25.2 C 20 %
3334 03-07-2019 18:40:17 24.5 C 20 %
3335 03-07-2019 18:52:17 25.4 C 20 %
3336 03-07-2019 19:04:18 24.9 C 20 %
3337 03-07-2019 19:16:17 24.6 C 20 %
3338 03-07-2019 19:28:17 23.8 C 20 %
3339 03-07-2019 19:40:18 23.3 C 20 %
3340 03-07-2019 19:52:17 23.2 C 20 %
3341 03-07-2019 20:04:17 22.9 C 20 %
3342 03-07-2019 20:16:17 22.7 C 20 %
3343 03-07-2019 20:28:18 22.3 C 20 %
3344 03-07-2019 20:40:18 22.2 C 20 %
3345 03-07-2019 20:52:17 21.7 C 20 %
3346 03-07-2019 21:04:18 21.4 C 20 %
3347 03-07-2019 21:16:18 20.9 C 20 %
3348 03-07-2019 21:28:18 20.6 C 20 %
3349 03-07-2019 21:40:18 20.2 C 20 %
3350 03-07-2019 21:52:17 19.4 C 20 %
Sensor: Nr:Datum:Temp:Feuchte:
Aussen-T/F 3351 03-07-2019 22:04:18 18 C 20 %
3352 03-07-2019 22:16:18 17.4 C 20 %
3353 03-07-2019 22:28:18 17.2 C 20 %
3354 03-07-2019 22:40:17 16.9 C 20 %
3355 03-07-2019 22:52:18 16.3 C 20 %
3356 03-07-2019 23:04:18 16.2 C 20 %
3357 03-07-2019 23:16:18 15.4 C 20 %
3358 03-07-2019 23:28:18 15.2 C 20 %
3359 03-07-2019 23:40:18 14.9 C 20 %
3360 03-07-2019 23:52:18 14.8 C 20 %
Sensor: Nr:Datum:Temp:Feuchte:
G-T/H 1 06-06-2019 00:02:17 20.5 C 67 %
2 06-06-2019 00:14:17 20.5 C 67 %
3 06-06-2019 00:26:17 20.5 C 67 %
4 06-06-2019 00:38:17 20.6 C 67 %
5 06-06-2019 00:50:17 20.5 C 67 %
6 06-06-2019 01:02:17 20.5 C 67 %
7 06-06-2019 01:14:17 20.5 C 67 %
8 06-06-2019 01:26:17 20.5 C 67 %
9 06-06-2019 01:38:17 20.4 C 67 %
10 06-06-2019 01:50:17 20.4 C 67 %
11 06-06-2019 02:02:17 20.4 C 67 %
12 06-06-2019 02:14:17 20.4 C 67 %
13 06-06-2019 02:26:17 20.3 C 67 %
14 06-06-2019 02:38:18 20.3 C 67 %
15 06-06-2019 02:50:17 20.3 C 67 %
16 06-06-2019 03:02:17 20.3 C 67 %
17 06-06-2019 03:14:17 20.3 C 67 %
18 06-06-2019 03:26:17 20.2 C 67 %
19 06-06-2019 03:38:17 20.2 C 67 %
20 06-06-2019 03:50:17 20.1 C 67 %
21 06-06-2019 04:02:17 20.1 C 67 %
22 06-06-2019 04:14:17 20.1 C 67 %
23 06-06-2019 04:26:18 20.1 C 67 %
24 06-06-2019 04:38:17 20 C 67 %
25 06-06-2019 04:50:17 20 C 67 %
Sensor: Nr:Datum:Temp:Feuchte:
G-T/H 26 06-06-2019 05:02:17 20 C 67 %
27 06-06-2019 05:14:17 20 C 67 %
28 06-06-2019 05:26:17 20 C 67 %
29 06-06-2019 05:38:17 20 C 67 %
30 06-06-2019 05:50:17 19.9 C 68 %
31 06-06-2019 06:02:18 19.9 C 68 %
32 06-06-2019 06:14:18 19.8 C 68 %
33 06-06-2019 06:26:17 19.8 C 68 %
34 06-06-2019 06:38:17 19.8 C 68 %
35 06-06-2019 06:50:17 19.7 C 68 %
36 06-06-2019 07:02:17 19.6 C 67 %
37 06-06-2019 07:14:17 19.5 C 66 %
38 06-06-2019 07:26:17 19.5 C 66 %
39 06-06-2019 07:38:17 19.4 C 65 %
40 06-06-2019 07:50:17 19.4 C 64 %
41 06-06-2019 08:02:17 19.4 C 64 %
42 06-06-2019 08:14:17 19.3 C 63 %
43 06-06-2019 08:26:17 19.3 C 63 %
44 06-06-2019 08:38:17 19.3 C 63 %
45 06-06-2019 08:50:17 19.2 C 63 %
46 06-06-2019 09:02:17 19.1 C 62 %
47 06-06-2019 09:14:17 19.1 C 61 %
48 06-06-2019 09:26:17 19 C 61 %
49 06-06-2019 09:38:17 19.1 C 61 %
50 06-06-2019 09:50:17 19 C 60 %
Sensor: Nr:Datum:Temp:Feuchte:
G-T/H 51 06-06-2019 10:02:17 19 C 60 %
52 06-06-2019 10:14:17 18.9 C 60 %
53 06-06-2019 10:26:17 18.9 C 60 %
54 06-06-2019 10:38:17 18.9 C 61 %
55 06-06-2019 10:50:17 18.9 C 62 %
56 06-06-2019 11:02:18 18.9 C 62 %
57 06-06-2019 11:14:18 19 C 62 %
58 06-06-2019 11:26:17 18.9 C 63 %
59 06-06-2019 11:38:18 18.9 C 63 %
60 06-06-2019 11:50:17 18.9 C 63 %
61 06-06-2019 12:02:17 18.9 C 63 %
62 06-06-2019 12:14:17 18.9 C 63 %
63 06-06-2019 12:26:17 18.9 C 63 %
64 06-06-2019 12:38:17 18.9 C 63 %
65 06-06-2019 12:50:18 18.9 C 63 %
66 06-06-2019 13:02:17 18.9 C 63 %
67 06-06-2019 13:14:17 18.9 C 63 %
68 06-06-2019 13:26:17 18.9 C 63 %
69 06-06-2019 13:38:17 18.9 C 63 %
70 06-06-2019 13:50:17 18.9 C 63 %
71 06-06-2019 14:02:17 18.9 C 63 %
72 06-06-2019 14:14:17 18.9 C 63 %
73 06-06-2019 14:26:17 18.9 C 63 %
74 06-06-2019 14:38:18 18.9 C 63 %
75 06-06-2019 14:50:17 18.9 C 63 %
Sensor: Nr:Datum:Temp:Feuchte:
G-T/H 76 06-06-2019 15:02:17 18.9 C 63 %
77 06-06-2019 15:14:17 18.9 C 63 %
78 06-06-2019 15:26:17 18.9 C 63 %
79 06-06-2019 15:38:17 18.9 C 63 %
80 06-06-2019 15:50:17 18.9 C 63 %
81 06-06-2019 16:02:17 18.9 C 64 %
82 06-06-2019 16:14:17 18.9 C 64 %
83 06-06-2019 16:26:17 18.9 C 64 %
84 06-06-2019 16:38:17 18.9 C 64 %
85 06-06-2019 16:50:17 18.9 C 64 %
86 06-06-2019 17:02:17 18.9 C 64 %
87 06-06-2019 17:14:17 18.8 C 64 %
88 06-06-2019 17:26:17 18.8 C 64 %
89 06-06-2019 17:38:17 18.8 C 63 %
90 06-06-2019 17:50:17 18.8 C 63 %
91 06-06-2019 18:02:18 18.8 C 63 %
92 06-06-2019 18:14:18 18.8 C 63 %
93 06-06-2019 18:26:17 18.8 C 63 %
94 06-06-2019 18:38:17 18.8 C 64 %
95 06-06-2019 18:50:17 18.8 C 63 %
96 06-06-2019 19:02:17 18.9 C 63 %
97 06-06-2019 19:14:17 18.9 C 63 %
98 06-06-2019 19:26:17 18.9 C 63 %
99 06-06-2019 19:38:17 18.9 C 63 %
100 06-06-2019 19:50:17 18.9 C 63 %
Sensor: Nr:Datum:Temp:Feuchte:
G-T/H 101 06-06-2019 20:02:17 18.9 C 63 %
102 06-06-2019 20:14:17 18.9 C 63 %
103 06-06-2019 20:26:17 19 C 62 %
104 06-06-2019 20:38:17 18.9 C 63 %
105 06-06-2019 20:50:17 18.9 C 64 %
106 06-06-2019 21:02:17 18.9 C 64 %
107 06-06-2019 21:14:17 18.8 C 64 %
108 06-06-2019 21:26:17 18.8 C 64 %
109 06-06-2019 21:38:17 18.8 C 64 %
110 06-06-2019 21:50:17 18.8 C 64 %
111 06-06-2019 22:02:17 18.7 C 64 %
112 06-06-2019 22:14:17 18.6 C 63 %
113 06-06-2019 22:26:18 18.5 C 63 %
114 06-06-2019 22:38:17 18.5 C 63 %
115 06-06-2019 22:50:17 18.4 C 62 %
116 06-06-2019 23:02:18 18.4 C 62 %
117 06-06-2019 23:14:18 18.3 C 62 %
118 06-06-2019 23:26:17 18.3 C 62 %
119 06-06-2019 23:38:17 18.2 C 61 %
120 06-06-2019 23:50:17 18.3 C 61 %
121 07-06-2019 00:02:17 18.2 C 61 %
122 07-06-2019 00:14:17 18.1 C 61 %
123 07-06-2019 00:26:17 18.1 C 61 %
124 07-06-2019 00:38:17 18.1 C 60 %
125 07-06-2019 00:50:17 18 C 60 %
Sensor: Nr:Datum:Temp:Feuchte:
G-T/H 126 07-06-2019 01:02:17 17.9 C 61 %
127 07-06-2019 01:14:17 17.9 C 61 %
128 07-06-2019 01:26:17 17.9 C 61 %
129 07-06-2019 01:38:17 17.9 C 61 %
130 07-06-2019 01:50:17 17.8 C 61 %
131 07-06-2019 02:02:18 17.8 C 61 %
132 07-06-2019 02:14:18 17.7 C 61 %
133 07-06-2019 02:26:17 17.7 C 60 %
134 07-06-2019 02:38:17 17.6 C 60 %
135 07-06-2019 02:50:17 17.6 C 60 %
136 07-06-2019 03:02:17 17.6 C 60 %
137 07-06-2019 03:14:17 17.6 C 60 %
138 07-06-2019 03:26:17 17.5 C 60 %
139 07-06-2019 03:38:17 17.5 C 60 %
140 07-06-2019 03:50:17 17.5 C 60 %
141 07-06-2019 04:02:17 17.4 C 60 %
142 07-06-2019 04:14:17 17.5 C 60 %
143 07-06-2019 04:26:17 17.5 C 61 %
144 07-06-2019 04:38:17 17.5 C 61 %
145 07-06-2019 04:50:17 17.5 C 61 %
146 07-06-2019 05:02:18 17.5 C 61 %
147 07-06-2019 05:14:18 17.4 C 61 %
148 07-06-2019 05:26:17 17.3 C 61 %
149 07-06-2019 05:38:17 17.2 C 60 %
150 07-06-2019 05:50:17 17.2 C 60 %
Sensor: Nr:Datum:Temp:Feuchte:
G-T/H 151 07-06-2019 06:02:17 17.2 C 60 %
152 07-06-2019 06:14:17 17.1 C 60 %
153 07-06-2019 06:26:17 17.1 C 60 %
154 07-06-2019 06:38:17 17.1 C 60 %
155 07-06-2019 06:50:17 17.2 C 61 %
156 07-06-2019 07:02:17 17.2 C 61 %
157 07-06-2019 07:14:17 17.2 C 61 %
158 07-06-2019 07:26:17 17.1 C 61 %
159 07-06-2019 07:38:17 15.5 C 61 %
160 07-06-2019 07:50:17 15.1 C 62 %
161 07-06-2019 08:02:18 15.1 C 62 %
162 07-06-2019 08:14:18 15.1 C 62 %
163 07-06-2019 08:26:17 15.1 C 62 %
164 07-06-2019 08:38:17 15.2 C 62 %
165 07-06-2019 08:50:17 15.4 C 62 %
166 07-06-2019 09:02:17 15.5 C 62 %
167 07-06-2019 09:14:17 15.5 C 62 %
168 07-06-2019 09:26:17 15.6 C 62 %
169 07-06-2019 09:38:17 15.6 C 62 %
170 07-06-2019 09:50:17 15.8 C 62 %
171 07-06-2019 10:02:17 15.9 C 62 %
172 07-06-2019 10:14:17 16.1 C 62 %
173 07-06-2019 10:26:17 16.3 C 62 %
174 07-06-2019 10:38:17 16.6 C 62 %
175 07-06-2019 10:50:17 16.8 C 61 %
Sensor: Nr:Datum:Temp:Feuchte:
G-T/H 176 07-06-2019 11:02:17 17 C 60 %
177 07-06-2019 11:14:17 17.1 C 59 %
178 07-06-2019 11:26:17 17.4 C 58 %
179 07-06-2019 11:38:17 17.5 C 58 %
180 07-06-2019 11:50:17 17.6 C 58 %
181 07-06-2019 12:02:18 17.8 C 58 %
182 07-06-2019 12:14:18 17.9 C 57 %
183 07-06-2019 12:26:17 18.1 C 56 %
184 07-06-2019 12:38:17 18.1 C 56 %
185 07-06-2019 12:50:18 18.4 C 56 %
186 07-06-2019 13:02:17 18.5 C 57 %
187 07-06-2019 13:14:17 18.7 C 57 %
188 07-06-2019 13:26:17 18.7 C 57 %
189 07-06-2019 13:38:17 18.7 C 57 %
190 07-06-2019 13:50:17 18.6 C 58 %
191 07-06-2019 14:02:17 18.7 C 58 %
192 07-06-2019 14:14:17 18.7 C 59 %
193 07-06-2019 14:26:17 19.1 C 59 %
194 07-06-2019 14:38:18 19.3 C 59 %
195 07-06-2019 14:50:17 19.3 C 59 %
196 07-06-2019 15:02:17 19.3 C 59 %
197 07-06-2019 15:14:18 19.2 C 59 %
198 07-06-2019 15:26:17 19.2 C 59 %
199 07-06-2019 15:38:17 19.1 C 59 %
200 07-06-2019 15:50:17 19.1 C 59 %
Sensor: Nr:Datum:Temp:Feuchte:
G-T/H 201 07-06-2019 16:02:17 19.1 C 60 %
202 07-06-2019 16:14:17 19 C 60 %
203 07-06-2019 16:26:17 19 C 60 %
204 07-06-2019 16:38:17 19 C 60 %
205 07-06-2019 16:50:17 19 C 60 %
206 07-06-2019 17:02:17 19 C 60 %
207 07-06-2019 17:14:17 19 C 60 %
208 07-06-2019 17:26:17 19 C 60 %
209 07-06-2019 17:38:18 19 C 60 %
210 07-06-2019 17:50:17 19 C 61 %
211 07-06-2019 18:02:17 18.9 C 62 %
212 07-06-2019 18:14:17 19 C 61 %
213 07-06-2019 18:26:17 19 C 61 %
214 07-06-2019 18:38:17 19 C 61 %
215 07-06-2019 18:50:18 19 C 61 %
216 07-06-2019 19:02:17 18.9 C 62 %
217 07-06-2019 19:14:17 18.9 C 62 %
218 07-06-2019 19:26:17 18.9 C 62 %
219 07-06-2019 19:38:17 18.8 C 61 %
220 07-06-2019 19:50:17 18.8 C 61 %
221 07-06-2019 20:02:18 18.7 C 60 %
222 07-06-2019 20:14:18 18.7 C 60 %
223 07-06-2019 20:26:17 18.7 C 60 %
224 07-06-2019 20:38:17 18.7 C 60 %
225 07-06-2019 20:50:18 18.7 C 60 %
Sensor: Nr:Datum:Temp:Feuchte:
G-T/H 226 07-06-2019 21:02:17 18.6 C 60 %
227 07-06-2019 21:14:17 18.6 C 60 %
228 07-06-2019 21:26:17 18.6 C 60 %
229 07-06-2019 21:38:17 18.6 C 61 %
230 07-06-2019 21:50:17 18.6 C 61 %
231 07-06-2019 22:02:18 18.5 C 61 %
232 07-06-2019 22:14:18 18.5 C 61 %
233 07-06-2019 22:26:17 18.4 C 60 %
234 07-06-2019 22:38:17 18.4 C 60 %
235 07-06-2019 22:50:18 18.3 C 59 %
236 07-06-2019 23:02:17 18.3 C 59 %
237 07-06-2019 23:14:17 18.3 C 58 %
238 07-06-2019 23:26:17 18.3 C 59 %
239 07-06-2019 23:38:17 18.3 C 59 %
240 07-06-2019 23:50:17 18.3 C 59 %
241 08-06-2019 00:02:18 18.2 C 59 %
242 08-06-2019 00:14:18 18.2 C 60 %
243 08-06-2019 00:26:17 18.3 C 60 %
244 08-06-2019 00:38:17 18.2 C 60 %
245 08-06-2019 00:50:17 18.2 C 60 %
246 08-06-2019 01:02:17 18.1 C 60 %
247 08-06-2019 01:14:17 18.2 C 60 %
248 08-06-2019 01:26:17 18.1 C 60 %
249 08-06-2019 01:38:18 18.1 C 60 %
250 08-06-2019 01:50:17 18.1 C 60 %
Sensor: Nr:Datum:Temp:Feuchte:
G-T/H 251 08-06-2019 02:02:17 18.1 C 60 %
252 08-06-2019 02:14:17 18.1 C 61 %
253 08-06-2019 02:26:17 18 C 61 %
254 08-06-2019 02:38:17 18 C 61 %
255 08-06-2019 02:50:17 18 C 61 %
256 08-06-2019 03:02:17 18 C 61 %
257 08-06-2019 03:14:17 17.9 C 62 %
258 08-06-2019 03:26:17 17.9 C 62 %
259 08-06-2019 03:38:18 17.9 C 62 %
260 08-06-2019 03:50:17 17.9 C 62 %
261 08-06-2019 04:02:17 17.9 C 62 %
262 08-06-2019 04:14:17 17.8 C 62 %
263 08-06-2019 04:26:17 17.8 C 61 %
264 08-06-2019 04:38:17 17.7 C 60 %
265 08-06-2019 04:50:17 17.7 C 59 %
266 08-06-2019 05:02:18 17.6 C 58 %
267 08-06-2019 05:14:18 17.6 C 58 %
268 08-06-2019 05:26:17 17.6 C 58 %
269 08-06-2019 05:38:17 17.6 C 58 %
270 08-06-2019 05:50:17 17.6 C 59 %
271 08-06-2019 06:02:18 17.5 C 59 %
272 08-06-2019 06:14:18 17.5 C 59 %
273 08-06-2019 06:26:17 17.5 C 59 %
274 08-06-2019 06:38:17 17.5 C 59 %
275 08-06-2019 06:50:17 17.5 C 60 %
Sensor: Nr:Datum:Temp:Feuchte:
G-T/H 276 08-06-2019 07:02:17 17.5 C 60 %
277 08-06-2019 07:14:17 17.5 C 60 %
278 08-06-2019 07:26:17 17.4 C 59 %
279 08-06-2019 07:38:18 17.4 C 59 %
280 08-06-2019 07:50:17 17.4 C 59 %
281 08-06-2019 08:02:17 17.4 C 59 %
282 08-06-2019 08:14:17 17.4 C 59 %
283 08-06-2019 08:26:17 17.4 C 59 %
284 08-06-2019 08:38:17 17.3 C 59 %
285 08-06-2019 08:50:17 17.3 C 60 %
286 08-06-2019 09:02:18 17.3 C 60 %
287 08-06-2019 09:14:18 17.3 C 60 %
288 08-06-2019 09:26:17 17.3 C 60 %
289 08-06-2019 09:38:17 17.3 C 60 %
290 08-06-2019 09:50:17 17.3 C 60 %
291 08-06-2019 10:02:17 17.3 C 60 %
292 08-06-2019 10:14:17 17.3 C 60 %
293 08-06-2019 10:26:17 17.2 C 60 %
294 08-06-2019 10:38:17 17.2 C 60 %
295 08-06-2019 10:50:17 17.2 C 60 %
296 08-06-2019 11:02:17 17.2 C 60 %
297 08-06-2019 11:14:17 17.2 C 60 %
298 08-06-2019 11:26:17 17.2 C 60 %
299 08-06-2019 11:38:17 17.2 C 60 %
300 08-06-2019 11:50:17 17.2 C 60 %
Sensor: Nr:Datum:Temp:Feuchte:
G-T/H 301 08-06-2019 12:02:17 17.2 C 60 %
302 08-06-2019 12:14:17 17.2 C 60 %
303 08-06-2019 12:26:17 17.2 C 60 %
304 08-06-2019 12:38:17 17.2 C 60 %
305 08-06-2019 12:50:17 17.2 C 60 %
306 08-06-2019 13:02:18 17.2 C 60 %
307 08-06-2019 13:14:18 17.3 C 60 %
308 08-06-2019 13:26:17 17.3 C 60 %
309 08-06-2019 13:38:17 17.3 C 60 %
310 08-06-2019 13:50:17 17.3 C 60 %
311 08-06-2019 14:02:17 17.3 C 59 %
312 08-06-2019 14:14:17 17.3 C 59 %
313 08-06-2019 14:26:17 17.3 C 59 %
314 08-06-2019 14:38:17 17.3 C 60 %
315 08-06-2019 14:50:17 17.3 C 60 %
316 08-06-2019 15:02:18 17.3 C 60 %
317 08-06-2019 15:14:18 17.4 C 60 %
318 08-06-2019 15:26:17 17.4 C 60 %
319 08-06-2019 15:38:17 17.4 C 60 %
320 08-06-2019 15:50:18 17.4 C 60 %
321 08-06-2019 16:02:17 17.5 C 60 %
322 08-06-2019 16:14:17 17.5 C 60 %
323 08-06-2019 16:26:17 17.5 C 60 %
324 08-06-2019 16:38:17 17.5 C 60 %
325 08-06-2019 16:50:17 17.5 C 60 %
Sensor: Nr:Datum:Temp:Feuchte:
G-T/H 326 08-06-2019 17:02:17 17.5 C 60 %
327 08-06-2019 17:14:17 17.5 C 60 %
328 08-06-2019 17:26:17 17.5 C 60 %
329 08-06-2019 17:38:17 17.5 C 60 %
330 08-06-2019 17:50:17 17.6 C 60 %
331 08-06-2019 18:02:18 17.6 C 60 %
332 08-06-2019 18:14:18 17.7 C 60 %
333 08-06-2019 18:26:17 17.6 C 60 %
334 08-06-2019 18:38:17 17.6 C 60 %
335 08-06-2019 18:50:17 17.6 C 60 %
336 08-06-2019 19:02:17 17.6 C 60 %
337 08-06-2019 19:14:17 17.6 C 60 %
338 08-06-2019 19:26:17 17.7 C 61 %
339 08-06-2019 19:38:17 17.7 C 60 %
340 08-06-2019 19:50:17 17.7 C 60 %
341 08-06-2019 20:02:17 17.7 C 60 %
342 08-06-2019 20:14:17 17.7 C 61 %
343 08-06-2019 20:26:17 17.7 C 61 %
344 08-06-2019 20:38:17 17.7 C 61 %
345 08-06-2019 20:50:17 17.7 C 61 %
346 08-06-2019 21:02:17 17.7 C 61 %
347 08-06-2019 21:14:17 17.6 C 61 %
348 08-06-2019 21:26:17 17.6 C 61 %
349 08-06-2019 21:38:17 17.6 C 62 %
350 08-06-2019 21:50:17 17.6 C 62 %
Sensor: Nr:Datum:Temp:Feuchte:
G-T/H 351 08-06-2019 22:02:17 17.6 C 62 %
352 08-06-2019 22:14:17 17.6 C 62 %
353 08-06-2019 22:26:17 17.6 C 62 %
354 08-06-2019 22:38:18 17.5 C 62 %
355 08-06-2019 22:50:17 17.5 C 62 %
356 08-06-2019 23:02:17 17.5 C 62 %
357 08-06-2019 23:14:17 17.5 C 62 %
358 08-06-2019 23:26:17 17.5 C 63 %
359 08-06-2019 23:38:17 17.5 C 63 %
360 08-06-2019 23:50:17 17.5 C 63 %
361 09-06-2019 00:02:17 17.4 C 62 %
362 09-06-2019 00:14:17 17.3 C 62 %
363 09-06-2019 00:26:17 17.3 C 61 %
364 09-06-2019 00:38:17 17.2 C 61 %
365 09-06-2019 00:50:17 17.2 C 61 %
366 09-06-2019 01:02:18 17.2 C 60 %
367 09-06-2019 01:14:18 17.2 C 60 %
368 09-06-2019 01:26:17 17.1 C 60 %
369 09-06-2019 01:38:17 17.1 C 60 %
370 09-06-2019 01:50:18 17 C 59 %
371 09-06-2019 02:02:17 17 C 59 %
372 09-06-2019 02:14:17 16.9 C 60 %
373 09-06-2019 02:26:17 17 C 59 %
374 09-06-2019 02:38:17 16.9 C 60 %
375 09-06-2019 02:50:17 16.8 C 59 %
Sensor: Nr:Datum:Temp:Feuchte:
G-T/H 376 09-06-2019 03:02:17 16.9 C 59 %
377 09-06-2019 03:14:17 16.8 C 59 %
378 09-06-2019 03:26:18 16.8 C 59 %
379 09-06-2019 03:38:17 16.8 C 59 %
380 09-06-2019 03:50:17 16.7 C 59 %
381 09-06-2019 04:02:18 16.7 C 59 %
382 09-06-2019 04:14:18 16.8 C 59 %
383 09-06-2019 04:26:17 16.8 C 59 %
384 09-06-2019 04:38:17 16.8 C 59 %
385 09-06-2019 04:50:17 16.8 C 59 %
386 09-06-2019 05:02:17 16.8 C 59 %
387 09-06-2019 05:14:17 16.8 C 59 %
388 09-06-2019 05:26:17 16.7 C 60 %
389 09-06-2019 05:38:17 16.7 C 60 %
390 09-06-2019 05:50:17 16.7 C 60 %
391 09-06-2019 06:02:18 16.7 C 60 %
392 09-06-2019 06:14:18 16.6 C 60 %
393 09-06-2019 06:26:17 16.6 C 60 %
394 09-06-2019 06:38:17 16.6 C 60 %
395 09-06-2019 06:50:17 16.6 C 60 %
396 09-06-2019 07:02:17 16.6 C 60 %
397 09-06-2019 07:14:17 16.6 C 60 %
398 09-06-2019 07:26:17 16.5 C 60 %
399 09-06-2019 07:38:17 16.5 C 60 %
400 09-06-2019 07:50:17 16.5 C 61 %
Sensor: Nr:Datum:Temp:Feuchte:
G-T/H 401 09-06-2019 08:02:18 16.5 C 61 %
402 09-06-2019 08:14:18 16.5 C 61 %
403 09-06-2019 08:26:17 16.5 C 61 %
404 09-06-2019 08:38:17 16.4 C 61 %
405 09-06-2019 08:50:17 16.4 C 62 %
406 09-06-2019 09:02:17 16.4 C 62 %
407 09-06-2019 09:14:17 16.4 C 62 %
408 09-06-2019 09:26:17 16.4 C 62 %
409 09-06-2019 09:38:17 16.4 C 62 %
410 09-06-2019 09:50:17 16.4 C 62 %
411 09-06-2019 10:02:18 16.4 C 62 %
412 09-06-2019 10:14:18 16.4 C 62 %
413 09-06-2019 10:26:17 16.4 C 62 %
414 09-06-2019 10:38:17 16.4 C 62 %
415 09-06-2019 10:50:17 16.4 C 62 %
416 09-06-2019 11:02:17 16.4 C 62 %
417 09-06-2019 11:14:17 16.4 C 62 %
418 09-06-2019 11:26:17 16.4 C 62 %
419 09-06-2019 11:38:17 16.4 C 62 %
420 09-06-2019 11:50:17 16.4 C 62 %
421 09-06-2019 12:02:17 16.4 C 62 %
422 09-06-2019 12:14:17 16.4 C 62 %
423 09-06-2019 12:26:17 16.5 C 62 %
424 09-06-2019 12:38:17 16.5 C 62 %
425 09-06-2019 12:50:17 16.5 C 62 %
Sensor: Nr:Datum:Temp:Feuchte:
G-T/H 426 09-06-2019 13:02:17 16.6 C 62 %
427 09-06-2019 13:14:17 16.6 C 62 %
428 09-06-2019 13:26:17 16.6 C 62 %
429 09-06-2019 13:38:18 16.7 C 62 %
430 09-06-2019 13:50:17 16.7 C 62 %
431 09-06-2019 14:02:17 16.7 C 62 %
432 09-06-2019 14:14:17 16.8 C 62 %
433 09-06-2019 14:26:17 16.8 C 62 %
434 09-06-2019 14:38:17 16.9 C 62 %
435 09-06-2019 14:50:17 16.9 C 62 %
436 09-06-2019 15:02:17 16.9 C 62 %
437 09-06-2019 15:14:17 17 C 61 %
438 09-06-2019 15:26:18 17 C 61 %
439 09-06-2019 15:38:17 17.1 C 62 %
440 09-06-2019 15:50:17 17.1 C 62 %
441 09-06-2019 16:02:17 17.1 C 62 %
442 09-06-2019 16:14:17 17.1 C 62 %
443 09-06-2019 16:26:17 17.2 C 62 %
444 09-06-2019 16:38:17 17.2 C 62 %
445 09-06-2019 16:50:17 17.2 C 62 %
446 09-06-2019 17:02:18 17.2 C 62 %
447 09-06-2019 17:14:18 17.3 C 62 %
448 09-06-2019 17:26:17 17.3 C 63 %
449 09-06-2019 17:38:17 17.4 C 63 %
450 09-06-2019 17:50:17 17.4 C 63 %
Sensor: Nr:Datum:Temp:Feuchte:
G-T/H 451 09-06-2019 18:02:17 17.5 C 63 %
452 09-06-2019 18:14:17 17.5 C 63 %
453 09-06-2019 18:26:17 17.6 C 63 %
454 09-06-2019 18:38:17 17.6 C 62 %
455 09-06-2019 18:50:17 17.6 C 62 %
456 09-06-2019 19:02:17 17.6 C 63 %
457 09-06-2019 19:14:17 17.6 C 63 %
458 09-06-2019 19:26:17 17.6 C 63 %
459 09-06-2019 19:38:17 17.6 C 63 %
460 09-06-2019 19:50:17 17.7 C 63 %
461 09-06-2019 20:02:17 17.7 C 63 %
462 09-06-2019 20:14:17 17.7 C 63 %
463 09-06-2019 20:26:17 17.7 C 63 %
464 09-06-2019 20:38:18 17.7 C 63 %
465 09-06-2019 20:50:17 17.7 C 63 %
466 09-06-2019 21:02:17 17.7 C 63 %
467 09-06-2019 21:14:17 17.7 C 63 %
468 09-06-2019 21:26:17 17.7 C 63 %
469 09-06-2019 21:38:17 17.7 C 63 %
470 09-06-2019 21:50:17 17.7 C 64 %
471 09-06-2019 22:02:17 17.7 C 64 %
472 09-06-2019 22:14:17 17.7 C 64 %
473 09-06-2019 22:26:17 17.7 C 64 %
474 09-06-2019 22:38:17 17.8 C 64 %
475 09-06-2019 22:50:17 17.7 C 64 %
Sensor: Nr:Datum:Temp:Feuchte:
G-T/H 476 09-06-2019 23:02:17 17.8 C 64 %
477 09-06-2019 23:14:17 17.8 C 64 %
478 09-06-2019 23:26:17 17.7 C 64 %
479 09-06-2019 23:38:17 17.7 C 64 %
480 09-06-2019 23:50:17 17.7 C 64 %
481 10-06-2019 00:02:17 17.7 C 64 %
482 10-06-2019 00:14:17 17.8 C 64 %
483 10-06-2019 00:26:17 17.7 C 64 %
484 10-06-2019 00:38:17 17.8 C 64 %
485 10-06-2019 00:50:17 17.7 C 64 %
486 10-06-2019 01:02:17 17.7 C 64 %
487 10-06-2019 01:14:17 17.7 C 64 %
488 10-06-2019 01:26:17 17.7 C 64 %
489 10-06-2019 01:38:17 17.8 C 64 %
490 10-06-2019 01:50:17 17.8 C 64 %
491 10-06-2019 02:02:17 17.7 C 64 %
492 10-06-2019 02:14:17 17.7 C 64 %
493 10-06-2019 02:26:17 17.7 C 64 %
494 10-06-2019 02:38:17 17.7 C 65 %
495 10-06-2019 02:50:17 17.7 C 65 %
496 10-06-2019 03:02:18 17.7 C 65 %
497 10-06-2019 03:14:18 17.7 C 65 %
498 10-06-2019 03:26:17 17.7 C 65 %
499 10-06-2019 03:38:17 17.7 C 65 %
500 10-06-2019 03:50:17 17.7 C 65 %
Sensor: Nr:Datum:Temp:Feuchte:
G-T/H 501 10-06-2019 04:02:17 17.7 C 65 %
502 10-06-2019 04:14:17 17.7 C 65 %
503 10-06-2019 04:26:17 17.6 C 65 %
504 10-06-2019 04:38:17 17.6 C 65 %
505 10-06-2019 04:50:17 17.6 C 65 %
506 10-06-2019 05:02:18 17.6 C 65 %
507 10-06-2019 05:14:18 17.6 C 65 %
508 10-06-2019 05:26:17 17.6 C 65 %
509 10-06-2019 05:38:17 17.6 C 65 %
510 10-06-2019 05:50:17 17.6 C 65 %
511 10-06-2019 06:02:17 17.6 C 65 %
512 10-06-2019 06:14:17 17.5 C 65 %
513 10-06-2019 06:26:18 17.5 C 65 %
514 10-06-2019 06:38:17 17.5 C 65 %
515 10-06-2019 06:50:17 17.5 C 65 %
516 10-06-2019 07:02:18 17.5 C 65 %
517 10-06-2019 07:14:18 17.5 C 65 %
518 10-06-2019 07:26:17 17.5 C 65 %
519 10-06-2019 07:38:17 17.5 C 65 %
520 10-06-2019 07:50:17 17.5 C 65 %
521 10-06-2019 08:02:17 17.5 C 65 %
522 10-06-2019 08:14:17 17.5 C 65 %
523 10-06-2019 08:26:17 17.5 C 65 %
524 10-06-2019 08:38:17 17.5 C 65 %
525 10-06-2019 08:50:17 17.5 C 65 %
Sensor: Nr:Datum:Temp:Feuchte:
G-T/H 526 10-06-2019 09:02:17 17.5 C 65 %
527 10-06-2019 09:14:17 17.5 C 65 %
528 10-06-2019 09:26:17 17.5 C 65 %
529 10-06-2019 09:38:17 17.6 C 65 %
530 10-06-2019 09:50:17 17.5 C 65 %
531 10-06-2019 10:02:18 17.6 C 65 %
532 10-06-2019 10:14:18 17.5 C 65 %
533 10-06-2019 10:26:17 17.6 C 65 %
534 10-06-2019 10:38:17 17.6 C 65 %
535 10-06-2019 10:50:17 17.6 C 65 %
536 10-06-2019 11:02:17 17.6 C 65 %
537 10-06-2019 11:14:17 17.6 C 65 %
538 10-06-2019 11:26:17 17.6 C 65 %
539 10-06-2019 11:38:18 17.6 C 65 %
540 10-06-2019 11:50:17 17.7 C 65 %
541 10-06-2019 12:02:18 17.6 C 65 %
542 10-06-2019 12:14:18 17.7 C 65 %
543 10-06-2019 12:26:17 17.7 C 65 %
544 10-06-2019 12:38:17 17.7 C 65 %
545 10-06-2019 12:50:17 17.7 C 65 %
546 10-06-2019 13:02:17 17.7 C 65 %
547 10-06-2019 13:14:17 17.8 C 65 %
548 10-06-2019 13:26:17 17.8 C 65 %
549 10-06-2019 13:38:17 17.8 C 65 %
550 10-06-2019 13:50:17 17.9 C 65 %
Sensor: Nr:Datum:Temp:Feuchte:
G-T/H 551 10-06-2019 14:02:18 17.8 C 65 %
552 10-06-2019 14:14:18 17.9 C 65 %
553 10-06-2019 14:26:17 17.9 C 65 %
554 10-06-2019 14:38:18 18 C 64 %
555 10-06-2019 14:50:17 18 C 64 %
556 10-06-2019 15:02:17 18.1 C 64 %
557 10-06-2019 15:14:17 18.1 C 64 %
558 10-06-2019 15:26:17 18.3 C 64 %
559 10-06-2019 15:38:17 18.2 C 64 %
560 10-06-2019 15:50:17 18.2 C 65 %
561 10-06-2019 16:02:17 18.3 C 65 %
562 10-06-2019 16:14:17 18.3 C 65 %
563 10-06-2019 16:26:17 18.3 C 65 %
564 10-06-2019 16:38:17 18.3 C 65 %
565 10-06-2019 16:50:17 18.4 C 65 %
566 10-06-2019 17:02:18 18.4 C 65 %
567 10-06-2019 17:14:18 18.4 C 65 %
568 10-06-2019 17:26:17 18.4 C 65 %
569 10-06-2019 17:38:17 18.4 C 65 %
570 10-06-2019 17:50:17 18.4 C 65 %
571 10-06-2019 18:02:17 18.5 C 65 %
572 10-06-2019 18:14:17 18.5 C 65 %
573 10-06-2019 18:26:18 18.5 C 65 %
574 10-06-2019 18:38:17 18.5 C 65 %
575 10-06-2019 18:50:17 18.5 C 65 %
Sensor: Nr:Datum:Temp:Feuchte:
G-T/H 576 10-06-2019 19:02:17 18.5 C 65 %
577 10-06-2019 19:14:17 18.5 C 65 %
578 10-06-2019 19:26:17 18.6 C 65 %
579 10-06-2019 19:38:17 18.6 C 65 %
580 10-06-2019 19:50:17 18.6 C 65 %
581 10-06-2019 20:02:17 18.6 C 65 %
582 10-06-2019 20:14:17 18.6 C 65 %
583 10-06-2019 20:26:17 18.6 C 65 %
584 10-06-2019 20:38:17 18.6 C 65 %
585 10-06-2019 20:50:17 18.6 C 65 %
586 10-06-2019 21:02:17 18.6 C 65 %
587 10-06-2019 21:14:17 18.6 C 65 %
588 10-06-2019 21:26:17 18.6 C 65 %
589 10-06-2019 21:38:17 18.6 C 65 %
590 10-06-2019 21:50:17 18.6 C 65 %
591 10-06-2019 22:02:17 18.6 C 65 %
592 10-06-2019 22:14:17 18.6 C 65 %
593 10-06-2019 22:26:17 18.6 C 65 %
594 10-06-2019 22:38:17 18.6 C 65 %
595 10-06-2019 22:50:17 18.6 C 65 %
596 10-06-2019 23:02:17 18.6 C 65 %
597 10-06-2019 23:14:17 18.6 C 65 %
598 10-06-2019 23:26:17 18.6 C 65 %
599 10-06-2019 23:38:17 18.6 C 66 %
600 10-06-2019 23:50:18 18.6 C 66 %
Sensor: Nr:Datum:Temp:Feuchte:
G-T/H 601 11-06-2019 00:02:17 18.5 C 66 %
602 11-06-2019 00:14:17 18.5 C 66 %
603 11-06-2019 00:26:17 18.5 C 66 %
604 11-06-2019 00:38:17 18.6 C 66 %
605 11-06-2019 00:50:17 18.5 C 66 %
606 11-06-2019 01:02:17 18.5 C 66 %
607 11-06-2019 01:14:17 18.5 C 66 %
608 11-06-2019 01:26:17 18.5 C 66 %
609 11-06-2019 01:38:17 18.5 C 66 %
610 11-06-2019 01:50:17 18.5 C 66 %
611 11-06-2019 02:02:18 18.5 C 66 %
612 11-06-2019 02:14:18 18.5 C 66 %
613 11-06-2019 02:26:17 18.5 C 66 %
614 11-06-2019 02:38:17 18.4 C 66 %
615 11-06-2019 02:50:17 18.4 C 66 %
616 11-06-2019 03:02:17 18.4 C 66 %
617 11-06-2019 03:14:17 18.4 C 66 %
618 11-06-2019 03:26:18 18.4 C 66 %
619 11-06-2019 03:38:17 18.4 C 66 %
620 11-06-2019 03:50:17 18.3 C 66 %
621 11-06-2019 04:02:17 18.3 C 66 %
622 11-06-2019 04:14:17 18.3 C 66 %
623 11-06-2019 04:26:17 18.3 C 66 %
624 11-06-2019 04:38:17 18.3 C 66 %
625 11-06-2019 04:50:17 18.3 C 66 %
Sensor: Nr:Datum:Temp:Feuchte:
G-T/H 626 11-06-2019 05:02:17 18.2 C 66 %
627 11-06-2019 05:14:17 18.2 C 66 %
628 11-06-2019 05:26:18 18.2 C 66 %
629 11-06-2019 05:38:17 18.2 C 66 %
630 11-06-2019 05:50:17 18.2 C 66 %
631 11-06-2019 06:02:17 18.2 C 66 %
632 11-06-2019 06:14:17 18.1 C 66 %
633 11-06-2019 06:26:17 18.2 C 66 %
634 11-06-2019 06:38:17 18.1 C 66 %
635 11-06-2019 06:50:17 18.1 C 67 %
636 11-06-2019 07:02:18 18.1 C 67 %
637 11-06-2019 07:14:18 18.1 C 67 %
638 11-06-2019 07:26:17 18 C 67 %
639 11-06-2019 07:38:17 18.1 C 67 %
640 11-06-2019 07:50:18 18 C 67 %
641 11-06-2019 08:02:17 18 C 67 %
642 11-06-2019 08:14:17 18 C 67 %
643 11-06-2019 08:26:17 18 C 67 %
644 11-06-2019 08:38:17 18 C 67 %
645 11-06-2019 08:50:17 18 C 67 %
646 11-06-2019 09:02:17 17.9 C 68 %
647 11-06-2019 09:14:17 17.9 C 68 %
648 11-06-2019 09:26:17 17.9 C 68 %
649 11-06-2019 09:38:17 17.9 C 68 %
650 11-06-2019 09:50:17 17.9 C 68 %
Sensor: Nr:Datum:Temp:Feuchte:
G-T/H 651 11-06-2019 10:02:17 17.9 C 68 %
652 11-06-2019 10:14:17 17.9 C 68 %
653 11-06-2019 10:26:17 17.9 C 67 %
654 11-06-2019 10:38:17 17.9 C 67 %
655 11-06-2019 10:50:17 17.9 C 67 %
656 11-06-2019 11:02:17 17.9 C 67 %
657 11-06-2019 11:14:17 17.9 C 67 %
658 11-06-2019 11:26:17 17.9 C 67 %
659 11-06-2019 11:38:17 17.9 C 67 %
660 11-06-2019 11:50:17 17.9 C 67 %
661 11-06-2019 12:02:17 17.9 C 67 %
662 11-06-2019 12:14:17 17.9 C 67 %
663 11-06-2019 12:26:17 17.9 C 67 %
664 11-06-2019 12:38:17 17.9 C 67 %
665 11-06-2019 12:50:17 17.9 C 67 %
666 11-06-2019 13:02:17 17.9 C 67 %
667 11-06-2019 13:14:17 17.9 C 67 %
668 11-06-2019 13:26:17 17.9 C 67 %
669 11-06-2019 13:38:17 17.9 C 67 %
670 11-06-2019 13:50:17 18 C 66 %
671 11-06-2019 14:02:18 18 C 66 %
672 11-06-2019 14:14:18 18 C 66 %
673 11-06-2019 14:26:17 18 C 66 %
674 11-06-2019 14:38:18 18.1 C 66 %
675 11-06-2019 14:50:17 18.1 C 66 %
Sensor: Nr:Datum:Temp:Feuchte:
G-T/H 676 11-06-2019 15:02:17 18.1 C 66 %
677 11-06-2019 15:14:17 18.1 C 66 %
678 11-06-2019 15:26:17 18.1 C 66 %
679 11-06-2019 15:38:17 18.1 C 65 %
680 11-06-2019 15:50:17 18.2 C 65 %
681 11-06-2019 16:02:17 18.2 C 65 %
682 11-06-2019 16:14:17 18.2 C 65 %
683 11-06-2019 16:26:17 18.2 C 65 %
684 11-06-2019 16:38:17 18.2 C 65 %
685 11-06-2019 16:50:17 18.2 C 66 %
686 11-06-2019 17:02:18 18.2 C 66 %
687 11-06-2019 17:14:18 18.2 C 66 %
688 11-06-2019 17:26:17 18.2 C 66 %
689 11-06-2019 17:38:17 18.2 C 66 %
690 11-06-2019 17:50:18 18.2 C 66 %
691 11-06-2019 18:02:17 18.2 C 66 %
692 11-06-2019 18:14:17 18.3 C 66 %
693 11-06-2019 18:26:18 18.3 C 66 %
694 11-06-2019 18:38:17 18.3 C 66 %
695 11-06-2019 18:50:17 18.3 C 66 %
696 11-06-2019 19:02:17 18.3 C 66 %
697 11-06-2019 19:14:17 18.3 C 66 %
698 11-06-2019 19:26:17 18.3 C 66 %
699 11-06-2019 19:38:17 18.4 C 66 %
700 11-06-2019 19:50:17 18.4 C 66 %
Sensor: Nr:Datum:Temp:Feuchte:
G-T/H 701 11-06-2019 20:02:17 18.3 C 66 %
702 11-06-2019 20:14:17 18.3 C 66 %
703 11-06-2019 20:26:17 18.4 C 66 %
704 11-06-2019 20:38:17 18.3 C 66 %
705 11-06-2019 20:50:17 18.4 C 66 %
706 11-06-2019 21:02:17 18.3 C 66 %
707 11-06-2019 21:14:17 18.3 C 66 %
708 11-06-2019 21:26:17 18.3 C 66 %
709 11-06-2019 21:38:17 18.3 C 66 %
710 11-06-2019 21:50:17 18.3 C 67 %
711 11-06-2019 22:02:17 18.3 C 67 %
712 11-06-2019 22:14:17 18.3 C 67 %
713 11-06-2019 22:26:17 18.3 C 67 %
714 11-06-2019 22:38:17 18.3 C 67 %
715 11-06-2019 22:50:17 18.3 C 67 %
716 11-06-2019 23:02:17 18.2 C 67 %
717 11-06-2019 23:14:18 18.2 C 67 %
718 11-06-2019 23:26:17 18.2 C 67 %
719 11-06-2019 23:38:17 18.2 C 67 %
720 11-06-2019 23:50:17 18.2 C 67 %
721 12-06-2019 00:02:17 18.2 C 67 %
722 12-06-2019 00:14:17 18.2 C 67 %
723 12-06-2019 00:26:17 18.2 C 67 %
724 12-06-2019 00:38:17 18.1 C 67 %
725 12-06-2019 00:50:17 18.1 C 67 %
Sensor: Nr:Datum:Temp:Feuchte:
G-T/H 726 12-06-2019 01:02:17 18.1 C 67 %
727 12-06-2019 01:14:17 18.1 C 67 %
728 12-06-2019 01:26:17 18.1 C 67 %
729 12-06-2019 01:38:17 18.1 C 67 %
730 12-06-2019 01:50:17 18.1 C 67 %
731 12-06-2019 02:02:17 18.1 C 67 %
732 12-06-2019 02:14:17 18 C 67 %
733 12-06-2019 02:26:17 18.1 C 67 %
734 12-06-2019 02:38:17 18.1 C 67 %
735 12-06-2019 02:50:17 18 C 67 %
736 12-06-2019 03:02:18 18 C 67 %
737 12-06-2019 03:14:18 18 C 67 %
738 12-06-2019 03:26:17 18 C 67 %
739 12-06-2019 03:38:17 18 C 67 %
740 12-06-2019 03:50:17 18 C 67 %
741 12-06-2019 04:02:17 17.9 C 68 %
742 12-06-2019 04:14:17 17.9 C 68 %
743 12-06-2019 04:26:17 17.9 C 68 %
744 12-06-2019 04:38:17 17.9 C 68 %
745 12-06-2019 04:50:17 17.9 C 68 %
746 12-06-2019 05:02:18 17.9 C 68 %
747 12-06-2019 05:14:18 17.9 C 68 %
748 12-06-2019 05:26:17 17.8 C 68 %
749 12-06-2019 05:38:17 17.9 C 68 %
750 12-06-2019 05:50:17 17.8 C 68 %
Sensor: Nr:Datum:Temp:Feuchte:
G-T/H 751 12-06-2019 06:02:18 17.8 C 68 %
752 12-06-2019 06:14:18 17.8 C 68 %
753 12-06-2019 06:26:17 17.7 C 68 %
754 12-06-2019 06:38:17 17.7 C 68 %
755 12-06-2019 06:50:17 17.7 C 68 %
756 12-06-2019 07:02:17 17.7 C 68 %
757 12-06-2019 07:14:17 17.7 C 68 %
758 12-06-2019 07:26:17 17.7 C 68 %
759 12-06-2019 07:38:18 17.7 C 68 %
760 12-06-2019 07:50:17 17.7 C 68 %
761 12-06-2019 08:02:17 17.7 C 68 %
762 12-06-2019 08:14:17 17.7 C 68 %
763 12-06-2019 08:26:17 17.7 C 68 %
764 12-06-2019 08:38:17 17.7 C 68 %
765 12-06-2019 08:50:17 17.7 C 68 %
766 12-06-2019 09:02:18 17.7 C 68 %
767 12-06-2019 09:14:18 17.7 C 68 %
768 12-06-2019 09:26:17 17.7 C 68 %
769 12-06-2019 09:38:18 17.6 C 68 %
770 12-06-2019 09:50:17 17.6 C 68 %
771 12-06-2019 10:02:17 17.6 C 68 %
772 12-06-2019 10:14:17 17.6 C 68 %
773 12-06-2019 10:26:17 17.6 C 68 %
774 12-06-2019 10:38:17 17.6 C 68 %
775 12-06-2019 10:50:17 17.6 C 68 %
Sensor: Nr:Datum:Temp:Feuchte:
G-T/H 776 12-06-2019 11:02:17 17.5 C 68 %
777 12-06-2019 11:14:17 17.5 C 68 %
778 12-06-2019 11:26:17 17.5 C 68 %
779 12-06-2019 11:38:17 17.5 C 68 %
780 12-06-2019 11:50:17 17.5 C 68 %
781 12-06-2019 12:02:18 17.5 C 68 %
782 12-06-2019 12:14:18 17.5 C 68 %
783 12-06-2019 12:26:17 17.4 C 68 %
784 12-06-2019 12:38:17 17.5 C 68 %
785 12-06-2019 12:50:17 17.5 C 68 %
786 12-06-2019 13:02:17 17.4 C 68 %
787 12-06-2019 13:14:17 17.4 C 68 %
788 12-06-2019 13:26:17 17.4 C 68 %
789 12-06-2019 13:38:17 17.4 C 68 %
790 12-06-2019 13:50:17 17.5 C 68 %
791 12-06-2019 14:02:17 17.5 C 68 %
792 12-06-2019 14:14:17 17.5 C 68 %
793 12-06-2019 14:26:17 17.5 C 68 %
794 12-06-2019 14:38:17 17.5 C 68 %
795 12-06-2019 14:50:17 17.5 C 68 %
796 12-06-2019 15:02:17 17.5 C 68 %
797 12-06-2019 15:14:17 17.5 C 68 %
798 12-06-2019 15:26:17 17.5 C 68 %
799 12-06-2019 15:38:17 17.5 C 68 %
800 12-06-2019 15:50:17 17.5 C 67 %
Sensor: Nr:Datum:Temp:Feuchte:
G-T/H 801 12-06-2019 16:02:17 17.5 C 67 %
802 12-06-2019 16:14:17 17.5 C 67 %
803 12-06-2019 16:26:17 17.5 C 67 %
804 12-06-2019 16:38:17 17.5 C 67 %
805 12-06-2019 16:50:17 17.5 C 67 %
806 12-06-2019 17:02:17 17.5 C 67 %
807 12-06-2019 17:14:17 17.6 C 67 %
808 12-06-2019 17:26:17 17.5 C 67 %
809 12-06-2019 17:38:17 17.5 C 67 %
810 12-06-2019 17:50:17 17.5 C 67 %
811 12-06-2019 18:02:17 17.6 C 67 %
812 12-06-2019 18:14:17 17.6 C 67 %
813 12-06-2019 18:26:18 17.6 C 67 %
814 12-06-2019 18:38:17 17.7 C 67 %
815 12-06-2019 18:50:17 17.7 C 67 %
816 12-06-2019 19:02:17 17.7 C 66 %
817 12-06-2019 19:14:17 17.7 C 66 %
818 12-06-2019 19:26:17 17.7 C 66 %
819 12-06-2019 19:38:17 17.8 C 66 %
820 12-06-2019 19:50:17 17.7 C 66 %
821 12-06-2019 20:02:17 17.8 C 66 %
822 12-06-2019 20:14:18 17.8 C 66 %
823 12-06-2019 20:26:17 17.8 C 66 %
824 12-06-2019 20:38:17 17.8 C 66 %
825 12-06-2019 20:50:17 17.8 C 66 %
Sensor: Nr:Datum:Temp:Feuchte:
G-T/H 826 12-06-2019 21:02:17 17.8 C 66 %
827 12-06-2019 21:14:17 17.7 C 66 %
828 12-06-2019 21:26:17 17.7 C 67 %
829 12-06-2019 21:38:17 17.7 C 67 %
830 12-06-2019 21:50:17 17.7 C 67 %
831 12-06-2019 22:02:18 17.7 C 67 %
832 12-06-2019 22:14:18 17.6 C 67 %
833 12-06-2019 22:26:17 17.6 C 67 %
834 12-06-2019 22:38:17 17.6 C 67 %
835 12-06-2019 22:50:17 17.5 C 67 %
836 12-06-2019 23:02:17 17.5 C 67 %
837 12-06-2019 23:14:17 17.5 C 67 %
838 12-06-2019 23:26:17 17.5 C 67 %
839 12-06-2019 23:38:17 17.5 C 67 %
840 12-06-2019 23:50:17 17.5 C 67 %
841 13-06-2019 00:02:17 17.5 C 67 %
842 13-06-2019 00:14:17 17.4 C 67 %
843 13-06-2019 00:26:17 17.5 C 67 %
844 13-06-2019 00:38:17 17.4 C 68 %
845 13-06-2019 00:50:17 17.4 C 68 %
846 13-06-2019 01:02:17 17.4 C 68 %
847 13-06-2019 01:14:17 17.3 C 68 %
848 13-06-2019 01:26:17 17.3 C 68 %
849 13-06-2019 01:38:17 17.3 C 68 %
850 13-06-2019 01:50:17 17.3 C 68 %
Sensor: Nr:Datum:Temp:Feuchte:
G-T/H 851 13-06-2019 02:02:17 17.3 C 67 %
852 13-06-2019 02:14:17 17.3 C 67 %
853 13-06-2019 02:26:17 17.2 C 67 %
854 13-06-2019 02:38:17 17.2 C 67 %
855 13-06-2019 02:50:17 17.2 C 67 %
856 13-06-2019 03:02:17 17.1 C 67 %
857 13-06-2019 03:14:17 17.2 C 67 %
858 13-06-2019 03:26:17 17.1 C 67 %
859 13-06-2019 03:38:17 17.1 C 66 %
860 13-06-2019 03:50:18 17.1 C 66 %
861 13-06-2019 04:02:17 17.1 C 66 %
862 13-06-2019 04:14:17 17 C 66 %
863 13-06-2019 04:26:17 16.9 C 66 %
864 13-06-2019 04:38:17 16.9 C 65 %
865 13-06-2019 04:50:17 16.8 C 65 %
866 13-06-2019 05:02:18 16.8 C 64 %
867 13-06-2019 05:14:18 16.8 C 64 %
868 13-06-2019 05:26:17 16.7 C 64 %
869 13-06-2019 05:38:17 16.7 C 63 %
870 13-06-2019 05:50:17 16.6 C 63 %
871 13-06-2019 06:02:17 16.6 C 63 %
872 13-06-2019 06:14:17 16.6 C 63 %
873 13-06-2019 06:26:17 16.6 C 63 %
874 13-06-2019 06:38:18 16.6 C 63 %
875 13-06-2019 06:50:17 16.6 C 63 %
Sensor: Nr:Datum:Temp:Feuchte:
G-T/H 876 13-06-2019 07:02:17 16.6 C 63 %
877 13-06-2019 07:14:17 16.6 C 64 %
878 13-06-2019 07:26:17 16.2 C 63 %
879 13-06-2019 07:38:17 15 C 64 %
880 13-06-2019 07:50:17 14.8 C 65 %
881 13-06-2019 08:02:17 14.7 C 66 %
882 13-06-2019 08:14:17 14.8 C 67 %
883 13-06-2019 08:26:17 14.9 C 67 %
884 13-06-2019 08:38:17 15 C 66 %
885 13-06-2019 08:50:17 15.3 C 66 %
886 13-06-2019 09:02:18 15.5 C 66 %
887 13-06-2019 09:14:18 15.9 C 65 %
888 13-06-2019 09:26:17 16.1 C 63 %
889 13-06-2019 09:38:18 16.2 C 63 %
890 13-06-2019 09:50:17 16.4 C 62 %
891 13-06-2019 10:02:17 16.4 C 62 %
892 13-06-2019 10:14:17 16.6 C 61 %
893 13-06-2019 10:26:17 16.7 C 60 %
894 13-06-2019 10:38:17 16.8 C 59 %
895 13-06-2019 10:50:17 16.9 C 59 %
896 13-06-2019 11:02:17 17 C 57 %
897 13-06-2019 11:14:17 17.3 C 57 %
898 13-06-2019 11:26:17 17.4 C 56 %
899 13-06-2019 11:38:17 17.7 C 55 %
900 13-06-2019 11:50:17 17.8 C 55 %
Sensor: Nr:Datum:Temp:Feuchte:
G-T/H 901 13-06-2019 12:02:17 17.9 C 55 %
902 13-06-2019 12:14:18 17.8 C 54 %
903 13-06-2019 12:26:17 17.8 C 54 %
904 13-06-2019 12:38:17 17.9 C 53 %
905 13-06-2019 12:50:17 17.9 C 52 %
906 13-06-2019 13:02:18 18.2 C 51 %
907 13-06-2019 13:14:18 18.5 C 51 %
908 13-06-2019 13:26:17 18.8 C 50 %
909 13-06-2019 13:38:17 18.9 C 50 %
910 13-06-2019 13:50:17 18.9 C 49 %
911 13-06-2019 14:02:17 19.1 C 49 %
912 13-06-2019 14:14:17 19.1 C 48 %
913 13-06-2019 14:26:17 18.9 C 49 %
914 13-06-2019 14:38:17 19.1 C 48 %
915 13-06-2019 14:50:17 19.2 C 47 %
916 13-06-2019 15:02:18 19.3 C 47 %
917 13-06-2019 15:14:18 19.4 C 47 %
918 13-06-2019 15:26:17 19.6 C 46 %
919 13-06-2019 15:38:17 19.5 C 46 %
920 13-06-2019 15:50:17 19.7 C 46 %
921 13-06-2019 16:02:17 20 C 45 %
922 13-06-2019 16:14:17 20 C 44 %
923 13-06-2019 16:26:17 20.2 C 44 %
924 13-06-2019 16:38:17 20.2 C 45 %
925 13-06-2019 16:50:18 20.1 C 45 %
Sensor: Nr:Datum:Temp:Feuchte:
G-T/H 926 13-06-2019 17:02:17 20 C 46 %
927 13-06-2019 17:14:17 19.8 C 48 %
928 13-06-2019 17:26:17 19.7 C 49 %
929 13-06-2019 17:38:17 19.7 C 49 %
930 13-06-2019 17:50:17 19.6 C 50 %
931 13-06-2019 18:02:17 19.5 C 51 %
932 13-06-2019 18:14:17 19.5 C 51 %
933 13-06-2019 18:26:17 19.5 C 51 %
934 13-06-2019 18:38:17 19.5 C 52 %
935 13-06-2019 18:50:17 19.4 C 52 %
936 13-06-2019 19:02:18 19.4 C 52 %
937 13-06-2019 19:14:18 19.3 C 53 %
938 13-06-2019 19:26:17 19.3 C 53 %
939 13-06-2019 19:38:18 19.2 C 54 %
940 13-06-2019 19:50:17 19.2 C 54 %
941 13-06-2019 20:02:17 19.1 C 54 %
942 13-06-2019 20:14:17 19.1 C 55 %
943 13-06-2019 20:26:17 19.1 C 55 %
944 13-06-2019 20:38:17 19.1 C 55 %
945 13-06-2019 20:50:17 19.1 C 55 %
946 13-06-2019 21:02:18 19.1 C 56 %
947 13-06-2019 21:14:18 19 C 56 %
948 13-06-2019 21:26:17 19 C 56 %
949 13-06-2019 21:38:18 18.9 C 57 %
950 13-06-2019 21:50:17 18.8 C 58 %
Sensor: Nr:Datum:Temp:Feuchte:
G-T/H 951 13-06-2019 22:02:17 18.8 C 58 %
952 13-06-2019 22:14:17 18.8 C 58 %
953 13-06-2019 22:26:18 18.8 C 58 %
954 13-06-2019 22:38:17 18.7 C 58 %
955 13-06-2019 22:50:17 18.7 C 59 %
956 13-06-2019 23:02:17 18.6 C 59 %
957 13-06-2019 23:14:17 18.6 C 59 %
958 13-06-2019 23:26:17 18.6 C 59 %
959 13-06-2019 23:38:17 18.5 C 59 %
960 13-06-2019 23:50:17 18.5 C 59 %
961 14-06-2019 00:02:17 18.5 C 59 %
962 14-06-2019 00:14:17 18.4 C 60 %
963 14-06-2019 00:26:17 18.4 C 60 %
964 14-06-2019 00:38:18 18.3 C 60 %
965 14-06-2019 00:50:17 18.3 C 60 %
966 14-06-2019 01:02:17 18.3 C 60 %
967 14-06-2019 01:14:17 18.3 C 60 %
968 14-06-2019 01:26:18 18.2 C 60 %
969 14-06-2019 01:38:17 18.2 C 61 %
970 14-06-2019 01:50:17 18.2 C 61 %
971 14-06-2019 02:02:17 18.1 C 61 %
972 14-06-2019 02:14:18 18.1 C 61 %
973 14-06-2019 02:26:17 18.1 C 61 %
974 14-06-2019 02:38:17 18 C 61 %
975 14-06-2019 02:50:17 18.1 C 61 %
Sensor: Nr:Datum:Temp:Feuchte:
G-T/H 976 14-06-2019 03:02:18 18 C 61 %
977 14-06-2019 03:14:18 18 C 61 %
978 14-06-2019 03:26:17 17.9 C 62 %
979 14-06-2019 03:38:18 17.9 C 62 %
980 14-06-2019 03:50:18 17.9 C 62 %
981 14-06-2019 04:02:17 17.9 C 62 %
982 14-06-2019 04:14:17 17.8 C 63 %
983 14-06-2019 04:26:17 17.8 C 63 %
984 14-06-2019 04:38:17 17.8 C 63 %
985 14-06-2019 04:50:17 17.7 C 63 %
986 14-06-2019 05:02:17 17.7 C 63 %
987 14-06-2019 05:14:17 17.7 C 63 %
988 14-06-2019 05:26:17 17.6 C 63 %
989 14-06-2019 05:38:18 17.6 C 63 %
990 14-06-2019 05:50:17 17.6 C 63 %
991 14-06-2019 06:02:17 17.6 C 63 %
992 14-06-2019 06:14:17 17.6 C 63 %
993 14-06-2019 06:26:17 17.5 C 63 %
994 14-06-2019 06:38:17 17.5 C 63 %
995 14-06-2019 06:50:17 17.5 C 63 %
996 14-06-2019 07:02:18 17.5 C 63 %
997 14-06-2019 07:14:18 17.4 C 63 %
998 14-06-2019 07:26:17 17.4 C 63 %
999 14-06-2019 07:38:18 17.4 C 63 %
1000 14-06-2019 07:50:17 17.4 C 63 %
Sensor: Nr:Datum:Temp:Feuchte:
G-T/H 1001 14-06-2019 08:02:17 17.1 C 63 %
1002 14-06-2019 08:14:17 16.1 C 64 %
1003 14-06-2019 08:26:17 15.7 C 66 %
1004 14-06-2019 08:38:17 15.7 C 67 %
1005 14-06-2019 08:50:17 15.9 C 68 %
1006 14-06-2019 09:02:17 15.8 C 69 %
1007 14-06-2019 09:14:17 15.9 C 70 %
1008 14-06-2019 09:26:17 16.2 C 70 %
1009 14-06-2019 09:38:17 16.5 C 71 %
1010 14-06-2019 09:50:17 16.8 C 72 %
1011 14-06-2019 10:02:17 17.1 C 71 %
1012 14-06-2019 10:14:17 17.3 C 72 %
1013 14-06-2019 10:26:17 17.5 C 72 %
1014 14-06-2019 10:38:17 17.6 C 73 %
1015 14-06-2019 10:50:17 17.9 C 74 %
1016 14-06-2019 11:02:17 18.2 C 74 %
1017 14-06-2019 11:14:17 18.5 C 75 %
1018 14-06-2019 11:26:17 18.8 C 75 %
1019 14-06-2019 11:38:17 19.1 C 74 %
1020 14-06-2019 11:50:18 19.4 C 72 %
1021 14-06-2019 12:02:17 19.6 C 71 %
1022 14-06-2019 12:14:17 19.8 C 67 %
1023 14-06-2019 12:26:17 20 C 61 %
1024 14-06-2019 12:38:17 20.3 C 59 %
1025 14-06-2019 12:50:18 20.6 C 60 %
Sensor: Nr:Datum:Temp:Feuchte:
G-T/H 1026 14-06-2019 13:02:17 20.9 C 60 %
1027 14-06-2019 13:14:17 21.1 C 56 %
1028 14-06-2019 13:26:17 21.3 C 56 %
1029 14-06-2019 13:38:17 21.5 C 52 %
1030 14-06-2019 13:50:17 21.9 C 50 %
1031 14-06-2019 14:02:17 22.2 C 48 %
1032 14-06-2019 14:14:17 22.5 C 47 %
1033 14-06-2019 14:26:17 22.7 C 47 %
1034 14-06-2019 14:38:17 22.6 C 47 %
1035 14-06-2019 14:50:17 22.7 C 49 %
1036 14-06-2019 15:02:17 22.7 C 49 %
1037 14-06-2019 15:14:17 22.9 C 50 %
1038 14-06-2019 15:26:17 22.8 C 48 %
1039 14-06-2019 15:38:18 22.8 C 46 %
1040 14-06-2019 15:50:17 22.8 C 46 %
1041 14-06-2019 16:02:17 22.9 C 47 %
1042 14-06-2019 16:14:17 22.8 C 46 %
1043 14-06-2019 16:26:17 22.8 C 49 %
1044 14-06-2019 16:38:17 22.8 C 49 %
1045 14-06-2019 16:50:17 22.7 C 51 %
1046 14-06-2019 17:02:17 22.6 C 51 %
1047 14-06-2019 17:14:17 22.7 C 51 %
1048 14-06-2019 17:26:17 22.7 C 52 %
1049 14-06-2019 17:38:18 22.6 C 53 %
1050 14-06-2019 17:50:17 22.5 C 54 %
Sensor: Nr:Datum:Temp:Feuchte:
G-T/H 1051 14-06-2019 18:02:17 22.5 C 55 %
1052 14-06-2019 18:14:17 22.5 C 55 %
1053 14-06-2019 18:26:18 22.6 C 55 %
1054 14-06-2019 18:38:17 22.5 C 56 %
1055 14-06-2019 18:50:17 22.5 C 57 %
1056 14-06-2019 19:02:17 22.3 C 57 %
1057 14-06-2019 19:14:17 22.2 C 56 %
1058 14-06-2019 19:26:17 22.1 C 56 %
1059 14-06-2019 19:38:17 21.9 C 57 %
1060 14-06-2019 19:50:17 21.7 C 59 %
1061 14-06-2019 20:02:17 21.5 C 59 %
1062 14-06-2019 20:14:17 21.2 C 60 %
1063 14-06-2019 20:26:17 21.1 C 60 %
1064 14-06-2019 20:38:17 20.9 C 62 %
1065 14-06-2019 20:50:17 20.7 C 62 %
1066 14-06-2019 21:02:18 20.6 C 63 %
1067 14-06-2019 21:14:18 20.4 C 63 %
1068 14-06-2019 21:26:18 20.3 C 64 %
1069 14-06-2019 21:38:17 20.3 C 64 %
1070 14-06-2019 21:50:17 20.3 C 63 %
1071 14-06-2019 22:02:18 20.3 C 63 %
1072 14-06-2019 22:14:18 20.3 C 63 %
1073 14-06-2019 22:26:17 20.4 C 62 %
1074 14-06-2019 22:38:18 20.3 C 62 %
1075 14-06-2019 22:50:17 20.3 C 63 %
Sensor: Nr:Datum:Temp:Feuchte:
G-T/H 1076 14-06-2019 23:02:17 20.2 C 63 %
1077 14-06-2019 23:14:17 20.1 C 63 %
1078 14-06-2019 23:26:18 20 C 64 %
1079 14-06-2019 23:38:17 20 C 64 %
1080 14-06-2019 23:50:17 19.8 C 66 %
1081 15-06-2019 00:02:17 19.7 C 67 %
1082 15-06-2019 00:14:17 19.4 C 69 %
1083 15-06-2019 00:26:17 19.2 C 69 %
1084 15-06-2019 00:38:17 19.1 C 70 %
1085 15-06-2019 00:50:17 18.9 C 71 %
1086 15-06-2019 01:02:17 18.8 C 72 %
1087 15-06-2019 01:14:17 18.7 C 72 %
1088 15-06-2019 01:26:17 18.7 C 72 %
1089 15-06-2019 01:38:18 18.5 C 72 %
1090 15-06-2019 01:50:17 18.4 C 72 %
1091 15-06-2019 02:02:17 18.3 C 72 %
1092 15-06-2019 02:14:17 18.2 C 72 %
1093 15-06-2019 02:26:17 18.1 C 72 %
1094 15-06-2019 02:38:17 18 C 72 %
1095 15-06-2019 02:50:17 17.9 C 73 %
1096 15-06-2019 03:02:17 17.8 C 73 %
1097 15-06-2019 03:14:17 17.7 C 73 %
1098 15-06-2019 03:26:18 17.7 C 73 %
1099 15-06-2019 03:38:17 17.6 C 73 %
1100 15-06-2019 03:50:17 17.7 C 73 %
Sensor: Nr:Datum:Temp:Feuchte:
G-T/H 1101 15-06-2019 04:02:17 17.6 C 73 %
1102 15-06-2019 04:14:18 17.6 C 74 %
1103 15-06-2019 04:26:17 17.5 C 73 %
1104 15-06-2019 04:38:17 17.5 C 73 %
1105 15-06-2019 04:50:18 17.5 C 74 %
1106 15-06-2019 05:02:17 17.4 C 74 %
1107 15-06-2019 05:14:17 17.3 C 73 %
1108 15-06-2019 05:26:17 17.2 C 73 %
1109 15-06-2019 05:38:17 17.3 C 73 %
1110 15-06-2019 05:50:17 17.4 C 74 %
1111 15-06-2019 06:02:17 17.4 C 74 %
1112 15-06-2019 06:14:17 17.4 C 74 %
1113 15-06-2019 06:26:17 17.5 C 74 %
1114 15-06-2019 06:38:17 17.5 C 74 %
1115 15-06-2019 06:50:17 17.5 C 74 %
1116 15-06-2019 07:02:17 17.6 C 74 %
1117 15-06-2019 07:14:17 17.6 C 74 %
1118 15-06-2019 07:26:18 17.7 C 75 %
1119 15-06-2019 07:38:17 17.7 C 75 %
1120 15-06-2019 07:50:17 17.7 C 75 %
1121 15-06-2019 08:02:18 17.9 C 75 %
1122 15-06-2019 08:14:18 17.9 C 75 %
1123 15-06-2019 08:26:17 18.1 C 74 %
1124 15-06-2019 08:38:17 18.2 C 75 %
1125 15-06-2019 08:50:17 18.3 C 74 %
Sensor: Nr:Datum:Temp:Feuchte:
G-T/H 1126 15-06-2019 09:02:17 18.4 C 74 %
1127 15-06-2019 09:14:17 18.5 C 74 %
1128 15-06-2019 09:26:17 18.6 C 74 %
1129 15-06-2019 09:38:17 18.7 C 73 %
1130 15-06-2019 09:50:17 18.9 C 73 %
1131 15-06-2019 10:02:18 19.1 C 72 %
1132 15-06-2019 10:14:18 19.1 C 71 %
1133 15-06-2019 10:26:17 19.2 C 71 %
1134 15-06-2019 10:38:17 19.3 C 70 %
1135 15-06-2019 10:50:17 19.4 C 70 %
1136 15-06-2019 11:02:17 19.5 C 69 %
1137 15-06-2019 11:14:17 19.6 C 68 %
1138 15-06-2019 11:26:17 19.7 C 66 %
1139 15-06-2019 11:38:17 19.9 C 65 %
1140 15-06-2019 11:50:17 19.9 C 64 %
1141 15-06-2019 12:02:17 20 C 62 %
1142 15-06-2019 12:14:17 20.1 C 61 %
1143 15-06-2019 12:26:17 20.1 C 61 %
1144 15-06-2019 12:38:17 20.2 C 61 %
1145 15-06-2019 12:50:17 20.2 C 61 %
1146 15-06-2019 13:02:17 20.1 C 61 %
1147 15-06-2019 13:14:17 20 C 62 %
1148 15-06-2019 13:26:17 20 C 62 %
1149 15-06-2019 13:38:17 20.3 C 62 %
1150 15-06-2019 13:50:17 20.4 C 62 %
Sensor: Nr:Datum:Temp:Feuchte:
G-T/H 1151 15-06-2019 14:02:17 20.3 C 63 %
1152 15-06-2019 14:14:17 20.5 C 63 %
1153 15-06-2019 14:26:17 20.5 C 63 %
1154 15-06-2019 14:38:17 20.5 C 63 %
1155 15-06-2019 14:50:17 20.3 C 62 %
1156 15-06-2019 15:02:17 20.2 C 62 %
1157 15-06-2019 15:14:17 20.3 C 62 %
1158 15-06-2019 15:26:17 20.4 C 62 %
1159 15-06-2019 15:38:17 20.5 C 62 %
1160 15-06-2019 15:50:17 20.5 C 61 %
1161 15-06-2019 16:02:18 20.6 C 61 %
1162 15-06-2019 16:14:18 20.8 C 61 %
1163 15-06-2019 16:26:17 20.8 C 60 %
1164 15-06-2019 16:38:17 21 C 60 %
1165 15-06-2019 16:50:17 21.2 C 59 %
1166 15-06-2019 17:02:17 21.3 C 57 %
1167 15-06-2019 17:14:17 21.4 C 57 %
1168 15-06-2019 17:26:17 21.6 C 57 %
1169 15-06-2019 17:38:17 21.6 C 56 %
1170 15-06-2019 17:50:17 21.6 C 55 %
1171 15-06-2019 18:02:17 21.8 C 55 %
1172 15-06-2019 18:14:17 22 C 54 %
1173 15-06-2019 18:26:17 22.3 C 52 %
1174 15-06-2019 18:38:18 22.5 C 50 %
1175 15-06-2019 18:50:17 22.5 C 48 %
Sensor: Nr:Datum:Temp:Feuchte:
G-T/H 1176 15-06-2019 19:02:17 22.8 C 47 %
1177 15-06-2019 19:14:17 22.7 C 47 %
1178 15-06-2019 19:26:17 22.6 C 47 %
1179 15-06-2019 19:38:17 22.5 C 48 %
1180 15-06-2019 19:50:17 22.2 C 51 %
1181 15-06-2019 20:02:17 22.2 C 52 %
1182 15-06-2019 20:14:17 22.2 C 52 %
1183 15-06-2019 20:26:17 22 C 53 %
1184 15-06-2019 20:38:17 22.1 C 53 %
1185 15-06-2019 20:50:17 22 C 54 %
1186 15-06-2019 21:02:17 21.8 C 55 %
1187 15-06-2019 21:14:17 21.4 C 57 %
1188 15-06-2019 21:26:17 21.1 C 57 %
1189 15-06-2019 21:38:17 20.8 C 58 %
1190 15-06-2019 21:50:17 20.6 C 58 %
1191 15-06-2019 22:03:17 20.7 C 59 %
1192 15-06-2019 22:14:17 20.7 C 59 %
1193 15-06-2019 22:26:17 20.7 C 59 %
1194 15-06-2019 22:39:17 20.6 C 59 %
1195 15-06-2019 22:50:17 20.6 C 59 %
1196 15-06-2019 23:02:17 20.5 C 59 %
1197 15-06-2019 23:14:17 20.5 C 60 %
1198 15-06-2019 23:26:17 20.5 C 60 %
1199 15-06-2019 23:38:17 20.4 C 60 %
1200 15-06-2019 23:50:18 20.4 C 60 %
Sensor: Nr:Datum:Temp:Feuchte:
G-T/H 1201 16-06-2019 00:03:17 20.4 C 60 %
1202 16-06-2019 00:14:17 20.3 C 60 %
1203 16-06-2019 00:26:18 20.3 C 60 %
1204 16-06-2019 00:39:17 20.2 C 61 %
1205 16-06-2019 00:50:17 20.2 C 61 %
1206 16-06-2019 01:02:17 20.2 C 61 %
1207 16-06-2019 01:14:17 20.2 C 61 %
1208 16-06-2019 01:27:17 20.1 C 61 %
1209 16-06-2019 01:38:17 20 C 61 %
1210 16-06-2019 01:50:18 20 C 61 %
1211 16-06-2019 02:03:17 20 C 61 %
1212 16-06-2019 02:14:17 20 C 61 %
1213 16-06-2019 02:26:17 20 C 61 %
1214 16-06-2019 02:39:17 19.9 C 62 %
1215 16-06-2019 02:50:17 19.9 C 62 %
1216 16-06-2019 03:03:17 19.9 C 62 %
1217 16-06-2019 03:14:17 19.9 C 62 %
1218 16-06-2019 03:26:17 19.8 C 62 %
1219 16-06-2019 03:38:18 19.8 C 62 %
1220 16-06-2019 03:51:17 19.7 C 63 %
1221 16-06-2019 04:03:17 19.8 C 63 %
1222 16-06-2019 04:15:17 19.7 C 63 %
1223 16-06-2019 04:27:17 19.7 C 63 %
1224 16-06-2019 04:39:17 19.7 C 63 %
1225 16-06-2019 04:51:17 19.6 C 63 %
Sensor: Nr:Datum:Temp:Feuchte:
G-T/H 1226 16-06-2019 05:03:18 19.6 C 63 %
1227 16-06-2019 05:15:17 19.6 C 63 %
1228 16-06-2019 05:27:17 19.6 C 63 %
1229 16-06-2019 05:39:17 19.5 C 63 %
1230 16-06-2019 05:51:17 19.5 C 63 %
1231 16-06-2019 06:03:17 19.5 C 63 %
1232 16-06-2019 06:15:17 19.5 C 63 %
1233 16-06-2019 06:27:17 19.5 C 63 %
1234 16-06-2019 06:39:17 19.4 C 63 %
1235 16-06-2019 06:51:17 19.4 C 63 %
1236 16-06-2019 07:03:17 19.4 C 63 %
1237 16-06-2019 07:15:17 19.3 C 63 %
1238 16-06-2019 07:27:17 19.3 C 63 %
1239 16-06-2019 07:39:17 19.3 C 63 %
1240 16-06-2019 07:51:17 19.3 C 63 %
1241 16-06-2019 08:03:17 19.3 C 63 %
1242 16-06-2019 08:15:17 19.3 C 63 %
1243 16-06-2019 08:27:17 19.3 C 63 %
1244 16-06-2019 08:39:17 19.2 C 63 %
1245 16-06-2019 08:51:17 19.2 C 63 %
1246 16-06-2019 09:03:17 19.1 C 63 %
1247 16-06-2019 09:15:16 19.1 C 63 %
1248 16-06-2019 09:27:16 19.2 C 63 %
1249 16-06-2019 09:39:17 19.1 C 63 %
1250 16-06-2019 09:51:17 19.1 C 63 %
Sensor: Nr:Datum:Temp:Feuchte:
G-T/H 1251 16-06-2019 10:03:17 19.1 C 63 %
1252 16-06-2019 10:15:17 19.1 C 63 %
1253 16-06-2019 10:27:17 19.1 C 63 %
1254 16-06-2019 10:39:17 19.1 C 63 %
1255 16-06-2019 10:51:17 19.1 C 63 %
1256 16-06-2019 11:03:17 19.1 C 63 %
1257 16-06-2019 11:15:17 19.1 C 63 %
1258 16-06-2019 11:27:17 19.1 C 63 %
1259 16-06-2019 11:39:17 19.1 C 63 %
1260 16-06-2019 11:51:17 19.1 C 63 %
1261 16-06-2019 12:03:17 19.1 C 63 %
1262 16-06-2019 12:15:16 19.1 C 63 %
1263 16-06-2019 12:27:16 19.1 C 63 %
1264 16-06-2019 12:39:17 19.2 C 63 %
1265 16-06-2019 12:51:17 19.1 C 63 %
1266 16-06-2019 13:03:17 19.2 C 62 %
1267 16-06-2019 13:15:17 19.2 C 62 %
1268 16-06-2019 13:27:17 19.3 C 62 %
1269 16-06-2019 13:39:17 19.2 C 62 %
1270 16-06-2019 13:51:17 19.3 C 62 %
1271 16-06-2019 14:03:17 19.3 C 62 %
1272 16-06-2019 14:15:17 19.3 C 62 %
1273 16-06-2019 14:27:18 19.3 C 62 %
1274 16-06-2019 14:39:16 19.3 C 62 %
1275 16-06-2019 14:51:16 19.3 C 62 %
Sensor: Nr:Datum:Temp:Feuchte:
G-T/H 1276 16-06-2019 15:03:17 19.4 C 62 %
1277 16-06-2019 15:15:17 19.4 C 62 %
1278 16-06-2019 15:27:17 19.4 C 62 %
1279 16-06-2019 15:39:16 19.4 C 62 %
1280 16-06-2019 15:51:17 19.4 C 62 %
1281 16-06-2019 16:03:17 19.5 C 62 %
1282 16-06-2019 16:15:16 19.5 C 62 %
1283 16-06-2019 16:27:16 19.5 C 62 %
1284 16-06-2019 16:39:17 19.5 C 62 %
1285 16-06-2019 16:51:16 19.6